[[{"header":{"parameterUnit":"m.s-1","parameterCategory":1,"la1":31.0,"la2":29.5877,"lo1":-88.7671,"lo2":-86.6584,"dy":0.0162,"dx":0.0185,"nx":115,"ny":88,"refTime":"2023-08-14T12:00:00:Z","depth":0,"parameterNumber":2,"parameterNumberName":"U-component_of_WINDS"},"data":[0.0,0.0,0.0,0.0,0.0,0.0,0.0,0.0,0.0,0.0,0.0,0.0,0.0,0.0,0.0,0.0,0.0,0.0,0.0,0.0,0.0,0.0,0.0,0.0,0.0,0.0,0.0,0.0,0.0,0.0,0.0,0.0,0.0,0.0,0.0,0.0,0.0,0.0,0.0,0.0,0.0,0.0,0.0,0.0,0.0,0.0,0.0,0.0,0.0,0.0,0.0,0.0,0.0,0.0,0.0,0.0,0.0,0.0,0.0,0.0,0.0,0.0,0.0,0.0,0.0,0.0,0.0,0.0,0.0,0.0,0.0,0.0,0.0,0.0,0.0,0.0,0.0,0.0,0.0,0.0,0.0,0.0,0.0,0.0,0.0,0.0,0.0,0.0,0.0,0.0,0.0,0.0,0.0,0.0,0.0,0.0,0.0,0.0,0.0,0.0,0.0,0.0,0.0,0.0,0.0,0.0,0.0,0.0,0.0,0.0,0.0,0.0,0.0,0.0,0.0,0.0,0.0,0.0,0.0,0.0,0.0,0.0,0.0,0.0,0.0,0.0,0.0,0.0,0.0,0.0,0.0,0.0,0.0,0.0,0.0,0.0,0.0,0.0,0.0,0.0,0.0,0.0,0.0,0.0,0.0,0.0,0.0,0.0,0.0,0.0,0.0,0.0,0.0,0.0,0.0,0.0,0.0,0.0,0.0,0.0,0.0,0.0,0.0,0.0,0.0,0.0,0.0,0.0,0.0,0.0,0.0,0.0,0.0,0.0,0.0,0.0,0.0,0.0,0.0,0.0,0.0,0.0,0.0,0.0,0.0,0.0,0.0,0.0,0.0,0.0,0.0,0.0,0.0,0.0,0.0,0.0,0.0,0.0,0.0,0.0,0.0,0.0,0.0,0.0,0.0,0.0,0.0,0.0,0.0,0.0,0.0,0.0,0.0,0.0,0.0,0.0,0.0,0.0,0.0,0.0,0.0,0.0,0.0,0.0,0.0,0.0,0.0,0.0,0.0,0.0,0.0,0.0,0.0,0.0,0.0,0.0,0.0,0.0,0.0,0.0,0.0,0.0,0.0,0.0,0.0,0.0,0.0,0.0,0.0,0.0,0.0,0.0,0.0,0.0,0.0,0.0,0.0,0.0,0.0,0.0,0.0,0.0,0.0,0.0,0.0,0.0,0.0,0.0,0.0,0.0,0.0,0.0,0.0,0.0,0.0,0.0,0.0,0.0,0.0,0.0,0.0,0.0,0.0,0.0,0.0,0.0,0.0,0.0,0.0,0.0,0.0,0.0,0.0,0.0,0.0,0.0,0.0,0.0,0.0,0.0,0.0,0.0,0.0,0.0,0.0,0.0,0.0,0.0,0.0,0.0,0.0,0.0,0.0,0.0,0.0,0.0,0.0,0.0,0.0,0.0,0.0,0.0,0.0,0.0,0.0,0.0,0.0,0.0,0.0,0.0,0.0,0.0,0.0,0.0,0.0,0.0,0.0,0.0,0.0,0.0,0.0,0.0,0.0,0.0,0.0,0.0,0.0,0.0,0.0,0.0,0.0,0.0,0.0,0.0,0.0,0.0,0.0,0.0,0.0,0.0,0.0,0.0,0.0,0.0,0.0,0.0,0.0,0.0,0.0,0.0,0.0,0.0,0.0,0.0,0.0,0.0,0.0,0.0,0.0,0.0,0.0,0.0,0.0,0.0,0.0,0.0,0.0,0.0,0.0,0.0,0.0,0.0,0.0,0.0,0.0,0.0,0.0,0.0,0.0,0.0,0.0,0.0,0.0,0.0,0.0,0.0,0.0,0.0,0.0,0.0,0.0,0.0,0.0,0.0,0.0,0.0,0.0,0.0,0.0,0.0,0.0,0.0,0.0,0.0,0.0,0.0,0.0,0.0,0.0,0.0,0.0,0.0,0.0,0.0,0.0,0.0,0.0,0.0,0.0,0.0,0.0,0.0,0.0,0.0,0.0,0.0,0.0,0.0,0.0,0.0,0.0,0.0,0.0,0.0,0.0,0.0,0.0,0.0,0.0,0.0,0.0,0.0,0.0,0.0,0.0,0.0,0.0,0.0,0.0,0.0,0.0,0.0,0.0,0.0,0.0,0.0,0.0,0.0,0.0,0.0,0.0,0.0,0.0,0.0,0.0,0.0,0.0,0.0,0.0,0.0,0.0,0.0,0.0,0.0,0.0,0.0,0.0,0.0,0.0,0.0,0.0,0.0,0.0,0.0,0.0,0.0,0.0,0.0,0.0,0.0,0.0,0.0,0.0,0.0,0.0,0.0,0.0,0.0,0.0,0.0,0.0,0.0,0.0,0.0,0.0,0.0,0.0,0.0,0.0,0.0,0.0,0.0,0.0,0.0,0.0,0.0,0.0,0.0,0.0,0.0,0.0,0.0,0.0,0.0,0.0,0.0,0.0,0.0,0.0,0.0,0.0,0.0,0.0,0.0,0.0,0.0,0.0,0.0,0.0,0.0,0.0,0.0,0.0,0.0,0.0,0.0,0.0,0.0,0.0,0.0,0.0,0.0,0.0,0.0,0.0,0.0,0.0,0.0,0.0,0.0,0.0,0.0,0.0,0.0,0.0,0.0,0.0,0.0,0.0,0.0,0.0,0.0,0.0,0.0,0.0,0.0,0.0,0.0,0.0,0.0,0.0,0.0,0.0,0.0,0.0,0.0,0.0,0.0,0.0,0.0,0.0,0.0,0.0,0.0,0.0,0.0,0.0,0.0,0.0,0.0,0.0,0.0,0.0,0.0,0.0,0.0,0.0,0.0,0.0,0.0,0.0,0.0,0.0,0.0,0.0,0.0,0.0,0.0,0.0,0.0,0.0,0.0,0.0,0.0,0.0,0.0,0.0,0.0,0.0,0.0,0.0,0.0,0.0,0.0,0.0,0.0,0.0,0.0,0.0,0.0,0.0,0.0,0.0,0.0,0.0,0.0,0.0,0.0,0.0,0.0,0.0,0.0,0.0,0.0,0.0,0.0,0.0,0.0,0.0,0.0,0.0,0.0,0.0,0.0,0.0,0.0,0.0,0.0,0.0,0.0,0.0,0.0,0.0,0.0,0.0,0.0,0.0,0.0,0.0,0.0,0.0,0.0,0.0,0.0,0.0,0.0,0.0,0.0,0.0,0.0,0.0,0.0,0.0,0.0,0.0,0.0,0.0,0.0,0.0,0.0,0.0,0.0,0.0,0.0,0.0,0.0,0.0,0.0,0.0,0.0,0.0,0.0,0.0,0.0,0.0,0.0,0.0,0.0,0.0,0.0,0.0,0.0,0.0,0.0,0.0,0.0,0.0,0.0,0.0,0.0,0.0,0.0,0.0,0.0,0.0,0.0,0.0,0.0,0.0,0.0,0.0,0.0,0.0,0.0,0.0,0.0,0.0,0.0,0.0,0.0,0.0,0.0,0.0,0.0,0.0,0.0,0.0,0.0,0.0,0.0,0.0,0.0,0.0,0.0,0.0,0.0,0.0,0.0,0.0,0.0,0.0,0.0,0.0,0.0,0.0,0.0,0.0,0.0,0.0,0.0,0.0,0.0,0.0,0.0,0.0,0.0,0.0,0.0,0.0,0.0,0.0,0.0,0.0,0.0,0.0,0.0,0.0,0.0,0.0,0.0,0.0,0.0,0.0,0.0,0.0,0.0,0.0,0.0,0.0,0.0,0.0,0.0,0.0,0.0,0.0,0.0,0.0,0.0,0.0,0.0,0.0,0.0,0.0,0.0,0.0,0.0,0.0,0.0,0.0,0.0,0.0,0.0,0.0,0.0,0.0,0.0,0.0,0.0,0.0,0.0,0.0,0.0,0.0,0.0,0.0,0.0,0.0,0.0,0.0,0.0,0.0,0.0,0.0,0.0,0.0,0.0,0.0,0.0,0.0,0.0,0.0,0.0,0.0,0.0,0.0,0.0,0.0,0.0,0.0,0.0,0.0,0.0,0.0,0.0,0.0,0.0,0.0,0.0,0.0,0.0,0.0,0.0,0.0,0.0,0.0,0.0,0.0,0.0,0.0,0.0,0.0,0.0,0.0,0.0,0.0,0.0,0.0,0.0,0.0,0.0,0.0,0.0,0.0,0.0,0.0,0.0,0.0,0.0,0.0,0.0,0.0,0.0,0.0,0.0,0.0,0.0,0.0,0.0,0.0,0.0,0.0,0.0,0.0,0.0,0.0,0.0,0.0,0.0,0.0,0.0,0.0,0.0,0.0,0.0,0.0,0.0,0.0,0.0,0.0,0.0,0.0,0.0,0.0,0.0,0.0,0.0,1.0148,0.0,0.0,0.0,0.0,0.0,0.0,0.0,0.0,0.0,0.0,0.0,0.0,0.0,0.0,0.0,0.0,0.0,0.0,0.0,0.0,0.0,0.0,0.0,0.0,0.0,0.0,0.0,0.0,0.0,0.0,0.0,0.0,0.0,0.0,0.0,0.0,0.0,0.0,0.0,0.0,0.0,0.0,0.0,0.0,0.0,0.0,0.0,0.0,0.0,0.0,0.0,0.0,0.0,0.0,0.0,0.0,0.0,0.0,0.0,0.0,0.0,0.0,0.0,0.0,0.0,0.0,0.0,0.0,0.0,0.0,0.0,0.0,0.0,0.0,0.0,0.0,0.0,0.0,0.0,0.0,0.0,0.0,0.0,0.0,0.0,0.0,0.0,0.0,0.0,0.0,0.0,0.0,0.0,0.0,0.0,0.0,0.0,0.0,0.0,0.0,0.0,0.0,0.0,0.0,0.0,0.0,0.0,0.0,0.0,0.0,1.201,1.2428,1.2083,1.1301,1.0113,0.0,0.0,0.0,0.0,0.0,0.0,0.0,0.0,0.0,0.0,0.0,0.0,0.0,0.0,0.0,0.0,0.0,0.0,0.0,0.0,0.0,0.0,0.0,0.0,0.0,0.0,0.0,0.0,0.0,0.0,0.0,0.0,0.0,0.0,0.0,0.0,0.0,0.0,0.0,0.0,0.0,0.0,0.0,0.0,0.0,0.0,0.0,0.0,0.0,0.0,0.0,0.0,0.0,0.0,0.0,0.0,0.0,0.0,0.0,0.0,0.0,0.0,0.0,0.0,0.0,0.0,0.0,0.0,0.0,0.0,0.0,0.0,0.0,0.0,0.0,0.0,0.0,0.0,0.0,0.0,0.0,0.0,0.0,0.0,0.0,0.0,0.0,0.0,0.0,0.0,0.0,0.0,0.0,0.0,0.0,0.0,0.0,0.0,0.0,0.0,0.0,0.0,0.0,0.0,0.0,0.0,0.0,0.0,0.0,0.0,0.0,0.0,1.274,1.179,1.0082,0.0,0.0,0.0,0.0,0.0,0.0,0.0,0.0,0.0,0.0,0.0,0.0,0.0,0.0,0.0,0.0,0.0,0.0,0.0,0.0,0.0,0.0,0.0,0.0,0.0,0.0,0.0,0.0,0.0,0.0,0.0,0.0,0.0,0.0,0.0,0.0,0.0,0.0,0.0,0.0,0.0,0.0,0.0,0.0,0.0,0.0,0.0,0.0,0.0,0.0,0.0,0.0,0.0,0.0,0.0,0.0,0.0,0.0,0.0,0.0,0.0,0.0,0.0,0.0,0.0,0.0,0.0,0.0,0.0,0.0,0.0,0.0,0.0,0.0,0.0,0.0,0.0,0.0,0.0,0.0,0.0,0.0,0.0,0.0,0.0,0.0,0.0,0.0,0.0,0.0,0.0,0.0,0.0,0.0,0.0,0.0,0.0,0.0,0.0,0.0,0.0,0.0,0.0,0.0,0.0,0.0,0.0,0.0,0.0,0.0,1.3672,1.4456,1.3775,0.0,1.0108,0.0,0.0,0.0,0.0,0.0,0.0,0.0,0.0,0.0,0.0,0.0,0.0,0.0,0.0,0.0,0.0,0.0,0.0,0.0,0.0,0.0,0.0,0.0,0.0,0.0,0.0,0.0,0.0,0.0,0.0,0.0,0.0,0.0,0.0,0.0,0.0,0.0,0.0,0.0,0.0,0.0,0.0,0.0,0.0,0.0,0.0,0.0,0.0,0.0,0.0,0.0,0.0,0.0,0.0,0.0,0.0,0.0,0.0,0.0,0.0,0.0,0.0,0.0,0.0,0.0,0.0,0.0,0.0,0.0,0.0,0.0,0.0,0.0,0.0,0.0,0.0,0.0,0.0,0.0,0.0,0.0,0.0,0.0,0.0,0.0,0.0,0.0,0.0,0.0,0.0,0.0,0.0,0.0,0.0,0.0,0.0,0.0,0.0,0.0,0.0,0.0,0.0,0.0,0.0,0.0,0.0,0.0,0.0,0.0,0.0,1.4176,1.4512,1.4272,1.3233,0.0,0.0,0.0,0.0,0.0,0.0,0.0,0.0,0.0,0.0,0.0,0.0,0.0,0.0,0.0,0.0,0.0,0.0,0.0,0.0,0.0,0.0,0.0,0.0,0.0,0.0,0.0,0.0,0.0,0.0,0.0,0.0,0.0,0.0,0.0,0.0,0.0,0.0,0.0,0.0,0.0,0.0,0.0,0.0,0.0,0.0,0.0,0.0,0.0,0.0,0.0,0.0,0.0,0.0,0.0,0.0,0.0,0.0,0.0,0.0,0.0,0.0,0.0,0.0,0.0,0.0,0.0,0.0,0.0,0.0,0.0,0.0,0.0,0.0,0.0,0.0,0.0,0.0,0.0,0.0,0.0,0.0,0.0,0.0,0.0,0.0,0.0,0.0,0.0,0.0,0.0,0.0,0.0,0.0,0.0,0.0,0.0,0.0,0.0,0.0,0.0,0.0,0.0,0.0,0.0,0.0,0.0,0.0,0.0,0.0,1.4332,1.4326,1.4326,1.4437,1.3739,1.2093,0.0,0.0,0.0,0.0,0.0,0.0,0.0,0.0,0.0,0.0,0.0,0.0,0.0,0.0,0.0,0.0,0.0,0.0,0.0,0.0,0.0,0.0,0.0,0.0,0.0,0.0,0.0,0.0,0.0,0.0,0.0,0.0,0.0,0.0,0.0,0.0,0.0,0.0,0.0,0.0,0.0,0.0,0.0,0.0,0.0,0.0,0.0,0.0,0.0,0.0,0.0,0.0,0.0,0.0,0.0,0.0,0.0,0.0,0.0,0.0,0.0,0.0,0.0,0.0,0.0,0.0,0.0,0.0,0.0,0.0,0.0,0.0,0.0,0.0,0.0,0.0,0.0,0.0,0.0,0.0,0.0,0.0,0.0,0.0,0.0,0.0,0.0,0.0,0.0,0.0,0.0,0.0,0.0,0.0,0.0,0.0,0.0,0.0,0.0,0.0,0.0,0.0,0.0,0.0,0.0,0.0,0.0,0.0,1.4087,1.4167,1.4167,1.4123,1.425,1.3557,0.0,0.0,0.0,0.0,0.0,0.0,0.0,0.0,0.0,0.0,0.0,0.0,0.0,0.0,0.0,0.0,0.0,0.0,0.0,0.0,0.0,0.0,0.0,0.0,0.0,0.0,0.0,0.0,0.0,0.0,0.0,0.0,0.0,0.0,0.0,0.0,0.0,0.0,0.0,0.0,0.0,0.0,0.0,0.0,0.0,0.0,0.0,0.0,0.0,0.0,0.0,0.0,0.0,0.0,0.0,0.0,0.0,0.0,0.0,0.0,0.0,0.0,0.0,0.0,0.0,0.0,0.0,0.0,0.0,0.0,0.0,0.0,0.0,0.0,0.0,0.0,0.0,0.0,0.0,0.0,0.0,0.0,0.0,0.0,0.0,0.0,0.0,0.0,0.0,0.0,0.0,0.0,0.0,0.0,0.0,0.0,0.0,0.0,0.0,0.0,0.0,0.0,0.0,0.0,0.0,0.0,0.0,0.0,0.0,1.3856,1.3923,1.3938,1.3906,1.3995,1.3427,0.0,0.0,0.0,0.0,0.0,0.0,0.0,0.0,0.0,0.0,0.0,0.0,0.0,0.0,0.0,0.0,0.0,0.0,0.0,0.0,0.0,0.0,0.0,0.0,0.0,0.0,0.0,0.0,0.0,0.0,0.0,0.0,0.0,0.0,0.0,0.0,0.0,0.0,0.0,0.0,0.0,0.0,0.0,0.0,0.0,0.0,0.0,0.0,0.0,0.0,0.0,0.0,0.0,0.0,0.0,0.0,0.0,0.0,0.0,0.0,0.0,0.0,0.0,0.0,0.0,0.0,0.0,0.0,0.0,0.0,0.0,0.0,0.0,0.0,0.0,0.0,0.0,0.0,0.0,0.0,0.0,0.0,0.0,0.0,0.0,0.0,0.0,0.0,0.0,0.0,0.0,0.0,0.0,0.0,0.0,0.0,0.0,0.0,0.0,0.0,0.0,0.0,0.0,0.0,0.0,0.0,0.0,0.0,0.0,1.3603,0.0,1.3638,1.3655,1.3754,1.3246,0.0,0.0,0.0,0.0,0.0,0.0,0.0,0.0,0.0,0.0,0.0,0.0,0.0,0.0,0.0,0.0,0.0,0.0,0.0,0.0,0.0,0.0,0.0,0.0,0.0,0.0,0.0,0.0,0.0,0.0,0.0,0.0,0.0,0.0,0.0,0.0,0.0,0.0,0.0,0.0,0.0,0.0,0.0,0.0,0.0,0.0,0.0,0.0,0.0,0.0,0.0,0.0,0.0,0.0,0.0,0.0,0.0,0.0,0.0,0.0,0.0,0.0,0.0,0.0,0.0,0.0,0.0,0.0,0.0,0.0,0.0,0.0,0.0,0.0,0.0,0.0,0.0,0.0,0.0,0.0,0.0,0.0,0.0,0.0,0.0,0.0,0.0,0.0,0.0,0.0,0.0,0.0,0.0,0.0,0.0,0.0,0.0,0.0,0.0,0.0,0.0,0.0,0.0,0.0,0.0,0.0,0.0,0.0,1.3278,1.3278,1.3278,1.3278,1.3295,1.3498,1.299,0.0,0.0,0.0,0.0,0.0,0.0,0.0,0.0,0.0,0.0,0.0,0.0,0.0,0.0,0.0,0.0,0.0,0.0,0.0,0.0,0.0,0.0,0.0,0.0,0.0,0.0,0.0,0.0,0.0,0.0,0.0,0.0,0.0,0.0,0.0,0.0,0.0,0.0,0.0,0.0,0.0,0.0,0.0,0.0,0.0,0.0,0.0,0.0,0.0,0.0,0.0,0.0,0.0,0.0,0.0,0.0,0.0,0.0,0.0,0.0,0.0,0.0,0.0,0.0,0.0,0.0,0.0,0.0,0.0,0.0,0.0,0.0,0.0,0.0,0.0,0.0,0.0,0.0,0.0,0.0,0.0,0.0,0.0,0.0,0.0,0.0,0.0,0.0,0.0,0.0,0.0,0.0,0.0,0.0,0.0,0.0,0.0,0.0,0.0,0.0,0.0,0.0,0.0,0.0,0.0,0.0,0.0,0.0,0.0,1.2944,1.2944,1.2944,1.2961,1.3143,1.2765,0.0,0.0,0.0,0.0,0.0,0.0,0.0,0.0,0.0,0.0,0.0,0.0,0.0,0.0,0.0,0.0,0.0,0.0,0.0,0.0,0.0,0.0,0.0,0.0,0.0,0.0,0.0,0.0,0.0,0.0,0.0,0.0,0.0,0.0,0.0,0.0,0.0,0.0,0.0,0.0,0.0,0.0,0.0,0.0,0.0,0.0,0.0,0.0,0.0,0.0,0.0,0.0,0.0,0.0,0.0,0.0,0.0,0.0,0.0,0.0,0.0,0.0,0.0,0.0,0.0,0.0,0.0,0.0,0.0,0.0,0.0,0.0,0.0,0.0,0.0,0.0,0.0,0.0,0.0,0.0,0.0,0.0,0.0,0.0,0.0,0.0,0.0,0.0,0.0,0.0,0.0,0.0,0.0,0.0,0.0,0.0,0.0,0.0,0.0,0.0,0.0,0.0,0.0,0.0,0.0,0.0,0.0,0.0,0.0,1.2577,1.2598,1.2585,1.2585,1.2783,1.2412,1.1426,0.0,0.0,0.0,0.0,0.0,0.0,0.0,0.0,0.0,0.0,0.0,0.0,0.0,0.0,0.0,0.0,0.0,0.0,0.0,0.0,0.0,0.0,0.0,0.0,0.0,0.0,0.0,0.0,0.0,0.0,0.0,0.0,0.0,0.0,0.0,0.0,0.0,0.0,0.0,0.0,0.0,0.0,0.0,0.0,0.0,0.0,0.0,0.0,0.0,0.0,0.0,0.0,0.0,0.0,0.0,0.0,0.0,0.0,0.0,0.0,0.0,0.0,0.0,0.0,0.0,0.0,0.0,0.0,0.0,0.0,0.0,0.0,0.0,0.0,0.0,0.0,0.0,0.0,0.0,0.0,0.0,0.0,0.0,0.0,0.0,0.0,0.0,0.0,0.0,0.0,0.0,0.0,0.0,0.0,0.0,0.0,0.0,0.0,0.0,0.0,0.0,0.0,0.0,0.0,0.0,0.0,0.0,0.0,1.2269,1.2223,1.2236,1.2226,1.2381,1.2055,0.0,0.0,0.0,0.0,0.0,0.0,0.0,0.0,0.0,0.0,0.0,0.0,0.0,0.0,0.0,0.0,0.0,0.0,0.0,0.0,0.0,0.0,0.0,0.0,0.0,0.0,0.0,0.0,0.0,0.0,0.0,0.0,0.0,0.0,0.0,0.0,0.0,0.0,0.0,0.0,0.0,0.0,0.0,0.0,0.0,0.0,0.0,0.0,0.0,0.0,0.0,0.0,0.0,0.0,0.0,0.0,0.0,0.0,0.0,0.0,0.0,0.0,0.0,0.0,0.0,0.0,0.0,0.0,0.0,0.0,0.0,0.0,0.0,0.0,0.0,0.0,0.0,0.0,0.0,0.0,0.0,0.0,0.0,0.0,0.0,0.0,0.0,0.0,0.0,0.0,0.0,0.0,0.0,0.0,0.0,0.0,0.0,0.0,0.0,0.0,0.0,0.0,0.0,0.0,0.0,0.0,0.0,0.0,0.0,1.1857,1.2265,1.2449,1.2361,1.2205,1.1918,0.0,0.0,0.0,0.0,0.0,0.0,0.0,0.0,0.0,0.0,0.0,0.0,0.0,0.0,0.0,0.0,0.0,0.0,0.0,0.0,0.0,0.0,0.0,0.0,0.0,0.0,0.0,0.0,0.0,0.0,0.0,0.0,0.0,0.0,0.0,0.0,0.0,0.0,0.0,0.0,0.0,0.0,0.0,0.0,0.0,0.0,0.0,0.0,0.0,0.0,0.0,0.0,0.0,0.0,0.0,0.0,0.0,0.0,0.0,0.0,0.0,0.0,0.0,0.0,0.0,0.0,0.0,0.0,0.0,0.0,0.0,0.0,0.0,0.0,0.0,0.0,0.0,0.0,0.0,0.0,0.0,0.0,0.0,0.0,0.0,0.0,0.0,0.0,0.0,0.0,0.0,0.0,0.0,0.0,0.0,0.0,0.0,0.0,0.0,0.0,0.0,0.0,0.0,0.0,0.0,0.0,0.0,0.0,1.136,1.1707,1.2379,1.2686,1.2595,1.1952,1.1643,0.0,0.0,0.0,0.0,0.0,0.0,0.0,0.0,0.0,0.0,0.0,0.0,0.0,0.0,0.0,0.0,0.0,0.0,0.0,0.0,0.0,0.0,0.0,0.0,0.0,0.0,0.0,0.0,0.0,0.0,0.0,0.0,0.0,0.0,0.0,0.0,0.0,0.0,0.0,0.0,0.0,0.0,0.0,0.0,0.0,0.0,0.0,0.0,0.0,0.0,0.0,0.0,0.0,0.0,0.0,0.0,0.0,0.0,0.0,0.0,0.0,0.0,0.0,0.0,0.0,0.0,0.0,0.0,0.0,0.0,0.0,0.0,0.0,0.0,0.0,0.0,0.0,0.0,0.0,0.0,0.0,0.0,0.0,0.0,0.0,0.0,0.0,0.0,0.0,0.0,0.0,0.0,0.0,0.0,0.0,0.0,0.0,0.0,0.0,0.0,0.0,0.0,0.0,0.0,0.0,0.0,0.0,0.0,1.1086,1.1711,1.2473,1.2883,1.2794,1.1891,1.1506,0.0,0.0,0.0,0.0,0.0,0.0,0.0,0.0,0.0,0.0,0.0,0.0,0.0,0.0,0.0,0.0,0.0,0.0,0.0,0.0,0.0,0.0,0.0,0.0,0.0,0.0,0.0,0.0,0.0,0.0,0.0,0.0,0.0,0.0,0.0,0.0,0.0,0.0,0.0,0.0,0.0,0.0,0.0,0.0,0.0,0.0,0.0,0.0,0.0,0.0,0.0,0.0,0.0,0.0,0.0,0.0,0.0,0.0,0.0,0.0,0.0,0.0,0.0,0.0,0.0,0.0,0.0,0.0,0.0,0.0,0.0,0.0,0.0,0.0,0.0,0.0,0.0,0.0,0.0,0.0,0.0,0.0,0.0,0.0,0.0,0.0,0.0,0.0,0.0,0.0,0.0,0.0,0.0,0.0,0.0,0.0,0.0,0.0,0.0,0.0,0.0,0.0,0.0,0.0,0.0,0.0,0.0,0.0,1.1084,1.1773,1.2488,1.2874,1.3023,1.3218,1.2713,0.0,0.0,0.0,0.0,0.0,0.0,0.0,0.0,0.0,0.0,0.0,0.0,0.0,0.0,0.0,0.0,0.0,0.0,0.0,0.0,0.0,0.0,0.0,0.0,0.0,0.0,0.0,0.0,0.0,0.0,0.0,0.0,0.0,0.0,0.0,0.0,0.0,0.0,0.0,0.0,0.0,0.0,0.0,0.0,0.0,0.0,0.0,0.0,1.1825,0.0,0.0,0.0,0.0,0.0,0.0,0.0,0.0,0.0,0.0,0.0,0.0,0.0,0.0,0.0,0.0,0.0,0.0,0.0,0.0,0.0,0.0,0.0,0.0,0.0,0.0,0.0,0.0,0.0,0.0,0.0,0.0,0.0,0.0,0.0,0.0,0.0,0.0,0.0,0.0,0.0,0.0,0.0,0.0,0.0,0.0,0.0,0.0,0.0,0.0,0.0,0.0,0.0,0.0,0.0,0.0,0.0,0.0,0.0,1.0944,1.1421,1.213,1.2579,1.2768,1.3133,1.2729,0.0,0.0,0.0,0.0,0.0,0.0,0.0,0.0,0.0,0.0,0.0,0.0,0.0,0.0,0.0,0.0,0.0,0.0,0.0,0.0,0.0,0.0,0.0,0.0,0.0,0.0,0.0,0.0,0.0,0.0,0.0,0.0,0.0,0.0,0.0,0.0,0.0,0.0,0.0,0.0,0.0,0.0,0.0,0.0,0.0,0.0,0.0,0.0,0.0,0.0,0.0,0.0,0.0,0.0,0.0,0.0,0.0,0.0,0.0,0.0,0.0,0.0,0.0,0.0,0.0,0.0,0.0,0.0,0.0,0.0,0.0,0.0,0.0,0.0,0.0,0.0,0.0,0.0,0.0,0.0,0.0,0.0,0.0,0.0,0.0,0.0,0.0,0.0,0.0,0.0,0.0,0.0,0.0,0.0,0.0,0.0,0.0,0.0,0.0,0.0,0.0,0.0,0.0,0.0,0.0,0.0,0.0,1.0153,1.0767,1.1029,1.1729,1.2174,1.2294,1.252,1.2307,1.1585,0.0,0.0,0.0,0.0,0.0,0.0,0.0,0.0,0.0,0.0,0.0,0.0,0.0,0.0,0.0,0.0,0.0,0.0,0.0,0.0,0.0,0.0,0.0,0.0,0.0,0.0,0.0,0.0,0.0,0.0,0.0,0.0,0.0,0.0,0.0,0.0,0.0,0.0,1.2867,1.3233,0.0,0.0,0.0,0.0,0.0,0.0,0.0,0.0,1.1745,0.0,0.0,0.0,0.0,0.0,0.0,0.0,0.0,0.0,0.0,0.0,0.0,0.0,0.0,0.0,0.0,0.0,0.0,0.0,0.0,0.0,0.0,0.0,0.0,0.0,0.0,0.0,0.0,0.0,0.0,0.0,0.0,0.0,0.0,0.0,0.0,0.0,0.0,0.0,0.0,0.0,0.0,0.0,0.0,0.0,0.0,0.0,0.0,0.0,0.0,0.0,0.0,0.0,0.0,0.0,0.0,0.9365,0.9946,1.0583,1.1163,1.1498,1.1763,1.1884,1.2138,1.2002,1.1484,0.0,0.0,0.0,0.0,0.0,0.0,0.0,0.0,0.0,0.0,0.0,0.0,0.0,0.0,0.0,0.0,0.0,0.0,0.0,0.0,0.0,0.0,0.0,0.0,0.0,0.0,0.0,0.0,0.0,0.0,0.0,0.0,0.0,0.0,0.0,0.0,0.0,0.0,0.0,1.3583,1.3875,0.0,0.0,0.0,0.0,0.0,0.0,0.0,0.0,1.1105,0.0,0.0,0.0,0.0,0.0,0.0,0.0,0.0,0.0,0.0,0.0,0.0,0.0,0.0,0.0,0.0,0.0,0.0,0.0,0.0,0.0,0.0,0.0,0.0,0.0,0.0,0.0,0.0,0.0,0.0,0.0,0.0,0.0,0.0,0.0,0.0,0.0,0.0,0.0,0.0,0.0,0.0,0.0,0.0,0.0,0.0,0.0,0.0,0.0,0.0,0.0,0.0,0.0,0.0,0.0,0.9492,1.0039,1.0559,1.1019,1.1207,1.1404,1.1649,1.1833,1.1741,0.0,0.0,0.0,0.0,0.0,0.0,0.0,0.0,0.0,0.0,0.0,0.0,0.0,0.0,0.0,0.0,0.0,0.0,0.0,0.0,0.0,0.0,0.0,0.0,0.0,0.0,0.0,0.0,0.0,0.0,0.0,0.0,0.0,0.0,0.0,0.0,0.0,0.0,0.0,0.0,1.3644,1.3715,1.3607,0.0,0.0,0.0,0.0,0.0,0.0,1.1292,1.0916,0.0,0.0,0.0,0.0,0.0,0.0,0.0,0.0,0.0,0.0,0.0,0.0,0.0,0.0,0.0,0.0,0.0,0.0,0.0,0.0,0.0,0.0,0.0,0.0,0.0,0.0,0.0,0.0,0.0,0.0,0.0,0.0,0.0,0.0,0.0,0.0,0.0,0.0,0.0,0.0,0.0,0.0,0.0,0.0,0.0,0.0,0.0,0.0,0.0,0.0,0.0,0.0,0.0,0.0,0.0,0.9602,1.0097,1.0495,1.0802,1.0905,1.1105,1.1362,1.156,1.1567,0.0,0.0,0.0,0.0,0.0,0.0,0.0,0.0,0.0,0.0,0.0,0.0,0.0,0.0,0.0,0.0,0.0,0.0,0.0,0.0,0.0,0.0,0.0,0.0,0.0,0.0,0.0,0.0,0.0,0.0,0.0,0.0,0.0,0.0,0.0,0.0,0.0,0.0,0.0,0.0,0.0,1.3344,1.3242,1.2965,0.0,0.0,0.0,0.0,1.1442,1.1067,0.0,0.0,0.0,0.0,0.0,0.0,0.0,0.0,0.0,0.0,0.0,0.0,0.0,0.0,0.0,0.0,0.0,0.0,0.0,0.0,0.0,0.0,0.0,0.0,0.0,0.0,0.0,0.0,0.0,0.0,0.0,0.0,0.0,0.0,0.0,0.0,0.0,0.0,0.0,0.0,0.0,0.0,0.0,0.0,0.0,0.0,0.0,0.0,0.0,0.0,0.0,0.0,0.0,0.0,0.0,0.0,0.9521,1.003,1.039,1.0457,1.0774,1.0926,1.0964,1.1325,1.1501,0.0,0.0,0.0,0.0,0.0,0.0,0.0,0.0,0.0,0.0,0.0,0.0,0.0,0.0,0.0,0.0,0.0,0.0,0.0,0.0,0.0,0.0,0.0,0.0,0.0,0.0,0.0,0.0,0.0,0.0,0.0,0.0,0.0,0.0,0.0,0.0,0.0,0.0,0.0,0.0,0.0,1.2838,1.272,1.2579,1.233,0.0,0.0,1.1442,1.1019,1.0621,0.0,0.0,0.0,0.0,0.0,0.0,0.0,0.0,0.0,0.0,0.0,0.0,0.0,0.0,0.0,0.0,0.0,0.0,0.0,0.0,0.0,0.0,0.0,0.0,0.0,0.0,0.0,0.0,0.0,0.0,0.0,0.0,0.0,0.0,0.0,0.0,0.0,0.0,0.0,0.0,0.0,0.0,0.0,0.0,0.0,0.0,0.0,0.0,0.0,0.0,0.0,0.0,0.0,0.0,0.0,0.9385,0.9667,0.9992,1.0235,1.0351,1.0534,1.0687,1.0878,1.1088,1.125,0.0,0.0,0.0,0.0,0.0,0.0,0.0,0.0,0.0,0.0,0.0,0.0,0.0,0.0,0.0,0.0,0.0,0.0,0.0,0.0,0.0,0.0,0.0,0.0,0.0,0.0,0.0,0.0,0.0,0.0,0.0,0.0,0.0,0.0,0.0,0.0,0.0,0.0,0.0,0.0,0.0,0.0,1.2187,1.2029,0.0,0.0,0.0,1.0905,1.0621,0.0,0.0,0.0,0.0,0.0,0.0,0.0,0.0,0.0,0.0,0.0,0.0,0.0,0.0,0.0,0.0,0.0,0.0,0.0,0.0,0.0,0.0,0.0,0.0,0.0,0.0,0.0,0.0,0.0,0.0,0.0,0.0,0.0,0.0,0.0,0.0,0.0,0.0,0.0,0.0,0.0,0.0,0.0,0.0,0.0,0.0,0.0,0.0,0.0,0.0,0.0,0.0,0.0,0.0,0.0,0.0,0.0,0.9774,0.9932,1.0079,1.0205,1.0312,1.0495,1.0725,1.0802,0.0,0.0,0.0,0.0,0.0,0.0,0.0,0.0,0.0,0.0,0.0,0.0,0.0,0.0,0.0,0.0,0.0,0.0,0.0,0.0,0.0,0.0,0.0,0.0,0.0,0.0,0.0,0.8415,0.0,0.0,0.0,0.0,0.0,0.0,0.0,0.0,0.0,0.0,0.0,0.0,0.0,0.0,1.1641,1.1616,1.1404,1.1217,0.0,0.0,1.038,1.0079,0.9707,0.927,0.0,0.0,0.0,0.0,0.0,0.0,0.0,0.0,0.0,0.0,0.0,0.0,0.0,0.0,0.0,0.0,0.0,0.0,0.0,0.0,0.0,0.0,0.0,0.0,0.0,0.0,0.0,0.0,0.0,0.0,0.0,0.0,0.0,0.0,0.0,0.0,0.0,0.0,0.0,0.0,0.0,0.0,0.0,0.0,0.0,0.0,0.0,0.0,0.0,0.0,0.0,0.0,0.0,0.0,0.0,0.9723,0.9783,0.9902,1.0019,1.0205,1.0322,1.0322,1.0572,1.0774,0.0,0.0,0.0,0.0,0.0,0.0,0.0,0.0,0.0,0.0,0.0,0.0,0.0,0.0,0.0,0.0,0.0,0.0,0.0,0.0,0.0,0.0,0.0,0.0,0.0,0.0,0.0,0.0,0.0,0.0,0.0,0.0,0.0,0.0,0.0,0.0,0.0,0.0,0.0,0.0,0.0,1.0905,1.0791,1.0725,1.0582,0.0,0.0,0.9746,0.9399,0.907,0.8707,0.83,0.0,0.0,0.0,0.0,0.0,0.0,0.0,0.0,0.0,0.0,0.0,0.0,0.0,0.0,0.0,0.0,0.0,0.0,0.0,0.0,0.0,0.0,0.0,0.0,0.0,0.0,0.0,0.0,0.0,0.0,0.0,0.0,0.0,0.0,0.0,0.0,0.0,0.0,0.0,0.0,0.0,0.0,0.0,0.0,0.0,0.0,0.0,0.0,0.0,0.0,0.0,0.0,0.0,0.9408,0.9457,0.9567,0.9655,0.9832,0.9941,1.0059,1.0157,1.0273,1.0448,0.0,0.0,0.0,0.0,0.0,0.0,0.0,0.0,0.0,0.0,0.0,0.0,0.0,0.0,0.0,0.0,0.0,0.0,0.0,0.0,0.0,0.0,0.0,0.0,0.0,0.0,0.0,0.0,0.8111,0.8185,0.83,0.0,0.0,0.0,0.0,0.0,0.0,0.0,0.0,0.0,0.0,1.005,0.9981,0.9873,0.0,0.0,0.935,0.9102,0.8837,0.8504,0.8177,0.7848,0.7447,0.0,0.0,0.0,0.0,0.0,0.0,0.0,0.0,0.0,0.0,0.0,0.0,0.0,0.0,0.0,0.0,0.0,0.0,0.0,0.0,0.0,0.0,0.0,0.0,0.0,0.0,0.0,0.0,0.0,0.0,0.0,0.0,0.0,0.0,0.0,0.0,0.0,0.0,0.0,0.0,0.0,0.0,0.0,0.0,0.0,0.0,0.0,0.0,0.0,0.0,0.0,0.0,0.9466,0.9466,0.9624,0.9757,0.9866,0.999,1.0104,1.0259,1.0299,1.0333,0.0,0.0,0.0,0.0,0.0,0.0,0.0,0.0,0.0,0.0,0.0,0.0,0.0,0.0,0.0,0.0,0.0,0.0,0.0,0.0,0.0,0.0,0.0,0.0,0.0,0.0,0.0,0.0,0.7419,0.7447,0.7655,0.0,0.0,0.0,0.0,0.0,0.0,0.0,0.0,0.0,0.0,0.9182,0.9151,0.903,0.895,0.8846,0.8635,0.8431,0.8185,0.7897,0.7599,0.7314,0.0,0.0,0.0,0.0,0.0,0.0,0.0,0.0,0.0,0.0,0.0,0.0,0.0,0.0,0.0,0.0,0.0,0.0,0.0,0.0,0.0,0.0,0.0,0.0,0.0,0.0,0.0,0.0,0.0,0.0,0.0,0.0,0.0,0.0,0.0,0.0,0.0,0.0,0.0,0.0,0.0,0.0,0.0,0.0,0.0,0.0,0.0,0.0,0.0,0.0,0.0,0.0,0.0,0.9868,0.9877,1.0086,1.0275,1.0275,1.0481,1.0561,1.0561,1.0714,1.0558,1.0047,0.0,0.0,0.0,0.0,0.0,0.0,0.0,0.0,0.0,0.0,0.0,0.0,0.0,0.0,0.0,0.0,0.0,0.0,0.0,0.0,0.0,0.0,0.0,0.0,0.0,0.0,0.6956,0.6823,0.6774,0.0,0.0,0.0,0.0,0.0,0.0,0.0,0.0,0.0,0.0,0.8267,0.8259,0.8316,0.8259,0.8177,0.8062,0.787,0.7677,0.7468,0.7209,0.6937,0.0,0.0,0.0,0.0,0.0,0.0,0.0,0.0,0.0,0.0,0.0,0.0,0.0,0.0,0.0,0.0,0.0,0.0,0.0,0.0,0.0,0.0,0.0,0.0,0.0,0.0,0.0,0.0,1.4072,0.0,0.0,0.0,0.0,0.0,0.0,0.0,0.0,0.0,0.0,0.0,1.03,1.0087,0.0,0.0,0.0,0.0,0.0,0.0,0.0,0.0,0.0,0.0,0.0,0.0,0.9506,0.9506,0.9598,0.9727,0.991,0.9956,1.01,1.0282,1.0327,1.015,0.98,0.0,0.0,0.0,0.0,0.0,0.0,0.0,0.0,0.0,0.0,0.0,0.0,0.0,0.0,0.0,0.0,0.0,0.0,0.0,0.0,0.0,0.0,0.0,0.0,0.0,0.6556,0.0,0.0,0.0,0.0,0.0,0.0,0.0,0.0,0.0,0.0,0.0,0.7224,0.7294,0.7294,0.7301,0.737,0.737,0.728,0.0,0.0,0.0,0.0,0.0,0.0,0.0,0.0,0.0,0.0,0.0,0.0,0.0,0.0,0.4904,0.5006,0.4807,0.4628,0.4419,0.0,0.0,0.0,0.0,0.0,0.0,0.0,0.0,0.0,0.0,0.0,0.0,0.0,0.0,0.0,0.0,1.3872,0.0,0.0,0.0,0.0,0.0,0.0,0.0,0.0,1.0439,1.0292,1.0335,1.0161,1.0101,0.0,1.02,0.9943,0.0,0.0,0.0,0.0,0.0,0.0,0.0,0.0,0.9394,0.9435,0.9435,0.9579,0.9715,0.9819,0.9962,1.0153,1.0305,1.0284,1.0001,0.9448,0.9225,0.0,0.0,0.0,0.0,0.0,0.0,0.0,0.0,0.0,0.0,0.0,0.0,0.0,0.0,0.0,0.0,0.0,0.0,0.0,0.0,0.0,0.0,0.0,0.5951,0.0,0.0,0.0,0.0,0.0,0.0,0.0,0.0,0.0,0.6499,0.652,0.6476,0.6597,0.6552,0.6564,0.6716,0.0,0.0,0.0,0.0,0.0,0.0,0.0,0.6332,0.6342,0.6002,0.5673,0.5667,0.5375,0.5073,0.4853,0.0,0.0,0.4849,0.466,0.4374,0.4211,0.4079,0.3858,0.3703,0.345,0.324,0.0,0.0,0.0,0.0,0.0,0.0,0.0,0.0,1.5736,1.5298,0.0,1.3898,0.0,0.0,0.0,0.0,0.0,0.0,0.0,0.0,1.0144,1.0006,0.9962,0.9737,0.9576,0.9583,0.9596,0.9576,0.9588,0.989,0.0,0.0,0.0,0.0,0.0,0.0,0.9598,0.9591,0.9688,0.9792,0.9777,1.0043,1.0154,1.0182,1.0615,1.0719,1.0466,1.0087,0.9703,0.9221,0.8857,0.0,0.0,0.0,0.0,0.0,0.0,0.0,0.0,0.0,0.0,0.0,0.0,0.0,0.0,0.0,0.0,0.0,0.0,0.0,0.0,0.5746,0.0,0.0,0.0,0.0,0.0,0.0,0.0,0.0,0.0,0.0,0.5916,0.598,0.6029,0.6154,0.0,0.0,0.0,0.0,0.6417,0.646,0.6466,0.6363,0.6142,0.6,0.5854,0.5716,0.0,0.0,0.4922,0.4897,0.4736,0.4245,0.4079,0.4076,0.4353,0.4294,0.4073,0.3849,0.3782,0.368,0.3411,0.3222,0.3003,1.8883,0.0,0.0,0.0,0.0,1.6569,1.6086,1.5524,1.4997,1.4546,1.4102,1.3399,0.0,0.0,0.0,0.0,0.0,0.0,1.0165,1.0116,0.9633,0.9492,0.9687,0.9379,0.9358,0.9544,0.9544,0.9439,0.9259,0.9351,0.9467,0.9588,0.0,0.0,0.0,0.0,0.9588,0.9638,0.9638,0.9591,0.9479,0.9587,0.9589,0.9472,0.9976,1.0041,0.9614,0.9311,0.9036,0.8861,0.8322,0.0,0.0,0.0,0.0,0.0,0.0,0.0,0.0,0.0,0.0,0.0,0.0,0.0,0.0,0.0,0.0,0.0,0.0,0.0,0.5189,0.4907,0.4709,0.0,0.0,0.0,0.0,0.0,0.0,0.0,0.0,0.0,0.4311,0.4606,0.4885,0.0,0.0,0.5193,0.5452,0.5545,0.5639,0.5639,0.0,0.0,0.0,0.5622,0.5562,0.5584,0.5284,0.4899,0.4343,0.4242,0.4135,0.3805,0.3638,0.3577,0.3519,0.3635,0.3694,0.3524,0.3411,0.3241,0.3072,0.2854,0.2631,1.8899,1.8213,1.7689,1.7173,1.6585,1.6269,1.5816,1.5225,1.4815,1.4342,1.3821,1.3114,1.2603,1.2142,1.1244,0.0,0.0,0.0,0.984,0.9846,0.93,0.9192,0.9439,0.9122,0.9127,0.9363,0.9369,0.9288,0.9079,0.9079,0.9192,0.94,0.0,0.0,0.9259,0.9266,0.9259,0.9266,0.9266,0.9183,0.913,0.9173,0.9147,0.9025,0.92,0.9138,0.8903,0.8611,0.8459,0.8357,0.794,0.7603,0.0,0.0,0.0,0.0,0.0,0.0,0.0,0.0,0.0,0.0,0.0,0.636,0.0,0.0,0.0,0.0,0.5123,0.4754,0.4392,0.4192,0.0,0.0,0.0,0.0,0.0,0.0,0.0,0.3237,0.3207,0.3156,0.3122,0.3401,0.3784,0.4261,0.4444,0.4603,0.4817,0.0,0.5071,0.5118,0.5204,0.5272,0.5251,0.5153,0.5075,0.4984,0.4677,0.4294,0.3744,0.3633,0.3522,0.3304,0.3137,0.2965,0.2798,0.2854,0.3023,0.3023,0.2965,0.2796,0.2573,0.241,0.2186,1.8768,1.8455,1.7412,1.6629,1.5994,1.5878,1.5548,1.512,1.4915,1.4533,1.3907,1.3127,1.2384,1.1765,1.0571,0.0,0.0,0.973,0.9618,0.9556,0.9163,0.9062,0.9203,0.8877,0.8859,0.8985,0.8985,0.8985,0.8974,0.898,0.8985,0.8959,0.8713,0.861,0.8711,0.8693,0.8681,0.8681,0.8687,0.867,0.8652,0.8745,0.8728,0.8646,0.8329,0.8214,0.8344,0.8032,0.7854,0.7848,0.7622,0.7235,0.6705,0.0,0.0,0.0,0.0,0.0,0.0,0.0,0.0,0.0,0.0,0.0,0.0,0.0,0.0,0.0,0.4206,0.0,0.3697,0.3479,0.0,0.0,0.0,0.293,0.2703,0.2647,0.2565,0.2294,0.0,0.0,0.2265,0.0,0.2788,0.3511,0.3931,0.4212,0.4386,0.4556,0.4668,0.4772,0.4846,0.478,0.4639,0.4632,0.445,0.4006,0.3849,0.3574,0.313,0.3019,0.291,0.2689,0.2521,0.241,0.2184,0.2073,0.2071,0.2352,0.241,0.2352,0.2071,0.1906,0.1741,1.8911,1.8015,1.7165,1.6827,1.6758,1.6262,1.5747,1.5195,1.4644,1.4165,1.3769,1.3186,1.2503,1.1831,1.0963,1.0599,1.0539,0.9952,0.9643,0.9643,0.9017,0.8726,0.8772,0.8354,0.8238,0.8282,0.8287,0.8216,0.8004,0.8009,0.7934,0.7788,0.7743,0.8043,0.8734,0.8623,0.8529,0.8529,0.8535,0.8436,0.8243,0.8061,0.794,0.7944,0.7746,0.7724,0.7855,0.7728,0.7583,0.7359,0.7189,0.6858,0.6357,0.5783,0.0,0.0,0.0,0.0,0.0,0.0,0.0,0.0,0.0,0.5116,0.4877,0.0,0.425,0.0,0.3329,0.2932,0.2832,0.2671,0.0,0.0,0.2532,0.2472,0.235,0.2108,0.1994,0.1948,0.1937,0.188,0.1665,0.1605,0.1733,0.2145,0.286,0.3485,0.3787,0.3909,0.4088,0.4246,0.4378,0.4386,0.4146,0.3863,0.3638,0.3352,0.3183,0.2963,0.2462,0.2406,0.2294,0.2071,0.1959,0.1905,0.1794,0.1796,0.1796,0.174,0.1796,0.1796,0.1684,0.1628,0.1515,1.8466,1.7741,1.7095,1.6636,1.6287,1.5647,1.5163,1.4706,1.4049,1.351,1.296,1.2301,1.1826,1.1348,1.0597,1.0327,1.0257,0.9561,0.9211,0.9146,0.8438,0.8132,0.8217,0.7789,0.7689,0.7768,0.7768,0.7699,0.7482,0.7482,0.7409,0.7183,0.7106,0.7305,0.7831,0.8049,0.8213,0.828,0.8184,0.8022,0.7858,0.7674,0.7567,0.7411,0.734,0.729,0.727,0.7195,0.7017,0.6793,0.6667,0.6321,0.5808,0.5365,0.4979,0.0,0.0,0.0,0.0,0.0,0.0,0.0,0.0,0.0,0.0,0.0,0.3382,0.0,0.2628,0.0,0.2214,0.2042,0.1877,0.1787,0.1913,0.1851,0.1665,0.1479,0.1363,0.1194,0.1244,0.1184,0.1025,0.0925,0.1061,0.1396,0.2038,0.261,0.3003,0.3217,0.332,0.3559,0.3639,0.3635,0.3354,0.3137,0.2894,0.2707,0.249,0.2278,0.2023,0.1962,0.1962,0.1737,0.1624,0.1569,0.1459,0.1515,0.1459,0.1122,0.0954,0.1066,0.1403,0.1403,0.1346,1.7707,1.7389,1.6826,1.602,1.5216,1.4576,1.4128,1.3905,1.3382,1.2772,1.2012,1.1114,1.0773,1.0703,1.0008,0.9662,0.9591,0.8882,0.8527,0.845,0.774,0.7462,0.7611,0.7257,0.7195,0.7358,0.7362,0.7301,0.7091,0.7091,0.6932,0.6765,0.6481,0.6482,0.646,0.7127,0.7512,0.7788,0.7628,0.7522,0.7409,0.7381,0.7279,0.7053,0.7016,0.6924,0.6759,0.6558,0.6358,0.622,0.5969,0.565,0.5196,0.4961,0.4668,0.0,0.4,0.0,0.0,0.0,0.0,0.0,0.0,0.0,0.0,0.2764,0.2339,0.2157,0.1787,0.1604,0.1548,0.1365,0.1245,0.1249,0.1187,0.1125,0.0813,0.075,0.0631,0.0324,0.0317,0.0319,0.0334,0.0405,0.0539,0.0803,0.1204,0.1656,0.2063,0.2402,0.2627,0.2801,0.2791,0.2784,0.2616,0.2478,0.2295,0.2076,0.1906,0.1688,0.1592,0.1634,0.1628,0.1346,0.1178,0.1122,0.1122,0.1122,0.0954,0.0449,0.0224,0.028,0.0841,0.1066,0.0955,1.7113,1.6385,1.5622,1.4934,1.448,1.3669,1.3376,1.3566,1.315,1.2501,1.1694,1.0887,1.0592,1.0524,0.9713,0.9345,0.9345,0.8515,0.8218,0.8143,0.7538,0.7175,0.7046,0.6824,0.6673,0.6579,0.6583,0.6568,0.6443,0.6201,0.604,0.5876,0.5606,0.5624,0.5683,0.0,0.0,0.0,0.6777,0.6887,0.6983,0.6838,0.6742,0.6705,0.6568,0.0,0.6452,0.631,0.6045,0.5727,0.5465,0.0,0.0,0.0,0.0,0.0,0.0,0.0,0.0,0.0,0.0,0.0,0.1841,0.182,0.2468,0.1723,0.1047,0.0679,0.0494,0.0374,0.0383,0.032,0.0258,0.0264,0.0265,0.0199,0.0199,-0.0066,-0.0266,-0.0334,-0.0333,-0.0333,-0.0269,-0.027,-0.0202,-0.0068,0.0337,0.0739,0.1001,0.1723,0.2249,0.2314,0.2268,0.2259,0.2312,0.21,0.1914,0.1937,0.1605,0.1415,0.1344,0.137,0.1068,0.0505,0.028,0.0224,0.028,0.0224,0.0224,0.0056,-0.0112,-0.0224,0.0168,0.0224,0.0226,1.6202,0.0,1.4815,1.4174,0.0,1.2904,1.258,1.2407,1.2359,1.1921,1.1037,1.0293,0.9922,0.9846,0.9165,0.8789,0.8722,0.8121,0.7774,0.7544,0.7156,0.6791,0.6624,0.6388,0.6186,0.6012,0.6012,0.5882,0.569,0.5613,0.5452,0.5121,0.4866,0.4755,0.4866,0.4787,0.5099,0.5918,0.5991,0.6026,0.6165,0.6082,0.6036,0.6172,0.0,0.0,0.0,0.0,0.0,0.0,0.0,0.0,0.0,0.0,0.0,0.3125,0.2765,0.2549,0.2417,0.1947,0.1622,0.1301,0.0549,0.0269,0.0969,0.0515,0.0129,-0.0193,-0.0516,-0.0778,-0.0789,-0.0867,-0.088,-0.0891,-0.0904,-0.0911,-0.0912,-0.1052,-0.1122,-0.1121,-0.0975,-0.0833,-0.0841,-0.0778,-0.0778,-0.0773,-0.0561,-0.028,0.014,0.1026,0.1681,0.1883,0.1865,0.172,0.1539,0.1318,0.1086,0.0948,0.081,0.0675,0.0605,0.0646,0.0459,0.0057,-0.0227,-0.0449,-0.0617,-0.0617,-0.0673,-0.0673,-0.0785,-0.0898,-0.0785,-0.0561,-0.051,1.5223,1.4706,1.4075,1.3329,1.2545,1.2218,1.1569,1.0913,0.0,0.0,0.0,0.9509,0.9207,0.913,0.8513,0.8121,0.7983,0.7652,0.7316,0.6918,0.6641,0.6446,0.6111,0.5948,0.5713,0.5488,0.5488,0.5325,0.5004,0.5091,0.4925,0.4589,0.4246,0.4067,0.4053,0.3872,0.4087,0.4862,0.5056,0.5208,0.5231,0.5204,0.5261,0.54,0.5378,0.5297,0.5156,0.4906,0.4686,0.4571,0.4133,0.385,0.3721,0.321,0.2847,0.2709,0.2407,0.2113,0.1896,0.1166,0.051,-0.0073,-0.0729,-0.1002,-0.0684,-0.0683,-0.0752,-0.0887,-0.1364,-0.1639,-0.1639,-0.1741,-0.1765,-0.1765,-0.18,-0.1822,-0.1822,-0.1823,-0.1746,-0.1748,-0.1515,-0.1297,-0.1308,-0.1329,-0.1338,-0.1317,-0.1234,-0.1166,-0.0724,0.021,0.0948,0.1145,0.114,0.1074,0.0672,0.0403,0.0133,-0.0196,-0.0259,-0.032,-0.0312,-0.0303,-0.0298,-0.0357,-0.0752,-0.1024,-0.1245,-0.1296,-0.1347,-0.129,-0.1347,-0.1459,-0.1459,-0.1234,-0.1137,1.4256,1.3542,1.2881,1.2254,1.145,1.1016,1.0288,0.9563,0.9948,0.9994,0.9626,0.8995,0.8675,0.8679,0.8024,0.7698,0.7616,0.7069,0.6833,0.0,0.6277,0.5868,0.5449,0.5449,0.5254,0.492,0.4925,0.4971,0.4956,0.4879,0.4707,0.4347,0.3997,0.3608,0.3283,0.314,0.3098,0.2982,0.3897,0.4444,0.4573,0.44,0.435,0.4422,0.4267,0.4145,0.4145,0.3986,0.3768,0.3559,0.319,0.2921,0.275,0.2428,0.2278,0.2234,0.147,0.0874,0.0583,-0.0,-0.0656,-0.1603,-0.2042,-0.2108,-0.166,-0.1733,-0.1804,-0.1803,-0.1799,-0.1732,-0.1804,-0.1809,-0.1886,-0.1814,-0.182,-0.1824,-0.1828,-0.1828,-0.1829,-0.183,-0.1769,-0.1698,-0.1763,-0.1706,-0.1714,-0.1687,-0.1617,-0.1607,-0.1455,-0.064,-0.0,-0.0068,0.0067,0.0202,-0.0,-0.0135,-0.0537,-0.1272,-0.1312,-0.1294,-0.1284,-0.1254,-0.1293,-0.1413,-0.1376,-0.141,-0.1404,-0.143,-0.1472,-0.1412,-0.1413,-0.1465,-0.1524,-0.1525,-0.1611,1.3219,1.258,1.2026,1.1368,1.0622,0.9984,0.9278,0.8677,0.8683,0.8782,0.8759,0.8263,0.8016,0.8016,0.7522,0.7191,0.7116,0.6783,0.6479,0.6232,0.5958,0.5648,0.5389,0.5216,0.4981,0.4768,0.4592,0.4526,0.4387,0.4484,0.4306,0.3944,0.3496,0.3123,0.2652,0.2628,0.2514,0.2482,0.3014,0.3433,0.3593,0.3553,0.3511,0.3621,0.3503,0.341,0.3336,0.3218,0.314,0.3107,0.2772,0.2555,0.2452,0.183,0.1373,0.1229,0.0687,0.0152,-0.0304,-0.1062,-0.1746,-0.2202,-0.2506,-0.2658,-0.2508,-0.2391,-0.2357,-0.2409,-0.2424,-0.2428,-0.2482,-0.2436,-0.2456,-0.2456,-0.2485,-0.2506,-0.2506,-0.2508,-0.2506,-0.2508,-0.2368,-0.2372,-0.2356,-0.2215,-0.2145,-0.2204,-0.2126,-0.2115,-0.2237,-0.1767,-0.129,-0.1163,-0.0954,-0.0955,-0.1014,-0.1077,-0.1279,-0.1547,-0.1599,-0.1652,-0.1714,-0.1758,-0.1804,-0.1901,-0.1852,-0.1878,-0.1872,-0.1895,-0.1935,-0.2005,-0.1929,-0.1977,-0.1977,-0.2127,-0.2126,1.2205,1.1554,1.1042,1.0466,0.9668,0.8897,0.831,0.7953,0.7782,0.7727,0.7847,0.759,0.7385,0.7385,0.7045,0.6793,0.6645,0.6401,0.6192,0.5854,0.5678,0.5458,0.5193,0.5013,0.4835,0.4569,0.43,0.4123,0.3857,0.3946,0.368,0.3227,0.2959,0.2601,0.2155,0.2155,0.2136,0.2101,0.2153,0.2358,0.2702,0.2699,0.2756,0.2791,0.2785,0.2786,0.2629,0.2506,0.2503,0.2386,0.2038,0.1874,0.1896,0.1029,0.0395,0.0157,-0.0236,-0.0707,-0.1178,-0.2041,-0.2588,-0.2668,-0.2918,-0.3086,-0.3238,-0.3189,-0.304,-0.2906,-0.2999,-0.3081,-0.3133,-0.3167,-0.3204,-0.3208,-0.3258,-0.3209,-0.3217,-0.3217,-0.3217,-0.3139,-0.2982,-0.2823,-0.2824,-0.2746,-0.2662,-0.266,-0.2668,-0.2646,-0.2604,-0.2668,-0.2524,-0.2219,-0.1972,-0.1825,-0.1993,-0.191,-0.1905,-0.1832,-0.1822,-0.1947,-0.2012,-0.2082,-0.207,-0.2216,-0.2351,-0.2373,-0.2425,-0.2509,-0.255,-0.2566,-0.2575,-0.2572,-0.2656,-0.268,-0.2629,1.1328,1.0626,1.0095,0.9262,0.84,0.783,0.7443,0.7253,0.7169,0.7069,0.6993,0.6959,0.6841,0.6841,0.6571,0.6483,0.6395,0.5965,0.5794,0.5708,0.5272,0.4921,0.4759,0.4755,0.448,0.4041,0.3954,0.3782,0.36,0.3235,0.2691,0.2154,0.2334,0.2244,0.1975,0.2065,0.1972,0.1521,0.1071,0.1223,0.2017,0.2011,0.201,0.2006,0.2003,0.2006,0.1916,0.2001,0.1666,0.1085,0.0749,0.0495,0.0244,-0.0081,-0.0402,-0.0709,-0.1416,-0.2043,-0.2356,-0.2588,-0.2909,-0.3066,-0.3525,-0.3806,-0.381,-0.4274,-0.4159,-0.3624,-0.3352,-0.3511,-0.3738,-0.375,-0.3761,-0.3765,-0.3773,-0.3763,-0.3698,-0.3604,-0.3446,-0.3448,-0.3313,-0.3062,-0.3158,-0.3147,-0.3061,-0.3139,-0.3137,-0.3136,-0.3122,-0.3269,-0.3341,-0.3135,-0.2767,-0.2398,-0.2373,-0.2338,-0.2377,-0.2504,-0.239,-0.2429,-0.2554,-0.2619,-0.2613,-0.2723,-0.2877,-0.3017,-0.2999,-0.308,-0.3215,-0.3065,-0.2997,-0.3,-0.3214,-0.3213,-0.3049,1.0595,0.9498,0.9135,0.8464,0.7518,0.6871,0.6555,0.6458,0.6267,0.6269,0.6264,0.598,0.6026,0.6207,0.602,0.5931,0.5931,0.5565,0.5475,0.5473,0.5104,0.4827,0.4555,0.4461,0.4183,0.3814,0.3721,0.3441,0.3163,0.2698,0.2232,0.1765,0.2023,0.1827,0.1278,0.0993,0.0807,0.0538,0.0359,0.0356,0.0437,0.0691,0.0767,0.0759,0.0757,0.0757,0.0757,0.0673,0.0504,0.0084,-0.0252,-0.0669,-0.1245,-0.141,-0.1654,-0.1966,-0.2454,-0.2781,-0.3024,-0.3353,-0.3679,-0.3842,-0.4203,-0.4392,-0.4392,-0.4677,-0.4824,-0.4592,-0.4329,-0.4247,-0.4329,-0.4331,-0.4331,-0.4331,-0.4329,-0.4326,-0.4331,-0.4245,-0.4247,-0.4166,-0.4085,-0.4082,-0.4068,-0.3991,-0.3932,-0.3919,-0.3843,-0.3851,-0.3841,-0.3917,-0.3992,-0.3984,-0.3768,-0.3471,-0.3261,-0.3121,-0.3068,-0.3083,-0.3014,-0.3029,-0.3096,-0.3155,-0.3222,-0.3355,-0.3451,-0.3558,-0.3431,-0.3542,-0.3635,-0.3512,-0.3459,-0.3524,-0.3649,-0.357,-0.3485,0.9834,0.8528,0.8024,0.7368,0.6591,0.5927,0.5699,0.5701,0.5504,0.5504,0.5797,0.5317,0.5122,0.5396,0.5443,0.5511,0.5514,0.5325,0.5138,0.5043,0.4851,0.4567,0.4286,0.4191,0.3906,0.3621,0.3334,0.3143,0.2764,0.2384,0.1908,0.1523,0.141,0.112,0.0466,-0.0,-0.0362,-0.0542,-0.063,-0.0807,-0.1074,-0.0796,-0.0697,-0.0687,-0.0686,-0.0686,-0.0686,-0.0514,-0.06,-0.1027,-0.1456,-0.1878,-0.2207,-0.246,-0.2707,-0.3031,-0.3278,-0.3444,-0.3695,-0.4034,-0.4369,-0.4534,-0.4809,-0.4997,-0.5083,-0.5273,-0.5546,-0.5633,-0.5381,-0.5196,-0.504,-0.5121,-0.5118,-0.5121,-0.5118,-0.5118,-0.5116,-0.5037,-0.5027,-0.5035,-0.4931,-0.487,-0.4931,-0.4905,-0.4811,-0.4726,-0.4718,-0.4691,-0.4668,-0.4666,-0.4658,-0.4626,-0.4696,-0.4496,-0.4018,-0.3795,-0.3721,-0.3663,-0.3655,-0.365,-0.3682,-0.3736,-0.3768,-0.3842,-0.3966,-0.402,-0.4005,-0.401,-0.4082,-0.409,-0.4025,-0.4025,-0.4132,-0.409,-0.4023,0.884,0.7534,0.6234,0.5734,0.5627,0.5116,0.4816,0.4904,0.4814,0.512,0.5415,0.4818,0.4323,0.4203,0.4942,0.5334,0.5239,0.5056,0.4776,0.4587,0.4391,0.4098,0.3815,0.3815,0.3532,0.3065,0.3067,0.268,0.2106,0.2007,0.1813,0.1431,0.0572,-0.0,-0.019,-0.056,-0.1108,-0.1846,-0.2001,-0.2068,-0.2246,-0.2243,-0.2149,-0.2052,-0.2056,-0.1963,-0.1965,-0.1609,-0.1609,-0.2325,-0.2948,-0.3103,-0.2611,-0.2863,-0.3265,-0.3718,-0.396,-0.4124,-0.4378,-0.4552,-0.4801,-0.5055,-0.54,-0.5626,-0.58,-0.6051,-0.6283,-0.6313,-0.6292,-0.6207,-0.6105,-0.6002,-0.5904,-0.5981,-0.5966,-0.5972,-0.5966,-0.5739,-0.5785,-0.5716,-0.5569,-0.5488,-0.5468,-0.5452,-0.5421,-0.5413,-0.5421,-0.5386,-0.5205,-0.5342,-0.5377,-0.5294,-0.5338,-0.5243,-0.4595,-0.4439,-0.4307,-0.4313,-0.4364,-0.4369,-0.4307,-0.4248,-0.4327,-0.4338,-0.4465,-0.452,-0.457,-0.4628,-0.4625,-0.4631,-0.457,-0.457,-0.4495,-0.4558,-0.4492,0.7437,0.5933,0.5428,0.5092,0.4839,0.4435,0.4332,0.4232,0.4234,0.4334,0.4537,0.4236,0.3932,0.3525,0.4276,0.4644,0.4445,0.4544,0.4447,0.415,0.415,0.3954,0.3662,0.3464,0.3264,0.2867,0.267,0.2473,0.208,0.1584,0.099,0.0592,0.0195,-0.0486,-0.1356,-0.162,-0.1887,-0.2358,-0.2341,-0.2319,-0.2564,-0.256,-0.2636,-0.2782,-0.2423,-0.2244,-0.2424,-0.1974,-0.2063,-0.2871,-0.305,-0.3217,-0.3457,-0.3809,-0.4152,-0.4387,-0.4729,-0.4988,-0.5244,-0.542,-0.5684,-0.5941,-0.6069,-0.6183,-0.628,-0.6577,-0.6874,-0.6874,-0.7139,-0.7253,-0.7114,-0.6724,-0.6288,-0.6288,-0.6285,-0.6362,-0.6285,-0.6198,-0.6198,-0.6198,-0.6112,-0.6088,-0.6014,-0.5999,-0.5963,-0.5889,-0.5874,-0.5853,-0.5818,-0.5882,-0.5834,-0.5719,-0.5759,-0.565,-0.5249,-0.514,-0.5087,-0.5081,-0.5067,-0.5064,-0.4994,-0.4953,-0.5035,-0.493,-0.4956,-0.4913,-0.4971,-0.4903,-0.497,-0.4897,-0.4903,-0.4973,-0.4767,-0.4891,-0.4824,0.6218,0.4908,0.4594,0.4361,0.4005,0.3696,0.3491,0.3491,0.3491,0.3594,0.3696,0.3696,0.3491,0.3387,0.3799,0.38,0.369,0.3959,0.4034,0.3835,0.3857,0.3666,0.3362,0.3057,0.2852,0.2542,0.2226,0.1919,0.1516,0.0808,0.0303,-0.0202,-0.0498,-0.119,-0.2175,-0.2334,-0.2504,-0.2695,-0.268,-0.2744,-0.2992,-0.2986,-0.3155,-0.3392,-0.3111,-0.2909,-0.2875,-0.2601,-0.2688,-0.3315,-0.3494,-0.3762,-0.4206,-0.4656,-0.4926,-0.5015,-0.5369,-0.5725,-0.5899,-0.608,-0.6343,-0.6605,-0.6605,-0.6694,-0.6874,-0.7143,-0.7319,-0.7496,-0.7676,-0.7944,-0.7768,-0.7316,-0.6874,-0.6874,-0.6874,-0.6874,-0.6874,-0.6871,-0.6868,-0.6773,-0.677,-0.6737,-0.6679,-0.666,-0.6698,-0.6681,-0.6675,-0.6665,-0.6615,-0.6599,-0.6552,-0.6417,-0.6468,-0.6401,-0.6156,-0.61,-0.5799,-0.5711,-0.5724,-0.5715,-0.5641,-0.5676,-0.5607,-0.556,-0.5477,-0.5424,-0.5287,-0.5209,-0.5179,-0.5106,-0.5233,-0.5372,-0.5296,-0.5223,-0.5243,0.5214,0.4466,0.3723,0.3507,0.3284,0.2861,0.2552,0.2653,0.2548,0.2861,0.3174,0.3081,0.3072,0.3296,0.3284,0.319,0.3165,0.3496,0.3552,0.3559,0.3401,0.3217,0.2906,0.2697,0.2386,0.2073,0.1735,0.1012,0.0203,-0.0101,-0.0405,-0.091,-0.1716,-0.2115,-0.2221,-0.2673,-0.2943,-0.3132,-0.3384,-0.3636,-0.3816,-0.391,-0.3996,-0.4269,-0.4265,-0.401,-0.3697,-0.3595,-0.36,-0.3957,-0.4678,-0.5025,-0.5039,-0.5313,-0.5563,-0.5754,-0.6011,-0.6183,-0.6364,-0.6462,-0.6831,-0.7078,-0.7153,-0.7337,-0.7676,-0.7764,-0.7852,-0.7852,-0.794,-0.7948,-0.7944,-0.7856,-0.7768,-0.7856,-0.7764,-0.7768,-0.7764,-0.7856,-0.7768,-0.7503,-0.7418,-0.7507,-0.7503,-0.739,-0.7453,-0.7621,-0.7705,-0.7574,-0.7457,-0.7432,-0.7447,-0.7329,-0.7191,-0.6973,-0.7038,-0.7023,-0.6613,-0.6213,-0.6391,-0.6395,-0.6307,-0.6247,-0.618,-0.614,-0.6029,-0.5965,-0.5876,-0.5791,-0.578,-0.5762,-0.5811,-0.5833,-0.5738,-0.5755,-0.5783,0.4815,0.3901,0.3576,0.3228,0.2772,0.2558,0.2451,0.2451,0.2451,0.2558,0.2558,0.2664,0.2664,0.2772,0.3092,0.3092,0.2661,0.2525,0.2619,0.2833,0.2742,0.2747,0.2643,0.243,0.1903,0.1268,0.0737,0.0313,-0.0206,-0.1132,-0.1741,-0.1925,-0.2526,-0.2827,-0.2927,-0.3209,-0.3498,-0.3696,-0.3978,-0.4239,-0.4481,-0.4665,-0.4827,-0.5052,-0.5043,-0.5101,-0.5044,-0.4103,-0.4103,-0.4851,-0.5794,-0.6258,-0.6154,-0.625,-0.6441,-0.6531,-0.6897,-0.7168,-0.726,-0.753,-0.7759,-0.7782,-0.7753,-0.7782,-0.7871,-0.804,-0.8128,-0.8124,-0.8296,-0.8388,-0.8392,-0.8388,-0.8212,-0.7944,-0.7944,-0.7944,-0.7944,-0.7944,-0.7856,-0.7768,-0.7768,-0.7768,-0.7768,-0.7768,-0.7852,-0.794,-0.7944,-0.7903,-0.7872,-0.7842,-0.7711,-0.7565,-0.7532,-0.7556,-0.7435,-0.7404,-0.7224,-0.6863,-0.6865,-0.6868,-0.679,-0.6742,-0.6746,-0.6663,-0.655,-0.6516,-0.642,-0.6387,-0.6367,-0.6279,-0.6294,-0.6276,-0.6271,-0.629,-0.6352,0.4342,0.353,0.32,0.2743,0.2391,0.2281,0.2281,0.2282,0.2281,0.2173,0.2173,0.2282,0.239,0.2499,0.2934,0.2826,0.2391,0.1955,0.1955,0.2277,0.2372,0.2476,0.226,0.1721,0.1072,0.0427,-0.032,-0.0742,-0.0944,-0.1979,-0.2478,-0.2554,-0.2939,-0.323,-0.3429,-0.383,-0.4131,-0.4334,-0.4632,-0.491,-0.5064,-0.5246,-0.551,-0.5744,-0.5833,-0.6024,-0.6211,-0.5432,-0.53,-0.5821,-0.6564,-0.6753,-0.6652,-0.6926,-0.712,-0.7214,-0.7587,-0.7861,-0.7962,-0.8131,-0.8396,-0.8302,-0.828,-0.8337,-0.8332,-0.8485,-0.8575,-0.8575,-0.8613,-0.8662,-0.8658,-0.8597,-0.8484,-0.8208,-0.8212,-0.812,-0.812,-0.8124,-0.812,-0.8028,-0.8025,-0.8028,-0.8028,-0.8028,-0.8116,-0.812,-0.812,-0.812,-0.812,-0.8204,-0.8036,-0.7982,-0.8053,-0.7955,-0.7819,-0.7793,-0.7776,-0.7549,-0.7407,-0.7231,-0.7138,-0.713,-0.7087,-0.7242,-0.7138,-0.7187,-0.7085,-0.6995,-0.6957,-0.6843,-0.6768,-0.6861,-0.6957,-0.6887,-0.6944,0.3813,0.3475,0.2579,0.224,0.2125,0.1901,0.19,0.1792,0.1791,0.19,0.1902,0.2121,0.2237,0.2353,0.2567,0.2455,0.2129,0.1899,0.1673,0.1669,0.1875,0.1971,0.1752,0.0657,-0.0,-0.0538,-0.1395,-0.1926,-0.2239,-0.2633,-0.2911,-0.3011,-0.3373,-0.3439,-0.3945,-0.4438,-0.4834,-0.4935,-0.5336,-0.5632,-0.5727,-0.5929,-0.6226,-0.6415,-0.6614,-0.691,-0.7096,-0.7192,-0.7101,-0.6807,-0.6994,-0.7098,-0.7162,-0.7426,-0.7736,-0.7746,-0.8186,-0.8396,-0.8475,-0.8517,-0.8581,-0.873,-0.8816,-0.8808,-0.9051,-0.9116,-0.9116,-0.9116,-0.9009,-0.8927,-0.8898,-0.8816,-0.873,-0.8681,-0.8584,-0.8568,-0.8568,-0.8568,-0.8476,-0.8296,-0.8204,-0.8204,-0.8204,-0.8204,-0.8384,-0.8476,-0.8568,-0.848,-0.848,-0.848,-0.8564,-0.854,-0.8507,-0.8537,-0.8308,-0.8275,-0.8259,-0.8164,-0.7986,-0.7758,-0.761,-0.7585,-0.7561,-0.7643,-0.7735,-0.7716,-0.7712,-0.7568,-0.7503,-0.7474,-0.7488,-0.7586,-0.7571,-0.7468,-0.7455,0.359,0.2917,0.2356,0.2131,0.1907,0.1795,0.1795,0.1795,0.1796,0.18,0.1796,0.1907,0.1911,0.1908,0.2021,0.2019,0.191,0.1685,0.1234,0.056,0.0559,0.0557,0.0557,-0.0111,-0.1,-0.188,-0.2427,-0.2859,-0.315,-0.3234,-0.3528,-0.3906,-0.4257,-0.4631,-0.4932,-0.5177,-0.5441,-0.5739,-0.6037,-0.6337,-0.6439,-0.6739,-0.6939,-0.6936,-0.7039,-0.7338,-0.7736,-0.8233,-0.8315,-0.8048,-0.7828,-0.7919,-0.8188,-0.8384,-0.847,-0.8474,-0.8784,-0.8991,-0.8987,-0.9178,-0.922,-0.9204,-0.9374,-0.951,-0.938,-0.9562,-0.9655,-0.9647,-0.9595,-0.9578,-0.9569,-0.9522,-0.9436,-0.9033,-0.8848,-0.8681,-0.8572,-0.8572,-0.8568,-0.848,-0.8476,-0.8476,-0.8476,-0.8476,-0.8476,-0.8568,-0.8656,-0.8656,-0.8656,-0.8656,-0.874,-0.8823,-0.8803,-0.8882,-0.8901,-0.8862,-0.8848,-0.8782,-0.8626,-0.8349,-0.8177,-0.803,-0.7987,-0.7999,-0.8045,-0.8045,-0.7996,-0.7952,-0.7948,-0.7943,-0.7992,-0.797,-0.8001,-0.7888,-0.788,0.3287,0.2611,0.2285,0.1948,0.1833,0.1833,0.1718,0.1489,0.1374,0.1375,0.1489,0.1718,0.1833,0.1833,0.1834,0.1604,0.1374,0.0573,0.0115,-0.0,-0.0802,-0.1023,-0.1126,-0.1346,-0.2019,-0.2917,-0.3141,-0.3457,-0.3755,-0.3949,-0.4234,-0.462,-0.5071,-0.5448,-0.5754,-0.5965,-0.6209,-0.6404,-0.667,-0.6839,-0.6939,-0.7338,-0.7537,-0.7637,-0.7736,-0.8031,-0.8333,-0.8627,-0.8733,-0.8638,-0.8432,-0.8528,-0.8726,-0.8931,-0.8931,-0.8931,-0.9327,-0.9521,-0.9628,-0.9821,-0.9874,-0.9879,-0.9951,-1.0,-0.9923,-1.0079,-1.0079,-1.0092,-1.0009,-0.996,-0.9938,-0.9886,-0.9789,-0.9496,-0.9298,-0.8995,-0.8685,-0.8572,-0.8572,-0.8572,-0.8572,-0.8568,-0.8568,-0.8656,-0.874,-0.874,-0.8915,-0.8915,-0.8915,-0.8915,-0.8915,-0.8999,-0.9087,-0.9161,-0.924,-0.9143,-0.9176,-0.9204,-0.9135,-0.8859,-0.8564,-0.836,-0.8313,-0.8264,-0.8336,-0.8331,-0.8331,-0.8327,-0.8362,-0.8397,-0.8376,-0.8304,-0.8318,-0.8318,-0.8318,0.2997,0.2657,0.2109,0.1885,0.1883,0.1767,0.1409,0.0824,0.0822,0.0822,0.094,0.1412,0.1641,0.1768,0.1757,0.1411,0.047,-0.0938,-0.1057,-0.1173,-0.1757,-0.2552,-0.2613,-0.2486,-0.2933,-0.3604,-0.3706,-0.3921,-0.4237,-0.463,-0.5045,-0.5452,-0.5699,-0.6078,-0.6476,-0.6698,-0.6847,-0.7226,-0.7336,-0.7488,-0.7575,-0.7856,-0.8038,-0.8134,-0.8531,-0.873,-0.8829,-0.8924,-0.8928,-0.8924,-0.8928,-0.8829,-0.8928,-0.9133,-0.9236,-0.943,-0.9723,-1.0019,-1.0019,-1.0216,-1.031,-1.0288,-1.0391,-1.0413,-1.0462,-1.044,-1.0542,-1.0533,-1.0338,-1.0354,-1.0314,-1.0085,-0.9992,-0.9948,-0.9939,-0.9474,-0.8978,-0.8693,-0.8673,-0.8652,-0.8656,-0.8652,-0.874,-0.8828,-0.8911,-0.9003,-0.9087,-0.9087,-0.9174,-0.9087,-0.9174,-0.9262,-0.9345,-0.9345,-0.9345,-0.9419,-0.9483,-0.9529,-0.9441,-0.9243,-0.8927,-0.8643,-0.8526,-0.8502,-0.8484,-0.8556,-0.8556,-0.8627,-0.8627,-0.8623,-0.8542,-0.8623,-0.8627,-0.8627,-0.8623,0.3045,0.2696,0.2118,0.1885,0.1768,0.1296,0.0825,-0.0,-0.0,-0.0,-0.0,-0.0,0.0944,0.1652,0.1418,0.0707,-0.1063,-0.1772,-0.1885,-0.224,-0.2827,-0.3291,-0.3487,-0.3459,-0.3659,-0.4104,-0.4509,-0.4821,-0.5144,-0.5468,-0.601,-0.6651,-0.6676,-0.7047,-0.7457,-0.7461,-0.7706,-0.8095,-0.808,-0.8214,-0.8491,-0.861,-0.866,-0.8656,-0.8947,-0.9137,-0.9133,-0.9327,-0.9525,-0.9624,-0.9426,-0.9229,-0.9426,-0.9624,-0.9821,-0.9826,-1.0117,-1.0314,-1.031,-1.0413,-1.0413,-1.0511,-1.0605,-1.0703,-1.0703,-1.09,-1.1002,-1.0993,-1.0956,-1.0914,-1.0891,-1.0747,-1.0564,-1.0428,-1.0233,-1.0014,-0.971,-0.9483,-0.9263,-0.9155,-0.9117,-0.9178,-0.9187,-0.9196,-0.9192,-0.9266,-0.9262,-0.9349,-0.9349,-0.9349,-0.9432,-0.9519,-0.9519,-0.9607,-0.9689,-0.9694,-0.9689,-0.9772,-0.9804,-0.9649,-0.9325,-0.9048,-0.8941,-0.8773,-0.8632,-0.8708,-0.8727,-0.8708,-0.8708,-0.8703,-0.8703,-0.878,-0.8856,-0.8856,-0.8932,0.2857,0.2621,0.2162,0.1928,0.1807,0.1205,0.0603,-0.0,-0.0,-0.0,-0.0,-0.0,-0.0,-0.0,-0.0,-0.0844,-0.1807,-0.2168,-0.265,-0.3132,-0.3612,-0.4093,-0.4679,-0.4737,-0.4801,-0.4991,-0.5256,-0.5669,-0.6106,-0.6403,-0.6816,-0.7379,-0.7422,-0.7831,-0.8243,-0.8239,-0.8491,-0.8874,-0.8863,-0.8987,-0.9175,-0.932,-0.9365,-0.9439,-0.9497,-0.9554,-0.9762,-0.9764,-0.9929,-1.0023,-0.9929,-0.983,-0.9924,-1.0117,-1.0216,-1.0216,-1.0413,-1.0609,-1.0609,-1.0703,-1.0801,-1.0801,-1.09,-1.0998,-1.0998,-1.1096,-1.1194,-1.1194,-1.1189,-1.1189,-1.1189,-1.1123,-1.0946,-1.0826,-1.0742,-1.055,-1.0345,-0.9987,-0.9744,-0.9646,-0.9556,-0.9486,-0.9531,-0.9575,-0.9499,-0.9499,-0.9634,-0.9717,-0.9694,-0.9694,-0.9689,-0.9777,-0.9777,-0.9864,-0.9951,-0.9951,-0.9951,-0.9941,-0.9976,-0.9918,-0.974,-0.9562,-0.947,-0.9207,-0.8942,-0.8842,-0.8846,-0.8818,-0.8966,-0.9027,-0.9027,-0.9018,-0.9027,-0.9133,-0.9194,0.2661,0.2422,0.2088,0.1977,0.1977,0.1358,0.074,-0.0,-0.0,-0.0,-0.0,-0.0,-0.0615,-0.1603,-0.1849,-0.1975,-0.222,-0.2587,-0.319,-0.3679,-0.4169,-0.4782,-0.5504,-0.5937,-0.6113,-0.6031,-0.6158,-0.6565,-0.6966,-0.7241,-0.7524,-0.7835,-0.8042,-0.8462,-0.8882,-0.8927,-0.9176,-0.9581,-0.9553,-0.947,-0.956,-0.9739,-0.9912,-0.9983,-1.0108,-1.0039,-1.0217,-1.023,-1.0328,-1.0496,-1.0595,-1.06,-1.0587,-1.052,-1.0413,-1.0511,-1.0708,-1.0806,-1.0904,-1.1002,-1.1194,-1.1194,-1.1194,-1.1194,-1.1194,-1.1194,-1.1292,-1.1296,-1.1394,-1.1389,-1.1292,-1.137,-1.1375,-1.1277,-1.1282,-1.121,-1.1058,-1.0584,-1.0309,-0.9983,-0.9976,-0.9976,-0.9953,-0.9917,-0.991,-0.9823,-0.9962,-1.0119,-1.0114,-1.0095,-1.0124,-1.0173,-1.0178,-1.0139,-1.0217,-1.0294,-1.0207,-1.0202,-1.0274,-1.0191,-1.0159,-1.0075,-0.9902,-0.946,-0.9202,-0.9203,-0.9218,-0.9291,-0.9339,-0.9412,-0.9411,-0.9463,-0.9413,-0.9443,-0.9443,0.2826,0.2459,0.2097,0.1977,0.1977,0.1853,0.1112,-0.0,-0.0,-0.0,-0.0,-0.0,-0.0865,-0.173,-0.1977,-0.2222,-0.2591,-0.3085,-0.3577,-0.419,-0.493,-0.5671,-0.6151,-0.6867,-0.7324,-0.752,-0.7493,-0.7577,-0.7718,-0.7992,-0.8273,-0.8628,-0.8716,-0.9047,-0.9478,-0.9673,-0.9749,-1.005,-1.0035,-0.9961,-1.015,-1.0176,-1.0213,-1.0314,-1.0464,-1.0534,-1.063,-1.0707,-1.0995,-1.12,-1.12,-1.1289,-1.1314,-1.0988,-1.0766,-1.0856,-1.1063,-1.118,-1.1269,-1.1231,-1.1208,-1.1194,-1.1311,-1.1301,-1.1296,-1.1389,-1.1492,-1.159,-1.1688,-1.1785,-1.1883,-1.1785,-1.1785,-1.1883,-1.178,-1.1765,-1.1711,-1.154,-1.1201,-1.0716,-1.0575,-1.0485,-1.0499,-1.0499,-1.0442,-1.0462,-1.0505,-1.059,-1.069,-1.0631,-1.0582,-1.0686,-1.0685,-1.0629,-1.0574,-1.0564,-1.0559,-1.0554,-1.0549,-1.0549,-1.0565,-1.0585,-1.0344,-1.0063,-0.9801,-0.9722,-0.9737,-0.9736,-0.9805,-0.9874,-0.9837,-0.9882,-0.9907,-0.9853,-1.0005,0.2591,0.2222,0.2099,0.1977,0.1977,0.1977,0.1235,-0.0,-0.0,-0.0,-0.0,-0.0741,-0.1359,-0.1853,-0.1977,-0.2346,-0.2838,-0.3453,-0.4069,-0.4805,-0.5546,-0.6405,-0.6771,-0.7627,-0.8113,-0.8569,-0.8705,-0.8691,-0.8684,-0.8842,-0.9077,-0.9412,-0.9485,-0.9672,-0.9938,-1.0033,-1.026,-1.0453,-1.0393,-1.045,-1.0562,-1.0568,-1.0646,-1.0732,-1.0869,-1.1045,-1.1125,-1.1128,-1.13,-1.1498,-1.161,-1.1714,-1.1658,-1.1564,-1.1313,-1.1313,-1.1405,-1.1611,-1.1716,-1.1716,-1.1793,-1.1776,-1.1756,-1.1693,-1.1624,-1.1683,-1.1785,-1.1883,-1.1883,-1.198,-1.198,-1.198,-1.198,-1.198,-1.198,-1.2078,-1.198,-1.198,-1.1732,-1.1367,-1.1372,-1.1313,-1.1219,-1.1115,-1.1086,-1.1032,-1.1066,-1.1066,-1.1179,-1.1171,-1.1071,-1.1055,-1.1122,-1.0963,-1.0901,-1.0865,-1.0835,-1.0824,-1.0819,-1.0824,-1.0911,-1.0901,-1.094,-1.0773,-1.0554,-1.0233,-1.0116,-1.0095,-1.0217,-1.0264,-1.031,-1.0336,-1.0345,-1.039,-1.0447,0.2346,0.1977,0.1853,0.1853,0.1977,0.173,0.0988,-0.0,-0.0,-0.0,-0.0494,-0.1482,-0.1977,-0.1977,-0.2223,-0.2469,-0.3207,-0.3821,-0.4561,-0.5421,-0.5914,-0.6773,-0.7627,-0.8116,-0.8604,-0.9329,-0.9674,-0.9861,-0.9571,-0.9707,-0.9921,-1.0148,-1.0217,-1.0277,-1.0408,-1.0524,-1.0572,-1.0638,-1.0745,-1.0741,-1.081,-1.1021,-1.1131,-1.1236,-1.1315,-1.1558,-1.1647,-1.1654,-1.1791,-1.1882,-1.1978,-1.1959,-1.2049,-1.2045,-1.2049,-1.204,-1.1973,-1.2034,-1.2221,-1.2309,-1.2317,-1.2299,-1.2289,-1.2164,-1.2102,-1.2031,-1.2073,-1.217,-1.2273,-1.2273,-1.237,-1.2273,-1.237,-1.237,-1.237,-1.237,-1.2467,-1.2467,-1.2462,-1.2308,-1.2288,-1.2109,-1.1849,-1.1627,-1.1497,-1.1487,-1.1522,-1.1601,-1.1696,-1.1563,-1.1549,-1.1538,-1.1393,-1.1269,-1.1164,-1.1107,-1.1055,-1.1008,-1.1003,-1.1089,-1.1094,-1.1176,-1.1123,-1.1166,-1.0937,-1.0616,-1.0491,-1.0512,-1.0674,-1.0716,-1.0773,-1.0762,-1.0773,-1.0757,-1.0778,0.2346,0.1977,0.1359,0.1482,0.173,-0.0,-0.0,-0.0,-0.0,-0.0,-0.1606,-0.1853,-0.1977,-0.21,-0.2346,-0.296,-0.3697,-0.419,-0.493,-0.5792,-0.6528,-0.7263,-0.7994,-0.8485,-0.9095,-0.97,-1.0065,-1.0098,-1.0126,-1.0306,-1.0552,-1.0655,-1.0732,-1.0819,-1.098,-1.0964,-1.1082,-1.0964,-1.0936,-1.0974,-1.1063,-1.1147,-1.1367,-1.1559,-1.1755,-1.1941,-1.2041,-1.2093,-1.2196,-1.2318,-1.2337,-1.2464,-1.2695,-1.2803,-1.2911,-1.2904,-1.2705,-1.2339,-1.259,-1.2729,-1.2698,-1.2735,-1.25,-1.2273,-1.2409,-1.2501,-1.2602,-1.2662,-1.2861,-1.2958,-1.2958,-1.3152,-1.3249,-1.3244,-1.3147,-1.3152,-1.3249,-1.3147,-1.3141,-1.3152,-1.3169,-1.2673,-1.2292,-1.2109,-1.1915,-1.191,-1.1991,-1.2154,-1.2203,-1.2162,-1.2073,-1.2072,-1.2031,-1.1908,-1.1711,-1.1625,-1.1553,-1.1369,-1.1332,-1.1413,-1.1424,-1.1522,-1.1348,-1.1305,-1.1182,-1.1086,-1.108,-1.107,-1.1161,-1.1139,-1.107,-1.1118,-1.1203,-1.1171,-1.116,0.2099,0.1977,0.173,0.1235,0.0865,0.0247,-0.0,-0.0,-0.0865,-0.1482,-0.1853,-0.1606,-0.1729,-0.2222,-0.259,-0.3207,-0.3944,-0.4684,-0.5421,-0.628,-0.7018,-0.775,-0.8485,-0.8973,-0.9457,-1.0065,-1.0425,-1.077,-1.0816,-1.0905,-1.1078,-1.1172,-1.1137,-1.1193,-1.1273,-1.1228,-1.1179,-1.1126,-1.133,-1.136,-1.1342,-1.1616,-1.1793,-1.18,-1.2123,-1.2232,-1.2232,-1.2332,-1.255,-1.2659,-1.2659,-1.2772,-1.2994,-1.3098,-1.3202,-1.3403,-1.326,-1.3153,-1.3249,-1.3229,-1.3262,-1.3383,-1.3335,-1.3453,-1.3436,-1.3303,-1.3248,-1.3456,-1.3322,-1.3363,-1.3357,-1.3443,-1.3448,-1.3539,-1.3732,-1.3727,-1.3823,-1.3919,-1.3919,-1.3937,-1.3949,-1.3545,-1.3147,-1.3033,-1.292,-1.2823,-1.2813,-1.2898,-1.2989,-1.2945,-1.2879,-1.2734,-1.2686,-1.2609,-1.245,-1.2373,-1.2288,-1.2159,-1.196,-1.2037,-1.1921,-1.1888,-1.1734,-1.1651,-1.1591,-1.151,-1.1527,-1.1424,-1.1225,-1.1241,-1.1262,-1.1354,-1.1354,-1.1343,-1.1273,0.1977,0.1977,0.1977,0.1235,-0.0,-0.0,-0.0,-0.0,-0.1359,-0.1977,-0.1977,-0.1605,-0.1975,-0.259,-0.3082,-0.3575,-0.4192,-0.5176,-0.5912,-0.6648,-0.7383,-0.8241,-0.8729,-0.9217,-0.9822,-1.0425,-1.0789,-1.102,-1.1269,-1.1378,-1.1439,-1.1569,-1.1565,-1.1508,-1.1411,-1.139,-1.1378,-1.1529,-1.1697,-1.1832,-1.1846,-1.2158,-1.2301,-1.2312,-1.2449,-1.2521,-1.2512,-1.2559,-1.2659,-1.2772,-1.2989,-1.3103,-1.333,-1.3428,-1.364,-1.3851,-1.3895,-1.3901,-1.4003,-1.3992,-1.3965,-1.4071,-1.4256,-1.4244,-1.4299,-1.4145,-1.4084,-1.4096,-1.3986,-1.3905,-1.3893,-1.3984,-1.4027,-1.4118,-1.4208,-1.4202,-1.4202,-1.4394,-1.4496,-1.4502,-1.4514,-1.4514,-1.4208,-1.401,-1.3913,-1.3727,-1.3732,-1.363,-1.363,-1.3624,-1.3607,-1.3448,-1.3469,-1.3325,-1.318,-1.3082,-1.3037,-1.2966,-1.2759,-1.2517,-1.2411,-1.2337,-1.217,-1.2068,-1.1973,-1.1905,-1.183,-1.1548,-1.1267,-1.1354,-1.1354,-1.144,-1.144,-1.144,-1.1451,0.1977,0.1977,0.1977,0.1235,-0.0,-0.0,-0.0,-0.0,-0.1483,-0.1977,-0.21,-0.2345,-0.259,-0.3083,-0.3575,-0.4192,-0.481,-0.5548,-0.6283,-0.6896,-0.763,-0.8363,-0.8973,-0.9579,-1.0061,-1.0668,-1.1031,-1.1398,-1.1647,-1.1647,-1.176,-1.1756,-1.1707,-1.1732,-1.1699,-1.1753,-1.1819,-1.1951,-1.2186,-1.2316,-1.2373,-1.2584,-1.2671,-1.2843,-1.2838,-1.2743,-1.2734,-1.2798,-1.2925,-1.3034,-1.3222,-1.3423,-1.3753,-1.3753,-1.3964,-1.4283,-1.439,-1.4606,-1.4713,-1.4606,-1.4708,-1.4736,-1.4841,-1.4926,-1.5059,-1.4599,-1.447,-1.4725,-1.4733,-1.4765,-1.4844,-1.4971,-1.4883,-1.4846,-1.4936,-1.4968,-1.5064,-1.5077,-1.5172,-1.5077,-1.5077,-1.5172,-1.5261,-1.5057,-1.4586,-1.44,-1.4214,-1.4208,-1.41,-1.41,-1.4232,-1.4214,-1.4196,-1.4118,-1.3862,-1.3814,-1.3752,-1.3603,-1.3385,-1.315,-1.2939,-1.275,-1.2785,-1.2555,-1.2463,-1.2249,-1.2065,-1.1936,-1.1756,-1.1478,-1.144,-1.1613,-1.1732,-1.1852,-1.1852,0.1977,0.1977,0.1112,0.0494,-0.0,-0.0,-0.0494,-0.1235,-0.173,-0.1977,-0.21,-0.2345,-0.2837,-0.3331,-0.3699,-0.4561,-0.5425,-0.5914,-0.6775,-0.7508,-0.8241,-0.8729,-0.9339,-0.9839,-1.0308,-1.08,-1.116,-1.1518,-1.1772,-1.1792,-1.1776,-1.1776,-1.1897,-1.1772,-1.1772,-1.201,-1.2196,-1.2393,-1.2644,-1.2813,-1.2803,-1.3022,-1.3086,-1.3055,-1.3022,-1.3069,-1.3144,-1.3073,-1.3327,-1.3482,-1.3614,-1.3893,-1.4191,-1.4191,-1.4493,-1.4809,-1.4922,-1.5143,-1.5351,-1.5137,-1.5035,-1.5452,-1.5482,-1.5523,-1.581,-1.5712,-1.5589,-1.5623,-1.5588,-1.5619,-1.5581,-1.5607,-1.5531,-1.5667,-1.5691,-1.5701,-1.5757,-1.5777,-1.5838,-1.5737,-1.5933,-1.6035,-1.6021,-1.6001,-1.5439,-1.4975,-1.4879,-1.4783,-1.4771,-1.4771,-1.4898,-1.4917,-1.4898,-1.4867,-1.4696,-1.4539,-1.4477,-1.4253,-1.4013,-1.3791,-1.3644,-1.3538,-1.3411,-1.3195,-1.2907,-1.282,-1.2661,-1.2426,-1.2164,-1.1958,-1.1858,-1.1969,-1.21,-1.2192,-1.2353,0.1362,0.1243,-0.0124,-0.0372,-0.0124,-0.0371,-0.1112,-0.1853,-0.1977,-0.2099,-0.2222,-0.2467,-0.296,-0.3577,-0.4069,-0.4807,-0.5804,-0.6434,-0.7187,-0.7948,-0.8714,-0.9208,-0.9708,-1.0214,-1.0863,-1.1057,-1.1421,-1.1812,-1.187,-1.1857,-1.1821,-1.1909,-1.1893,-1.2014,-1.201,-1.2247,-1.2599,-1.284,-1.3191,-1.3274,-1.3244,-1.3353,-1.356,-1.3389,-1.3447,-1.3504,-1.3675,-1.3758,-1.3867,-1.4119,-1.4235,-1.4424,-1.4694,-1.4866,-1.5035,-1.5244,-1.5351,-1.5678,-1.5885,-1.5885,-1.5672,-1.6092,-1.6092,-1.6293,-1.6561,-1.6612,-1.6509,-1.6613,-1.6568,-1.6508,-1.6511,-1.6587,-1.6511,-1.6555,-1.6429,-1.6409,-1.6443,-1.6429,-1.6448,-1.64,-1.6501,-1.6501,-1.6494,-1.6386,-1.6197,-1.5825,-1.5737,-1.5635,-1.5527,-1.554,-1.5662,-1.5675,-1.5668,-1.5635,-1.5589,-1.536,-1.5145,-1.5038,-1.4829,-1.4615,-1.4434,-1.4333,-1.4025,-1.3732,-1.3531,-1.3409,-1.32,-1.304,-1.2732,-1.2346,-1.2388,-1.2464,-1.2663,-1.2868,-1.2915,0.0125,-0.0126,-0.1514,-0.1252,-0.0372,-0.136,-0.1855,-0.1981,-0.2101,-0.2222,-0.2467,-0.2837,-0.333,-0.3947,-0.457,-0.5322,-0.6202,-0.713,-0.7796,-0.8315,-0.9249,-0.9833,-1.0345,-1.0832,-1.1298,-1.1767,-1.1972,-1.1997,-1.2028,-1.2024,-1.2057,-1.221,-1.2323,-1.2388,-1.2247,-1.284,-1.32,-1.3204,-1.3569,-1.355,-1.3651,-1.3636,-1.3846,-1.3912,-1.3918,-1.3956,-1.4255,-1.4188,-1.4421,-1.4724,-1.4994,-1.5215,-1.5395,-1.5503,-1.563,-1.5934,-1.6117,-1.6424,-1.663,-1.663,-1.673,-1.673,-1.6736,-1.6842,-1.6836,-1.6996,-1.7265,-1.7442,-1.7441,-1.7606,-1.7705,-1.7708,-1.7468,-1.7421,-1.719,-1.7209,-1.7248,-1.7201,-1.7232,-1.7167,-1.6907,-1.6588,-1.6683,-1.6683,-1.6676,-1.6581,-1.6588,-1.6487,-1.6285,-1.6204,-1.6231,-1.6238,-1.6137,-1.6197,-1.6075,-1.5906,-1.5717,-1.5635,-1.552,-1.5259,-1.5057,-1.4867,-1.4571,-1.4303,-1.408,-1.387,-1.375,-1.3615,-1.3363,-1.3126,-1.3009,-1.3069,-1.3344,-1.3477,-1.3435,-0.0748,-0.0758,-0.1263,-0.152,-0.1396,-0.1384,-0.1629,-0.2001,-0.2233,-0.2344,-0.259,-0.3207,-0.3822,-0.4449,-0.5229,-0.5998,-0.677,-0.761,-0.8301,-0.8937,-0.9761,-1.0259,-1.0788,-1.1326,-1.1691,-1.1802,-1.2051,-1.2312,-1.2215,-1.2328,-1.2432,-1.2602,-1.2957,-1.2968,-1.3004,-1.3204,-1.3329,-1.3444,-1.3688,-1.3688,-1.3693,-1.3933,-1.4052,-1.4167,-1.4316,-1.4513,-1.4729,-1.4735,-1.4876,-1.5429,-1.5705,-1.6028,-1.6174,-1.618,-1.6368,-1.6636,-1.6902,-1.7067,-1.7483,-1.7687,-1.7575,-1.7477,-1.7371,-1.7582,-1.7793,-1.7898,-1.8003,-1.8101,-1.8247,-1.8281,-1.8205,-1.8193,-1.8044,-1.8067,-1.8074,-1.8189,-1.8147,-1.8119,-1.8073,-1.7998,-1.7829,-1.7616,-1.7478,-1.7254,-1.7246,-1.7145,-1.7052,-1.6871,-1.6574,-1.648,-1.6501,-1.6501,-1.6494,-1.656,-1.6546,-1.6379,-1.6298,-1.6298,-1.6103,-1.5798,-1.5615,-1.5343,-1.5013,-1.4678,-1.4514,-1.4325,-1.4147,-1.3938,-1.396,-1.3884,-1.3674,-1.3525,-1.3671,-1.3738,-1.3791,-0.137,-0.1389,-0.1389,-0.1655,-0.2056,-0.1525,-0.1637,-0.2126,-0.2477,-0.2713,-0.3082,-0.3698,-0.433,-0.4976,-0.5763,-0.6706,-0.7491,-0.8239,-0.9065,-0.9713,-1.0283,-1.083,-1.1353,-1.1709,-1.202,-1.2102,-1.2347,-1.2475,-1.2652,-1.2771,-1.2965,-1.3255,-1.3554,-1.3642,-1.3494,-1.3518,-1.3449,-1.3684,-1.3808,-1.3933,-1.4052,-1.4172,-1.4411,-1.4525,-1.4753,-1.4992,-1.5187,-1.5328,-1.5322,-1.598,-1.6562,-1.6857,-1.6973,-1.7148,-1.7205,-1.7553,-1.7815,-1.7941,-1.8149,-1.8534,-1.8422,-1.8318,-1.8227,-1.822,-1.8429,-1.8534,-1.8639,-1.8736,-1.8819,-1.8923,-1.8991,-1.8869,-1.8935,-1.8949,-1.891,-1.9017,-1.8988,-1.8867,-1.8758,-1.8667,-1.8686,-1.8525,-1.8341,-1.8039,-1.7908,-1.7714,-1.7613,-1.7347,-1.7073,-1.6965,-1.6965,-1.6972,-1.7059,-1.7225,-1.7124,-1.6943,-1.6857,-1.6864,-1.6574,-1.6292,-1.6015,-1.5635,-1.535,-1.5057,-1.4721,-1.4417,-1.4364,-1.4262,-1.4214,-1.4135,-1.3996,-1.3969,-1.4001,-1.4086,-1.4121,-0.1994,-0.202,-0.202,-0.2036,-0.2056,-0.2032,-0.2252,-0.247,-0.259,-0.3082,-0.382,-0.3944,-0.4715,-0.5904,-0.6175,-0.6993,-0.8244,-0.8886,-0.9577,-1.0397,-1.0985,-1.1567,-1.1987,-1.2246,-1.2473,-1.2652,-1.2906,-1.2917,-1.3096,-1.3345,-1.351,-1.3753,-1.4094,-1.407,-1.4029,-1.3896,-1.3778,-1.3846,-1.3933,-1.4172,-1.4296,-1.453,-1.4764,-1.5002,-1.524,-1.5477,-1.5693,-1.5762,-1.6121,-1.678,-1.7261,-1.7498,-1.7812,-1.8183,-1.8419,-1.8597,-1.8815,-1.8793,-1.8766,-1.9255,-1.9279,-1.9071,-1.884,-1.8632,-1.8736,-1.9056,-1.9264,-1.9368,-1.9561,-1.9768,-1.9937,-1.993,-1.9811,-1.98,-1.9671,-1.9651,-1.9567,-1.9483,-1.9276,-1.9161,-1.9205,-1.9051,-1.8812,-1.8642,-1.855,-1.8534,-1.8346,-1.8247,-1.8036,-1.7721,-1.7729,-1.7744,-1.783,-1.79,-1.78,-1.7512,-1.7426,-1.7333,-1.6958,-1.6581,-1.6305,-1.6021,-1.573,-1.5343,-1.4758,-1.4472,-1.4496,-1.4406,-1.4292,-1.4201,-1.4123,-1.4212,-1.4145,-1.4206,-1.4214,-0.1993,-0.2019,-0.2271,-0.2418,-0.2443,-0.2667,-0.2752,-0.2964,-0.3329,-0.3698,-0.3944,-0.4931,-0.5602,-0.6171,-0.7126,-0.7863,-0.8753,-0.9517,-1.0238,-1.0944,-1.1483,-1.2033,-1.2309,-1.2572,-1.284,-1.3104,-1.3227,-1.3329,-1.3674,-1.3787,-1.4078,-1.4444,-1.4544,-1.4537,-1.4524,-1.4537,-1.4329,-1.4275,-1.4346,-1.4431,-1.454,-1.4888,-1.5121,-1.5472,-1.5715,-1.607,-1.6301,-1.6262,-1.6621,-1.7325,-1.7886,-1.8294,-1.8859,-1.8838,-1.8969,-1.9711,-1.9888,-1.9859,-1.9992,-2.0129,-2.0166,-2.0,-1.971,-1.9665,-1.9665,-1.9687,-1.9894,-1.9879,-1.9983,-2.0189,-2.0292,-2.0292,-2.0292,-2.0223,-2.013,-2.0202,-2.0109,-2.0078,-1.9883,-1.9813,-1.985,-1.954,-1.9411,-1.9349,-1.9263,-1.9296,-1.9217,-1.9004,-1.8809,-1.8489,-1.8288,-1.821,-1.8202,-1.8272,-1.8172,-1.7885,-1.7893,-1.7807,-1.7434,-1.7052,-1.6864,-1.648,-1.6109,-1.5629,-1.5051,-1.4777,-1.461,-1.4508,-1.44,-1.4298,-1.4238,-1.4274,-1.4298,-1.4298,-1.4298,-0.2358,-0.2375,-0.2751,-0.3019,-0.316,-0.3264,-0.348,-0.3703,-0.3822,-0.419,-0.481,-0.5582,-0.6391,-0.6995,-0.7735,-0.8491,-0.9533,-1.0125,-1.084,-1.1633,-1.2045,-1.2309,-1.2572,-1.284,-1.3108,-1.3371,-1.363,-1.3744,-1.4141,-1.4399,-1.4711,-1.4766,-1.4881,-1.4875,-1.4998,-1.5031,-1.5127,-1.4901,-1.4852,-1.4866,-1.5059,-1.538,-1.5601,-1.5957,-1.62,-1.6436,-1.6767,-1.6715,-1.7079,-1.7948,-1.8667,-1.914,-1.97,-1.9624,-1.997,-2.0744,-2.0758,-2.0798,-2.0757,-2.0903,-2.0878,-2.0716,-2.0666,-2.062,-2.0439,-2.0416,-2.0354,-2.03,-2.0403,-2.0403,-2.0395,-2.0395,-2.0395,-2.0395,-2.0498,-2.0609,-2.0617,-2.0617,-2.0522,-2.0551,-2.0392,-2.0178,-2.0051,-2.0019,-1.9842,-1.97,-1.9628,-1.95,-1.9201,-1.8879,-1.8636,-1.8465,-1.8465,-1.8458,-1.8357,-1.8265,-1.8272,-1.8187,-1.79,-1.7613,-1.7326,-1.6951,-1.6487,-1.6015,-1.535,-1.5178,-1.4904,-1.47,-1.4496,-1.4496,-1.44,-1.4304,-1.4304,-1.4298,-1.4298,-0.2837,-0.2962,-0.3208,-0.3582,-0.3946,-0.4073,-0.4439,-0.4933,-0.4436,-0.4807,-0.5684,-0.6131,-0.7096,-0.7827,-0.832,-0.9098,-1.0116,-1.0843,-1.1383,-1.2312,-1.2444,-1.2704,-1.2972,-1.3235,-1.3498,-1.3625,-1.3752,-1.4141,-1.4408,-1.4665,-1.4796,-1.4931,-1.5313,-1.546,-1.544,-1.5676,-1.5782,-1.5929,-1.575,-1.574,-1.579,-1.6051,-1.6363,-1.6583,-1.6701,-1.6932,-1.7238,-1.7325,-1.7418,-1.8655,-1.9625,-1.9986,-2.0291,-2.0709,-2.1195,-2.1541,-2.1658,-2.1555,-2.1456,-2.1573,-2.1518,-2.1493,-2.1467,-2.1431,-2.1199,-2.0781,-2.0545,-2.0506,-2.0609,-2.0712,-2.0712,-2.0712,-2.0712,-2.0712,-2.0719,-2.0822,-2.0775,-2.0813,-2.0798,-2.0726,-2.0639,-2.0448,-2.0424,-2.0392,-2.0361,-2.0146,-2.0003,-2.0011,-1.9805,-1.9376,-1.9145,-1.8893,-1.8885,-1.8792,-1.8643,-1.855,-1.8566,-1.8381,-1.828,-1.8094,-1.78,-1.7333,-1.6958,-1.6298,-1.573,-1.5465,-1.5185,-1.4987,-1.479,-1.4694,-1.4598,-1.4406,-1.44,-1.44,-1.4304,-0.3085,-0.3083,-0.3575,-0.4069,-0.4685,-0.493,-0.5298,-0.5671,-0.6033,-0.5908,-0.5806,-0.6878,-0.7865,-0.8367,-0.9007,-0.9792,-1.069,-1.1516,-1.1912,-1.2441,-1.284,-1.3104,-1.3231,-1.3621,-1.3884,-1.4146,-1.4272,-1.4403,-1.467,-1.4931,-1.5062,-1.5328,-1.5598,-1.5664,-1.5997,-1.625,-1.6392,-1.6697,-1.6866,-1.6712,-1.6664,-1.6841,-1.7184,-1.739,-1.7655,-1.7797,-1.8195,-1.8544,-1.8642,-1.9366,-2.0081,-2.0543,-2.0859,-2.1546,-2.1964,-2.2235,-2.2286,-2.2204,-2.2143,-2.212,-2.2166,-2.1968,-2.191,-2.1862,-2.1655,-2.1099,-2.0862,-2.0846,-2.0814,-2.0925,-2.0925,-2.0925,-2.0925,-2.0925,-2.0925,-2.0925,-2.0925,-2.0925,-2.0925,-2.0877,-2.0821,-2.0782,-2.075,-2.0734,-2.0726,-2.0692,-2.0576,-2.0579,-2.0597,-2.0297,-1.9902,-1.9629,-1.9383,-1.9209,-1.901,-1.8883,-1.8915,-1.8775,-1.8558,-1.8373,-1.8187,-1.7621,-1.7052,-1.6588,-1.6116,-1.5845,-1.5566,-1.5274,-1.5083,-1.4987,-1.4885,-1.4783,-1.479,-1.479,-1.4592,-0.3947,-0.3947,-0.4315,-0.493,-0.5302,-0.5669,-0.6158,-0.665,-0.7136,-0.7133,-0.6915,-0.7918,-0.8678,-0.9035,-0.9698,-1.0467,-1.124,-1.2045,-1.2576,-1.284,-1.3104,-1.3367,-1.3621,-1.401,-1.4141,-1.4403,-1.4534,-1.467,-1.4936,-1.5197,-1.5332,-1.5593,-1.5729,-1.6114,-1.6499,-1.6742,-1.7082,-1.7329,-1.7695,-1.7857,-1.7673,-1.7801,-1.8006,-1.8313,-1.874,-1.8892,-1.9041,-1.9391,-1.9636,-2.0055,-2.0845,-2.1347,-2.1782,-2.2116,-2.2456,-2.2667,-2.2749,-2.2814,-2.2768,-2.2664,-2.2593,-2.2418,-2.222,-2.2204,-2.2132,-2.1719,-2.1265,-2.1202,-2.0877,-2.0925,-2.0925,-2.0925,-2.0925,-2.0925,-2.0925,-2.0925,-2.0925,-2.0925,-2.0925,-2.0909,-2.0869,-2.0869,-2.0845,-2.1041,-2.1033,-2.1025,-2.105,-2.1203,-2.1113,-2.1197,-2.0712,-2.0394,-2.024,-1.9852,-1.9584,-1.9455,-1.9313,-1.9148,-1.8923,-1.8682,-1.8412,-1.7721,-1.7145,-1.6864,-1.6494,-1.6218,-1.5933,-1.5655,-1.5363,-1.5261,-1.5166,-1.5064,-1.5166,-1.5172,-1.4968,-0.4935,-0.5056,-0.5423,-0.579,-0.6162,-0.6405,-0.7016,-0.7508,-0.7994,-0.8358,-0.8637,-0.9004,-0.9615,-0.9976,-1.0159,-1.1176,-1.2041,-1.2712,-1.3112,-1.3367,-1.3498,-1.3757,-1.4015,-1.4277,-1.4403,-1.4534,-1.48,-1.4931,-1.5066,-1.5332,-1.5463,-1.5724,-1.6114,-1.6634,-1.6758,-1.7147,-1.763,-1.7999,-1.85,-1.9042,-1.8987,-1.8888,-1.9075,-1.9343,-1.9787,-2.0018,-2.0134,-2.0226,-2.0399,-2.0805,-2.1487,-2.1941,-2.2351,-2.257,-2.2675,-2.2901,-2.2901,-2.2998,-2.2958,-2.2942,-2.2942,-2.2887,-2.2672,-2.2537,-2.2458,-2.2227,-2.187,-2.1616,-2.129,-2.106,-2.106,-2.102,-2.102,-2.0941,-2.0941,-2.0925,-2.0925,-2.0925,-2.0917,-2.0917,-2.1019,-2.1019,-2.1121,-2.1224,-2.1326,-2.1428,-2.1522,-2.1623,-2.1777,-2.1737,-2.1636,-2.137,-2.1245,-2.0798,-2.0272,-2.0046,-1.9903,-1.976,-1.9633,-1.9159,-1.8729,-1.814,-1.7643,-1.734,-1.6965,-1.6711,-1.6427,-1.6143,-1.5845,-1.5675,-1.5553,-1.5458,-1.535,-1.5356,-1.5248,-0.5181,-0.5794,-0.6035,-0.6526,-0.7141,-0.7503,-0.7869,-0.8358,-0.9089,-0.9454,-0.9771,-1.0371,-1.0915,-1.0937,-1.1359,-1.2025,-1.2572,-1.3379,-1.3634,-1.3752,-1.4015,-1.4141,-1.4403,-1.4539,-1.48,-1.48,-1.4931,-1.5066,-1.5328,-1.5463,-1.5854,-1.6239,-1.6623,-1.7012,-1.7405,-1.7787,-1.8173,-1.8559,-1.9072,-1.9584,-2.0348,-2.0174,-2.0071,-2.0329,-2.0465,-2.0795,-2.0994,-2.1484,-2.1536,-2.1774,-2.2107,-2.2436,-2.2609,-2.2828,-2.2901,-2.3014,-2.3014,-2.3014,-2.3014,-2.3014,-2.3014,-2.3014,-2.2839,-2.2847,-2.2736,-2.2577,-2.2331,-2.2251,-2.1934,-2.16,-2.1513,-2.1393,-2.1338,-2.1091,-2.0988,-2.1059,-2.1035,-2.1027,-2.1019,-2.1121,-2.1216,-2.1318,-2.142,-2.1522,-2.1632,-2.1725,-2.1827,-2.203,-2.203,-2.2215,-2.2308,-2.2189,-2.2062,-2.1526,-2.079,-2.0674,-2.0608,-2.0454,-2.026,-1.9811,-1.9311,-1.8675,-1.8264,-1.8018,-1.7566,-1.7254,-1.6956,-1.6742,-1.6524,-1.6252,-1.6082,-1.5953,-1.577,-1.5836,-1.5916]},{"header":{"parameterUnit":"m.s-1","parameterCategory":1,"la1":31.0,"la2":29.5877,"lo1":-88.7671,"lo2":-86.6584,"dy":0.0162,"dx":0.0185,"nx":115,"ny":88,"refTime":"2023-08-14T12:00:00:Z","depth":0,"parameterNumber":3,"parameterNumberName":"V-component_of_WINDS"},"data":[0.0,0.0,0.0,0.0,0.0,0.0,0.0,0.0,0.0,0.0,0.0,0.0,0.0,0.0,0.0,0.0,0.0,0.0,0.0,0.0,0.0,0.0,0.0,0.0,0.0,0.0,0.0,0.0,0.0,0.0,0.0,0.0,0.0,0.0,0.0,0.0,0.0,0.0,0.0,0.0,0.0,0.0,0.0,0.0,0.0,0.0,0.0,0.0,0.0,0.0,0.0,0.0,0.0,0.0,0.0,0.0,0.0,0.0,0.0,0.0,0.0,0.0,0.0,0.0,0.0,0.0,0.0,0.0,0.0,0.0,0.0,0.0,0.0,0.0,0.0,0.0,0.0,0.0,0.0,0.0,0.0,0.0,0.0,0.0,0.0,0.0,0.0,0.0,0.0,0.0,0.0,0.0,0.0,0.0,0.0,0.0,0.0,0.0,0.0,0.0,0.0,0.0,0.0,0.0,0.0,0.0,0.0,0.0,0.0,0.0,0.0,0.0,0.0,0.0,0.0,0.0,0.0,0.0,0.0,0.0,0.0,0.0,0.0,0.0,0.0,0.0,0.0,0.0,0.0,0.0,0.0,0.0,0.0,0.0,0.0,0.0,0.0,0.0,0.0,0.0,0.0,0.0,0.0,0.0,0.0,0.0,0.0,0.0,0.0,0.0,0.0,0.0,0.0,0.0,0.0,0.0,0.0,0.0,0.0,0.0,0.0,0.0,0.0,0.0,0.0,0.0,0.0,0.0,0.0,0.0,0.0,0.0,0.0,0.0,0.0,0.0,0.0,0.0,0.0,0.0,0.0,0.0,0.0,0.0,0.0,0.0,0.0,0.0,0.0,0.0,0.0,0.0,0.0,0.0,0.0,0.0,0.0,0.0,0.0,0.0,0.0,0.0,0.0,0.0,0.0,0.0,0.0,0.0,0.0,0.0,0.0,0.0,0.0,0.0,0.0,0.0,0.0,0.0,0.0,0.0,0.0,0.0,0.0,0.0,0.0,0.0,0.0,0.0,0.0,0.0,0.0,0.0,0.0,0.0,0.0,0.0,0.0,0.0,0.0,0.0,0.0,0.0,0.0,0.0,0.0,0.0,0.0,0.0,0.0,0.0,0.0,0.0,0.0,0.0,0.0,0.0,0.0,0.0,0.0,0.0,0.0,0.0,0.0,0.0,0.0,0.0,0.0,0.0,0.0,0.0,0.0,0.0,0.0,0.0,0.0,0.0,0.0,0.0,0.0,0.0,0.0,0.0,0.0,0.0,0.0,0.0,0.0,0.0,0.0,0.0,0.0,0.0,0.0,0.0,0.0,0.0,0.0,0.0,0.0,0.0,0.0,0.0,0.0,0.0,0.0,0.0,0.0,0.0,0.0,0.0,0.0,0.0,0.0,0.0,0.0,0.0,0.0,0.0,0.0,0.0,0.0,0.0,0.0,0.0,0.0,0.0,0.0,0.0,0.0,0.0,0.0,0.0,0.0,0.0,0.0,0.0,0.0,0.0,0.0,0.0,0.0,0.0,0.0,0.0,0.0,0.0,0.0,0.0,0.0,0.0,0.0,0.0,0.0,0.0,0.0,0.0,0.0,0.0,0.0,0.0,0.0,0.0,0.0,0.0,0.0,0.0,0.0,0.0,0.0,0.0,0.0,0.0,0.0,0.0,0.0,0.0,0.0,0.0,0.0,0.0,0.0,0.0,0.0,0.0,0.0,0.0,0.0,0.0,0.0,0.0,0.0,0.0,0.0,0.0,0.0,0.0,0.0,0.0,0.0,0.0,0.0,0.0,0.0,0.0,0.0,0.0,0.0,0.0,0.0,0.0,0.0,0.0,0.0,0.0,0.0,0.0,0.0,0.0,0.0,0.0,0.0,0.0,0.0,0.0,0.0,0.0,0.0,0.0,0.0,0.0,0.0,0.0,0.0,0.0,0.0,0.0,0.0,0.0,0.0,0.0,0.0,0.0,0.0,0.0,0.0,0.0,0.0,0.0,0.0,0.0,0.0,0.0,0.0,0.0,0.0,0.0,0.0,0.0,0.0,0.0,0.0,0.0,0.0,0.0,0.0,0.0,0.0,0.0,0.0,0.0,0.0,0.0,0.0,0.0,0.0,0.0,0.0,0.0,0.0,0.0,0.0,0.0,0.0,0.0,0.0,0.0,0.0,0.0,0.0,0.0,0.0,0.0,0.0,0.0,0.0,0.0,0.0,0.0,0.0,0.0,0.0,0.0,0.0,0.0,0.0,0.0,0.0,0.0,0.0,0.0,0.0,0.0,0.0,0.0,0.0,0.0,0.0,0.0,0.0,0.0,0.0,0.0,0.0,0.0,0.0,0.0,0.0,0.0,0.0,0.0,0.0,0.0,0.0,0.0,0.0,0.0,0.0,0.0,0.0,0.0,0.0,0.0,0.0,0.0,0.0,0.0,0.0,0.0,0.0,0.0,0.0,0.0,0.0,0.0,0.0,0.0,0.0,0.0,0.0,0.0,0.0,0.0,0.0,0.0,0.0,0.0,0.0,0.0,0.0,0.0,0.0,0.0,0.0,0.0,0.0,0.0,0.0,0.0,0.0,0.0,0.0,0.0,0.0,0.0,0.0,0.0,0.0,0.0,0.0,0.0,0.0,0.0,0.0,0.0,0.0,0.0,0.0,0.0,0.0,0.0,0.0,0.0,0.0,0.0,0.0,0.0,0.0,0.0,0.0,0.0,0.0,0.0,0.0,0.0,0.0,0.0,0.0,0.0,0.0,0.0,0.0,0.0,0.0,0.0,0.0,0.0,0.0,0.0,0.0,0.0,0.0,0.0,0.0,0.0,0.0,0.0,0.0,0.0,0.0,0.0,0.0,0.0,0.0,0.0,0.0,0.0,0.0,0.0,0.0,0.0,0.0,0.0,0.0,0.0,0.0,0.0,0.0,0.0,0.0,0.0,0.0,0.0,0.0,0.0,0.0,0.0,0.0,0.0,0.0,0.0,0.0,0.0,0.0,0.0,0.0,0.0,0.0,0.0,0.0,0.0,0.0,0.0,0.0,0.0,0.0,0.0,0.0,0.0,0.0,0.0,0.0,0.0,0.0,0.0,0.0,0.0,0.0,0.0,0.0,0.0,0.0,0.0,0.0,0.0,0.0,0.0,0.0,0.0,0.0,0.0,0.0,0.0,0.0,0.0,0.0,0.0,0.0,0.0,0.0,0.0,0.0,0.0,0.0,0.0,0.0,0.0,0.0,0.0,0.0,0.0,0.0,0.0,0.0,0.0,0.0,0.0,0.0,0.0,0.0,0.0,0.0,0.0,0.0,0.0,0.0,0.0,0.0,0.0,0.0,0.0,0.0,0.0,0.0,0.0,0.0,0.0,0.0,0.0,0.0,0.0,0.0,0.0,0.0,0.0,0.0,0.0,0.0,0.0,0.0,0.0,0.0,0.0,0.0,0.0,0.0,0.0,0.0,0.0,0.0,0.0,0.0,0.0,0.0,0.0,0.0,0.0,0.0,0.0,0.0,0.0,0.0,0.0,0.0,0.0,0.0,0.0,0.0,0.0,0.0,0.0,0.0,0.0,0.0,0.0,0.0,0.0,0.0,0.0,0.0,0.0,0.0,0.0,0.0,0.0,0.0,0.0,0.0,0.0,0.0,0.0,0.0,0.0,0.0,0.0,0.0,0.0,0.0,0.0,0.0,0.0,0.0,0.0,0.0,0.0,0.0,0.0,0.0,0.0,0.0,0.0,0.0,0.0,0.0,0.0,0.0,0.0,0.0,0.0,0.0,0.0,0.0,0.0,0.0,0.0,0.0,0.0,0.0,0.0,0.0,0.0,0.0,0.0,0.0,0.0,0.0,0.0,0.0,0.0,0.0,0.0,0.0,0.0,0.0,0.0,0.0,0.0,0.0,0.0,0.0,0.0,0.0,0.0,0.0,0.0,0.0,0.0,0.0,0.0,0.0,0.0,0.0,0.0,0.0,0.0,0.0,0.0,0.0,0.0,0.0,0.0,0.0,0.0,0.0,0.0,0.0,0.0,0.0,0.0,0.0,0.0,0.0,0.0,0.0,0.0,0.0,0.0,0.0,0.0,0.0,0.0,0.0,0.0,0.0,0.0,0.0,0.0,0.0,0.0,0.0,0.0,0.0,0.0,0.0,0.0,0.0,0.0,0.0,0.0,0.0,0.0,0.0,0.0,0.0,0.0,0.0,0.0,0.0,0.0,0.0,0.0,0.0,0.0,0.0,0.0,0.0,0.0,0.0,0.0,0.0,0.0,0.0,0.0,0.0,0.0,0.0,0.0,-0.232,0.0,0.0,0.0,0.0,0.0,0.0,0.0,0.0,0.0,0.0,0.0,0.0,0.0,0.0,0.0,0.0,0.0,0.0,0.0,0.0,0.0,0.0,0.0,0.0,0.0,0.0,0.0,0.0,0.0,0.0,0.0,0.0,0.0,0.0,0.0,0.0,0.0,0.0,0.0,0.0,0.0,0.0,0.0,0.0,0.0,0.0,0.0,0.0,0.0,0.0,0.0,0.0,0.0,0.0,0.0,0.0,0.0,0.0,0.0,0.0,0.0,0.0,0.0,0.0,0.0,0.0,0.0,0.0,0.0,0.0,0.0,0.0,0.0,0.0,0.0,0.0,0.0,0.0,0.0,0.0,0.0,0.0,0.0,0.0,0.0,0.0,0.0,0.0,0.0,0.0,0.0,0.0,0.0,0.0,0.0,0.0,0.0,0.0,0.0,0.0,0.0,0.0,0.0,0.0,0.0,0.0,0.0,0.0,0.0,0.0,-0.3246,-0.3272,-0.3125,-0.2949,-0.2781,0.0,0.0,0.0,0.0,0.0,0.0,0.0,0.0,0.0,0.0,0.0,0.0,0.0,0.0,0.0,0.0,0.0,0.0,0.0,0.0,0.0,0.0,0.0,0.0,0.0,0.0,0.0,0.0,0.0,0.0,0.0,0.0,0.0,0.0,0.0,0.0,0.0,0.0,0.0,0.0,0.0,0.0,0.0,0.0,0.0,0.0,0.0,0.0,0.0,0.0,0.0,0.0,0.0,0.0,0.0,0.0,0.0,0.0,0.0,0.0,0.0,0.0,0.0,0.0,0.0,0.0,0.0,0.0,0.0,0.0,0.0,0.0,0.0,0.0,0.0,0.0,0.0,0.0,0.0,0.0,0.0,0.0,0.0,0.0,0.0,0.0,0.0,0.0,0.0,0.0,0.0,0.0,0.0,0.0,0.0,0.0,0.0,0.0,0.0,0.0,0.0,0.0,0.0,0.0,0.0,0.0,0.0,0.0,0.0,0.0,0.0,0.0,-0.3683,-0.352,-0.3227,0.0,0.0,0.0,0.0,0.0,0.0,0.0,0.0,0.0,0.0,0.0,0.0,0.0,0.0,0.0,0.0,0.0,0.0,0.0,0.0,0.0,0.0,0.0,0.0,0.0,0.0,0.0,0.0,0.0,0.0,0.0,0.0,0.0,0.0,0.0,0.0,0.0,0.0,0.0,0.0,0.0,0.0,0.0,0.0,0.0,0.0,0.0,0.0,0.0,0.0,0.0,0.0,0.0,0.0,0.0,0.0,0.0,0.0,0.0,0.0,0.0,0.0,0.0,0.0,0.0,0.0,0.0,0.0,0.0,0.0,0.0,0.0,0.0,0.0,0.0,0.0,0.0,0.0,0.0,0.0,0.0,0.0,0.0,0.0,0.0,0.0,0.0,0.0,0.0,0.0,0.0,0.0,0.0,0.0,0.0,0.0,0.0,0.0,0.0,0.0,0.0,0.0,0.0,0.0,0.0,0.0,0.0,0.0,0.0,0.0,-0.4376,-0.4489,-0.431,0.0,-0.3579,0.0,0.0,0.0,0.0,0.0,0.0,0.0,0.0,0.0,0.0,0.0,0.0,0.0,0.0,0.0,0.0,0.0,0.0,0.0,0.0,0.0,0.0,0.0,0.0,0.0,0.0,0.0,0.0,0.0,0.0,0.0,0.0,0.0,0.0,0.0,0.0,0.0,0.0,0.0,0.0,0.0,0.0,0.0,0.0,0.0,0.0,0.0,0.0,0.0,0.0,0.0,0.0,0.0,0.0,0.0,0.0,0.0,0.0,0.0,0.0,0.0,0.0,0.0,0.0,0.0,0.0,0.0,0.0,0.0,0.0,0.0,0.0,0.0,0.0,0.0,0.0,0.0,0.0,0.0,0.0,0.0,0.0,0.0,0.0,0.0,0.0,0.0,0.0,0.0,0.0,0.0,0.0,0.0,0.0,0.0,0.0,0.0,0.0,0.0,0.0,0.0,0.0,0.0,0.0,0.0,0.0,0.0,0.0,0.0,0.0,-0.502,-0.5068,-0.4741,-0.446,0.0,0.0,0.0,0.0,0.0,0.0,0.0,0.0,0.0,0.0,0.0,0.0,0.0,0.0,0.0,0.0,0.0,0.0,0.0,0.0,0.0,0.0,0.0,0.0,0.0,0.0,0.0,0.0,0.0,0.0,0.0,0.0,0.0,0.0,0.0,0.0,0.0,0.0,0.0,0.0,0.0,0.0,0.0,0.0,0.0,0.0,0.0,0.0,0.0,0.0,0.0,0.0,0.0,0.0,0.0,0.0,0.0,0.0,0.0,0.0,0.0,0.0,0.0,0.0,0.0,0.0,0.0,0.0,0.0,0.0,0.0,0.0,0.0,0.0,0.0,0.0,0.0,0.0,0.0,0.0,0.0,0.0,0.0,0.0,0.0,0.0,0.0,0.0,0.0,0.0,0.0,0.0,0.0,0.0,0.0,0.0,0.0,0.0,0.0,0.0,0.0,0.0,0.0,0.0,0.0,0.0,0.0,0.0,0.0,0.0,-0.5609,-0.5571,-0.5571,-0.5219,-0.4967,-0.4948,0.0,0.0,0.0,0.0,0.0,0.0,0.0,0.0,0.0,0.0,0.0,0.0,0.0,0.0,0.0,0.0,0.0,0.0,0.0,0.0,0.0,0.0,0.0,0.0,0.0,0.0,0.0,0.0,0.0,0.0,0.0,0.0,0.0,0.0,0.0,0.0,0.0,0.0,0.0,0.0,0.0,0.0,0.0,0.0,0.0,0.0,0.0,0.0,0.0,0.0,0.0,0.0,0.0,0.0,0.0,0.0,0.0,0.0,0.0,0.0,0.0,0.0,0.0,0.0,0.0,0.0,0.0,0.0,0.0,0.0,0.0,0.0,0.0,0.0,0.0,0.0,0.0,0.0,0.0,0.0,0.0,0.0,0.0,0.0,0.0,0.0,0.0,0.0,0.0,0.0,0.0,0.0,0.0,0.0,0.0,0.0,0.0,0.0,0.0,0.0,0.0,0.0,0.0,0.0,0.0,0.0,0.0,0.0,-0.6052,-0.6014,-0.6014,-0.6068,-0.5866,-0.565,0.0,0.0,0.0,0.0,0.0,0.0,0.0,0.0,0.0,0.0,0.0,0.0,0.0,0.0,0.0,0.0,0.0,0.0,0.0,0.0,0.0,0.0,0.0,0.0,0.0,0.0,0.0,0.0,0.0,0.0,0.0,0.0,0.0,0.0,0.0,0.0,0.0,0.0,0.0,0.0,0.0,0.0,0.0,0.0,0.0,0.0,0.0,0.0,0.0,0.0,0.0,0.0,0.0,0.0,0.0,0.0,0.0,0.0,0.0,0.0,0.0,0.0,0.0,0.0,0.0,0.0,0.0,0.0,0.0,0.0,0.0,0.0,0.0,0.0,0.0,0.0,0.0,0.0,0.0,0.0,0.0,0.0,0.0,0.0,0.0,0.0,0.0,0.0,0.0,0.0,0.0,0.0,0.0,0.0,0.0,0.0,0.0,0.0,0.0,0.0,0.0,0.0,0.0,0.0,0.0,0.0,0.0,0.0,0.0,-0.6609,-0.6604,-0.6573,-0.6595,-0.6452,-0.619,0.0,0.0,0.0,0.0,0.0,0.0,0.0,0.0,0.0,0.0,0.0,0.0,0.0,0.0,0.0,0.0,0.0,0.0,0.0,0.0,0.0,0.0,0.0,0.0,0.0,0.0,0.0,0.0,0.0,0.0,0.0,0.0,0.0,0.0,0.0,0.0,0.0,0.0,0.0,0.0,0.0,0.0,0.0,0.0,0.0,0.0,0.0,0.0,0.0,0.0,0.0,0.0,0.0,0.0,0.0,0.0,0.0,0.0,0.0,0.0,0.0,0.0,0.0,0.0,0.0,0.0,0.0,0.0,0.0,0.0,0.0,0.0,0.0,0.0,0.0,0.0,0.0,0.0,0.0,0.0,0.0,0.0,0.0,0.0,0.0,0.0,0.0,0.0,0.0,0.0,0.0,0.0,0.0,0.0,0.0,0.0,0.0,0.0,0.0,0.0,0.0,0.0,0.0,0.0,0.0,0.0,0.0,0.0,0.0,-0.7157,0.0,-0.7175,-0.7184,-0.7122,-0.6786,0.0,0.0,0.0,0.0,0.0,0.0,0.0,0.0,0.0,0.0,0.0,0.0,0.0,0.0,0.0,0.0,0.0,0.0,0.0,0.0,0.0,0.0,0.0,0.0,0.0,0.0,0.0,0.0,0.0,0.0,0.0,0.0,0.0,0.0,0.0,0.0,0.0,0.0,0.0,0.0,0.0,0.0,0.0,0.0,0.0,0.0,0.0,0.0,0.0,0.0,0.0,0.0,0.0,0.0,0.0,0.0,0.0,0.0,0.0,0.0,0.0,0.0,0.0,0.0,0.0,0.0,0.0,0.0,0.0,0.0,0.0,0.0,0.0,0.0,0.0,0.0,0.0,0.0,0.0,0.0,0.0,0.0,0.0,0.0,0.0,0.0,0.0,0.0,0.0,0.0,0.0,0.0,0.0,0.0,0.0,0.0,0.0,0.0,0.0,0.0,0.0,0.0,0.0,0.0,0.0,0.0,0.0,0.0,-0.7782,-0.7705,-0.7705,-0.7744,-0.7792,-0.7793,-0.75,0.0,0.0,0.0,0.0,0.0,0.0,0.0,0.0,0.0,0.0,0.0,0.0,0.0,0.0,0.0,0.0,0.0,0.0,0.0,0.0,0.0,0.0,0.0,0.0,0.0,0.0,0.0,0.0,0.0,0.0,0.0,0.0,0.0,0.0,0.0,0.0,0.0,0.0,0.0,0.0,0.0,0.0,0.0,0.0,0.0,0.0,0.0,0.0,0.0,0.0,0.0,0.0,0.0,0.0,0.0,0.0,0.0,0.0,0.0,0.0,0.0,0.0,0.0,0.0,0.0,0.0,0.0,0.0,0.0,0.0,0.0,0.0,0.0,0.0,0.0,0.0,0.0,0.0,0.0,0.0,0.0,0.0,0.0,0.0,0.0,0.0,0.0,0.0,0.0,0.0,0.0,0.0,0.0,0.0,0.0,0.0,0.0,0.0,0.0,0.0,0.0,0.0,0.0,0.0,0.0,0.0,0.0,0.0,0.0,-0.8326,-0.8326,-0.8326,-0.8336,-0.8413,-0.8171,0.0,0.0,0.0,0.0,0.0,0.0,0.0,0.0,0.0,0.0,0.0,0.0,0.0,0.0,0.0,0.0,0.0,0.0,0.0,0.0,0.0,0.0,0.0,0.0,0.0,0.0,0.0,0.0,0.0,0.0,0.0,0.0,0.0,0.0,0.0,0.0,0.0,0.0,0.0,0.0,0.0,0.0,0.0,0.0,0.0,0.0,0.0,0.0,0.0,0.0,0.0,0.0,0.0,0.0,0.0,0.0,0.0,0.0,0.0,0.0,0.0,0.0,0.0,0.0,0.0,0.0,0.0,0.0,0.0,0.0,0.0,0.0,0.0,0.0,0.0,0.0,0.0,0.0,0.0,0.0,0.0,0.0,0.0,0.0,0.0,0.0,0.0,0.0,0.0,0.0,0.0,0.0,0.0,0.0,0.0,0.0,0.0,0.0,0.0,0.0,0.0,0.0,0.0,0.0,0.0,0.0,0.0,0.0,0.0,-0.9564,-0.9111,-0.8894,-0.8894,-0.8951,-0.8732,-0.8264,0.0,0.0,0.0,0.0,0.0,0.0,0.0,0.0,0.0,0.0,0.0,0.0,0.0,0.0,0.0,0.0,0.0,0.0,0.0,0.0,0.0,0.0,0.0,0.0,0.0,0.0,0.0,0.0,0.0,0.0,0.0,0.0,0.0,0.0,0.0,0.0,0.0,0.0,0.0,0.0,0.0,0.0,0.0,0.0,0.0,0.0,0.0,0.0,0.0,0.0,0.0,0.0,0.0,0.0,0.0,0.0,0.0,0.0,0.0,0.0,0.0,0.0,0.0,0.0,0.0,0.0,0.0,0.0,0.0,0.0,0.0,0.0,0.0,0.0,0.0,0.0,0.0,0.0,0.0,0.0,0.0,0.0,0.0,0.0,0.0,0.0,0.0,0.0,0.0,0.0,0.0,0.0,0.0,0.0,0.0,0.0,0.0,0.0,0.0,0.0,0.0,0.0,0.0,0.0,0.0,0.0,0.0,0.0,-1.1242,-1.0166,-0.956,-0.9509,-0.95,-0.925,0.0,0.0,0.0,0.0,0.0,0.0,0.0,0.0,0.0,0.0,0.0,0.0,0.0,0.0,0.0,0.0,0.0,0.0,0.0,0.0,0.0,0.0,0.0,0.0,0.0,0.0,0.0,0.0,0.0,0.0,0.0,0.0,0.0,0.0,0.0,0.0,0.0,0.0,0.0,0.0,0.0,0.0,0.0,0.0,0.0,0.0,0.0,0.0,0.0,0.0,0.0,0.0,0.0,0.0,0.0,0.0,0.0,0.0,0.0,0.0,0.0,0.0,0.0,0.0,0.0,0.0,0.0,0.0,0.0,0.0,0.0,0.0,0.0,0.0,0.0,0.0,0.0,0.0,0.0,0.0,0.0,0.0,0.0,0.0,0.0,0.0,0.0,0.0,0.0,0.0,0.0,0.0,0.0,0.0,0.0,0.0,0.0,0.0,0.0,0.0,0.0,0.0,0.0,0.0,0.0,0.0,0.0,0.0,0.0,-1.1703,-1.1844,-1.1508,-1.0698,-1.061,-1.0315,0.0,0.0,0.0,0.0,0.0,0.0,0.0,0.0,0.0,0.0,0.0,0.0,0.0,0.0,0.0,0.0,0.0,0.0,0.0,0.0,0.0,0.0,0.0,0.0,0.0,0.0,0.0,0.0,0.0,0.0,0.0,0.0,0.0,0.0,0.0,0.0,0.0,0.0,0.0,0.0,0.0,0.0,0.0,0.0,0.0,0.0,0.0,0.0,0.0,0.0,0.0,0.0,0.0,0.0,0.0,0.0,0.0,0.0,0.0,0.0,0.0,0.0,0.0,0.0,0.0,0.0,0.0,0.0,0.0,0.0,0.0,0.0,0.0,0.0,0.0,0.0,0.0,0.0,0.0,0.0,0.0,0.0,0.0,0.0,0.0,0.0,0.0,0.0,0.0,0.0,0.0,0.0,0.0,0.0,0.0,0.0,0.0,0.0,0.0,0.0,0.0,0.0,0.0,0.0,0.0,0.0,0.0,0.0,-1.2452,-1.2664,-1.3159,-1.3136,-1.2485,-1.1746,-1.1195,0.0,0.0,0.0,0.0,0.0,0.0,0.0,0.0,0.0,0.0,0.0,0.0,0.0,0.0,0.0,0.0,0.0,0.0,0.0,0.0,0.0,0.0,0.0,0.0,0.0,0.0,0.0,0.0,0.0,0.0,0.0,0.0,0.0,0.0,0.0,0.0,0.0,0.0,0.0,0.0,0.0,0.0,0.0,0.0,0.0,0.0,0.0,0.0,0.0,0.0,0.0,0.0,0.0,0.0,0.0,0.0,0.0,0.0,0.0,0.0,0.0,0.0,0.0,0.0,0.0,0.0,0.0,0.0,0.0,0.0,0.0,0.0,0.0,0.0,0.0,0.0,0.0,0.0,0.0,0.0,0.0,0.0,0.0,0.0,0.0,0.0,0.0,0.0,0.0,0.0,0.0,0.0,0.0,0.0,0.0,0.0,0.0,0.0,0.0,0.0,0.0,0.0,0.0,0.0,0.0,0.0,0.0,0.0,-1.3211,-1.3834,-1.4286,-1.4498,-1.4524,-1.292,-1.1967,0.0,0.0,0.0,0.0,0.0,0.0,0.0,0.0,0.0,0.0,0.0,0.0,0.0,0.0,0.0,0.0,0.0,0.0,0.0,0.0,0.0,0.0,0.0,0.0,0.0,0.0,0.0,0.0,0.0,0.0,0.0,0.0,0.0,0.0,0.0,0.0,0.0,0.0,0.0,0.0,0.0,0.0,0.0,0.0,0.0,0.0,0.0,0.0,0.0,0.0,0.0,0.0,0.0,0.0,0.0,0.0,0.0,0.0,0.0,0.0,0.0,0.0,0.0,0.0,0.0,0.0,0.0,0.0,0.0,0.0,0.0,0.0,0.0,0.0,0.0,0.0,0.0,0.0,0.0,0.0,0.0,0.0,0.0,0.0,0.0,0.0,0.0,0.0,0.0,0.0,0.0,0.0,0.0,0.0,0.0,0.0,0.0,0.0,0.0,0.0,0.0,0.0,0.0,0.0,0.0,0.0,0.0,0.0,-1.4316,-1.4868,-1.5421,-1.5687,-1.5589,-1.4299,-1.3164,0.0,0.0,0.0,0.0,0.0,0.0,0.0,0.0,0.0,0.0,0.0,0.0,0.0,0.0,0.0,0.0,0.0,0.0,0.0,0.0,0.0,0.0,0.0,0.0,0.0,0.0,0.0,0.0,0.0,0.0,0.0,0.0,0.0,0.0,0.0,0.0,0.0,0.0,0.0,0.0,0.0,0.0,0.0,0.0,0.0,0.0,0.0,0.0,-1.6732,0.0,0.0,0.0,0.0,0.0,0.0,0.0,0.0,0.0,0.0,0.0,0.0,0.0,0.0,0.0,0.0,0.0,0.0,0.0,0.0,0.0,0.0,0.0,0.0,0.0,0.0,0.0,0.0,0.0,0.0,0.0,0.0,0.0,0.0,0.0,0.0,0.0,0.0,0.0,0.0,0.0,0.0,0.0,0.0,0.0,0.0,0.0,0.0,0.0,0.0,0.0,0.0,0.0,0.0,0.0,0.0,0.0,0.0,0.0,-1.5273,-1.5505,-1.6024,-1.6246,-1.6123,-1.5445,-1.4451,0.0,0.0,0.0,0.0,0.0,0.0,0.0,0.0,0.0,0.0,0.0,0.0,0.0,0.0,0.0,0.0,0.0,0.0,0.0,0.0,0.0,0.0,0.0,0.0,0.0,0.0,0.0,0.0,0.0,0.0,0.0,0.0,0.0,0.0,0.0,0.0,0.0,0.0,0.0,0.0,0.0,0.0,0.0,0.0,0.0,0.0,0.0,0.0,0.0,0.0,0.0,0.0,0.0,0.0,0.0,0.0,0.0,0.0,0.0,0.0,0.0,0.0,0.0,0.0,0.0,0.0,0.0,0.0,0.0,0.0,0.0,0.0,0.0,0.0,0.0,0.0,0.0,0.0,0.0,0.0,0.0,0.0,0.0,0.0,0.0,0.0,0.0,0.0,0.0,0.0,0.0,0.0,0.0,0.0,0.0,0.0,0.0,0.0,0.0,0.0,0.0,0.0,0.0,0.0,0.0,0.0,0.0,-1.5413,-1.6038,-1.6048,-1.6368,-1.6528,-1.6463,-1.6316,-1.5541,-1.4116,0.0,0.0,0.0,0.0,0.0,0.0,0.0,0.0,0.0,0.0,0.0,0.0,0.0,0.0,0.0,0.0,0.0,0.0,0.0,0.0,0.0,0.0,0.0,0.0,0.0,0.0,0.0,0.0,0.0,0.0,0.0,0.0,0.0,0.0,0.0,0.0,0.0,0.0,-1.2318,-1.3884,0.0,0.0,0.0,0.0,0.0,0.0,0.0,0.0,-1.693,0.0,0.0,0.0,0.0,0.0,0.0,0.0,0.0,0.0,0.0,0.0,0.0,0.0,0.0,0.0,0.0,0.0,0.0,0.0,0.0,0.0,0.0,0.0,0.0,0.0,0.0,0.0,0.0,0.0,0.0,0.0,0.0,0.0,0.0,0.0,0.0,0.0,0.0,0.0,0.0,0.0,0.0,0.0,0.0,0.0,0.0,0.0,0.0,0.0,0.0,0.0,0.0,0.0,0.0,0.0,0.0,-1.506,-1.5917,-1.6532,-1.6946,-1.6887,-1.6799,-1.6738,-1.6554,-1.6072,-1.524,0.0,0.0,0.0,0.0,0.0,0.0,0.0,0.0,0.0,0.0,0.0,0.0,0.0,0.0,0.0,0.0,0.0,0.0,0.0,0.0,0.0,0.0,0.0,0.0,0.0,0.0,0.0,0.0,0.0,0.0,0.0,0.0,0.0,0.0,0.0,0.0,0.0,0.0,0.0,-1.4439,-1.5075,0.0,0.0,0.0,0.0,0.0,0.0,0.0,0.0,-1.7264,0.0,0.0,0.0,0.0,0.0,0.0,0.0,0.0,0.0,0.0,0.0,0.0,0.0,0.0,0.0,0.0,0.0,0.0,0.0,0.0,0.0,0.0,0.0,0.0,0.0,0.0,0.0,0.0,0.0,0.0,0.0,0.0,0.0,0.0,0.0,0.0,0.0,0.0,0.0,0.0,0.0,0.0,0.0,0.0,0.0,0.0,0.0,0.0,0.0,0.0,0.0,0.0,0.0,0.0,0.0,-1.6034,-1.6708,-1.7146,-1.7296,-1.7175,-1.7068,-1.6949,-1.6821,-1.6384,0.0,0.0,0.0,0.0,0.0,0.0,0.0,0.0,0.0,0.0,0.0,0.0,0.0,0.0,0.0,0.0,0.0,0.0,0.0,0.0,0.0,0.0,0.0,0.0,0.0,0.0,0.0,0.0,0.0,0.0,0.0,0.0,0.0,0.0,0.0,0.0,0.0,0.0,0.0,0.0,-1.5021,-1.5299,-1.5448,0.0,0.0,0.0,0.0,0.0,0.0,-1.7142,-1.7384,0.0,0.0,0.0,0.0,0.0,0.0,0.0,0.0,0.0,0.0,0.0,0.0,0.0,0.0,0.0,0.0,0.0,0.0,0.0,0.0,0.0,0.0,0.0,0.0,0.0,0.0,0.0,0.0,0.0,0.0,0.0,0.0,0.0,0.0,0.0,0.0,0.0,0.0,0.0,0.0,0.0,0.0,0.0,0.0,0.0,0.0,0.0,0.0,0.0,0.0,0.0,0.0,0.0,0.0,0.0,-1.6716,-1.74,-1.7641,-1.7455,-1.7368,-1.7264,-1.7166,-1.7057,-1.6674,0.0,0.0,0.0,0.0,0.0,0.0,0.0,0.0,0.0,0.0,0.0,0.0,0.0,0.0,0.0,0.0,0.0,0.0,0.0,0.0,0.0,0.0,0.0,0.0,0.0,0.0,0.0,0.0,0.0,0.0,0.0,0.0,0.0,0.0,0.0,0.0,0.0,0.0,0.0,0.0,0.0,-1.5624,-1.5711,-1.594,0.0,0.0,0.0,0.0,-1.7043,-1.7288,0.0,0.0,0.0,0.0,0.0,0.0,0.0,0.0,0.0,0.0,0.0,0.0,0.0,0.0,0.0,0.0,0.0,0.0,0.0,0.0,0.0,0.0,0.0,0.0,0.0,0.0,0.0,0.0,0.0,0.0,0.0,0.0,0.0,0.0,0.0,0.0,0.0,0.0,0.0,0.0,0.0,0.0,0.0,0.0,0.0,0.0,0.0,0.0,0.0,0.0,0.0,0.0,0.0,0.0,0.0,0.0,-1.6829,-1.7461,-1.7726,-1.7664,-1.7496,-1.7401,-1.7377,-1.7191,-1.705,0.0,0.0,0.0,0.0,0.0,0.0,0.0,0.0,0.0,0.0,0.0,0.0,0.0,0.0,0.0,0.0,0.0,0.0,0.0,0.0,0.0,0.0,0.0,0.0,0.0,0.0,0.0,0.0,0.0,0.0,0.0,0.0,0.0,0.0,0.0,0.0,0.0,0.0,0.0,0.0,0.0,-1.6067,-1.6136,-1.6246,-1.6436,0.0,0.0,-1.7043,-1.7296,-1.7589,0.0,0.0,0.0,0.0,0.0,0.0,0.0,0.0,0.0,0.0,0.0,0.0,0.0,0.0,0.0,0.0,0.0,0.0,0.0,0.0,0.0,0.0,0.0,0.0,0.0,0.0,0.0,0.0,0.0,0.0,0.0,0.0,0.0,0.0,0.0,0.0,0.0,0.0,0.0,0.0,0.0,0.0,0.0,0.0,0.0,0.0,0.0,0.0,0.0,0.0,0.0,0.0,0.0,0.0,0.0,-1.7106,-1.7531,-1.7752,-1.7816,-1.7749,-1.7618,-1.7526,-1.7408,-1.7321,-1.724,0.0,0.0,0.0,0.0,0.0,0.0,0.0,0.0,0.0,0.0,0.0,0.0,0.0,0.0,0.0,0.0,0.0,0.0,0.0,0.0,0.0,0.0,0.0,0.0,0.0,0.0,0.0,0.0,0.0,0.0,0.0,0.0,0.0,0.0,0.0,0.0,0.0,0.0,0.0,0.0,0.0,0.0,-1.647,-1.6633,0.0,0.0,0.0,-1.7368,-1.7589,0.0,0.0,0.0,0.0,0.0,0.0,0.0,0.0,0.0,0.0,0.0,0.0,0.0,0.0,0.0,0.0,0.0,0.0,0.0,0.0,0.0,0.0,0.0,0.0,0.0,0.0,0.0,0.0,0.0,0.0,0.0,0.0,0.0,0.0,0.0,0.0,0.0,0.0,0.0,0.0,0.0,0.0,0.0,0.0,0.0,0.0,0.0,0.0,0.0,0.0,0.0,0.0,0.0,0.0,0.0,0.0,0.0,-1.8095,-1.8009,-1.7905,-1.7856,-1.7772,-1.7641,-1.7502,-1.7455,0.0,0.0,0.0,0.0,0.0,0.0,0.0,0.0,0.0,0.0,0.0,0.0,0.0,0.0,0.0,0.0,0.0,0.0,0.0,0.0,0.0,0.0,0.0,0.0,0.0,0.0,0.0,-1.6339,0.0,0.0,0.0,0.0,0.0,0.0,0.0,0.0,0.0,0.0,0.0,0.0,0.0,0.0,-1.686,-1.6901,-1.7068,-1.7191,0.0,0.0,-1.771,-1.7905,-1.8065,-1.8293,0.0,0.0,0.0,0.0,0.0,0.0,0.0,0.0,0.0,0.0,0.0,0.0,0.0,0.0,0.0,0.0,0.0,0.0,0.0,0.0,0.0,0.0,0.0,0.0,0.0,0.0,0.0,0.0,0.0,0.0,0.0,0.0,0.0,0.0,0.0,0.0,0.0,0.0,0.0,0.0,0.0,0.0,0.0,0.0,0.0,0.0,0.0,0.0,0.0,0.0,0.0,0.0,0.0,0.0,0.0,-1.819,-1.8113,-1.8048,-1.7983,-1.7856,-1.7789,-1.7789,-1.7595,-1.7496,0.0,0.0,0.0,0.0,0.0,0.0,0.0,0.0,0.0,0.0,0.0,0.0,0.0,0.0,0.0,0.0,0.0,0.0,0.0,0.0,0.0,0.0,0.0,0.0,0.0,0.0,0.0,0.0,0.0,0.0,0.0,0.0,0.0,0.0,0.0,0.0,0.0,0.0,0.0,0.0,0.0,-1.7368,-1.7439,-1.7502,-1.7612,0.0,0.0,-1.8044,-1.8249,-1.8393,-1.8567,-1.8753,0.0,0.0,0.0,0.0,0.0,0.0,0.0,0.0,0.0,0.0,0.0,0.0,0.0,0.0,0.0,0.0,0.0,0.0,0.0,0.0,0.0,0.0,0.0,0.0,0.0,0.0,0.0,0.0,0.0,0.0,0.0,0.0,0.0,0.0,0.0,0.0,0.0,0.0,0.0,0.0,0.0,0.0,0.0,0.0,0.0,0.0,0.0,0.0,0.0,0.0,0.0,0.0,0.0,-1.8266,-1.8263,-1.8184,-1.8159,-1.8108,-1.8027,-1.7961,-1.7861,-1.7794,-1.7737,0.0,0.0,0.0,0.0,0.0,0.0,0.0,0.0,0.0,0.0,0.0,0.0,0.0,0.0,0.0,0.0,0.0,0.0,0.0,0.0,0.0,0.0,0.0,0.0,0.0,0.0,0.0,0.0,-1.8878,-1.8825,-1.8753,0.0,0.0,0.0,0.0,0.0,0.0,0.0,0.0,0.0,0.0,-1.7854,-1.7915,-1.7997,0.0,0.0,-1.8252,-1.8356,-1.8528,-1.8661,-1.8807,-1.8947,-1.915,0.0,0.0,0.0,0.0,0.0,0.0,0.0,0.0,0.0,0.0,0.0,0.0,0.0,0.0,0.0,0.0,0.0,0.0,0.0,0.0,0.0,0.0,0.0,0.0,0.0,0.0,0.0,0.0,0.0,0.0,0.0,0.0,0.0,0.0,0.0,0.0,0.0,0.0,0.0,0.0,0.0,0.0,0.0,0.0,0.0,0.0,0.0,0.0,0.0,0.0,0.0,0.0,-1.909,-1.909,-1.899,-1.8944,-1.8953,-1.8888,-1.8805,-1.8699,-1.8676,-1.8546,0.0,0.0,0.0,0.0,0.0,0.0,0.0,0.0,0.0,0.0,0.0,0.0,0.0,0.0,0.0,0.0,0.0,0.0,0.0,0.0,0.0,0.0,0.0,0.0,0.0,0.0,0.0,0.0,-1.9202,-1.915,-1.9067,0.0,0.0,0.0,0.0,0.0,0.0,0.0,0.0,0.0,0.0,-1.8316,-1.8353,-1.8413,-1.8452,-1.8545,-1.8623,-1.8716,-1.8825,-1.8948,-1.9048,-1.918,0.0,0.0,0.0,0.0,0.0,0.0,0.0,0.0,0.0,0.0,0.0,0.0,0.0,0.0,0.0,0.0,0.0,0.0,0.0,0.0,0.0,0.0,0.0,0.0,0.0,0.0,0.0,0.0,0.0,0.0,0.0,0.0,0.0,0.0,0.0,0.0,0.0,0.0,0.0,0.0,0.0,0.0,0.0,0.0,0.0,0.0,0.0,0.0,0.0,0.0,0.0,0.0,0.0,-2.0806,-2.0823,-2.0679,-2.0608,-2.0608,-2.057,-2.0506,-2.0506,-2.0471,-2.0068,-1.9299,0.0,0.0,0.0,0.0,0.0,0.0,0.0,0.0,0.0,0.0,0.0,0.0,0.0,0.0,0.0,0.0,0.0,0.0,0.0,0.0,0.0,0.0,0.0,0.0,0.0,0.0,-1.9375,-1.9402,-1.9398,0.0,0.0,0.0,0.0,0.0,0.0,0.0,0.0,0.0,0.0,-1.8789,-1.8771,-1.8789,-1.8771,-1.8807,-1.8878,-1.9001,-1.9122,-1.9204,-1.9282,-1.932,0.0,0.0,0.0,0.0,0.0,0.0,0.0,0.0,0.0,0.0,0.0,0.0,0.0,0.0,0.0,0.0,0.0,0.0,0.0,0.0,0.0,0.0,0.0,0.0,0.0,0.0,0.0,0.0,-2.0474,0.0,0.0,0.0,0.0,0.0,0.0,0.0,0.0,0.0,0.0,0.0,-2.3549,-2.362,0.0,0.0,0.0,0.0,0.0,0.0,0.0,0.0,0.0,0.0,0.0,0.0,-2.1102,-2.1102,-2.1061,-2.098,-2.0894,-2.0872,-2.0824,-2.0735,-2.0713,-2.0582,-2.0318,0.0,0.0,0.0,0.0,0.0,0.0,0.0,0.0,0.0,0.0,0.0,0.0,0.0,0.0,0.0,0.0,0.0,0.0,0.0,0.0,0.0,0.0,0.0,0.0,0.0,-1.9452,0.0,0.0,0.0,0.0,0.0,0.0,0.0,0.0,0.0,0.0,0.0,-1.9193,-1.9125,-1.9125,-1.9143,-1.92,-1.92,-1.9214,0.0,0.0,0.0,0.0,0.0,0.0,0.0,0.0,0.0,0.0,0.0,0.0,0.0,0.0,-2.4375,-2.4334,-2.3896,-2.3534,-2.3554,0.0,0.0,0.0,0.0,0.0,0.0,0.0,0.0,0.0,0.0,0.0,0.0,0.0,0.0,0.0,0.0,-2.2308,0.0,0.0,0.0,0.0,0.0,0.0,0.0,0.0,-2.4298,-2.4847,-2.5421,-2.547,-2.5808,0.0,-2.6399,-2.5241,0.0,0.0,0.0,0.0,0.0,0.0,0.0,0.0,-2.2132,-2.2093,-2.2093,-2.2031,-2.195,-2.1925,-2.186,-2.1773,-2.1484,-2.1321,-2.1326,-2.0613,-2.0243,0.0,0.0,0.0,0.0,0.0,0.0,0.0,0.0,0.0,0.0,0.0,0.0,0.0,0.0,0.0,0.0,0.0,0.0,0.0,0.0,0.0,0.0,0.0,-2.0583,0.0,0.0,0.0,0.0,0.0,0.0,0.0,0.0,0.0,-2.0457,-2.0369,-2.0383,-2.0303,-2.0317,-2.0354,-2.0367,0.0,0.0,0.0,0.0,0.0,0.0,0.0,-2.155,-2.2116,-2.2595,-2.3183,-2.4068,-2.4755,-2.5217,-2.5261,0.0,0.0,-2.5241,-2.484,-2.4495,-2.4504,-2.4051,-2.3692,-2.3716,-2.3794,-2.3804,0.0,0.0,0.0,0.0,0.0,0.0,0.0,0.0,-2.3004,-2.367,0.0,-2.3594,0.0,0.0,0.0,0.0,0.0,0.0,0.0,0.0,-2.5918,-2.641,-2.6469,-2.6573,-2.6673,-2.6691,-2.6728,-2.6673,-2.6523,-2.5597,0.0,0.0,0.0,0.0,0.0,0.0,-2.3907,-2.3889,-2.3828,-2.3786,-2.375,-2.366,-2.3634,-2.3558,-2.2764,-2.2347,-2.2316,-2.1631,-2.1292,-2.1335,-2.0492,0.0,0.0,0.0,0.0,0.0,0.0,0.0,0.0,0.0,0.0,0.0,0.0,0.0,0.0,0.0,0.0,0.0,0.0,0.0,0.0,-2.242,0.0,0.0,0.0,0.0,0.0,0.0,0.0,0.0,0.0,0.0,-2.2274,-2.2318,-2.2305,-2.219,0.0,0.0,0.0,0.0,-2.2196,-2.2164,-2.2182,-2.2192,-2.2335,-2.2394,-2.2432,-2.2508,0.0,0.0,-2.5028,-2.5192,-2.5243,-2.537,-2.5397,-2.5378,-2.5332,-2.5322,-2.5359,-2.5374,-2.5305,-2.5379,-2.5476,-2.5323,-2.537,-2.2705,0.0,0.0,0.0,0.0,-2.229,-2.2761,-2.3124,-2.377,-2.4208,-2.4425,-2.455,0.0,0.0,0.0,0.0,0.0,0.0,-2.5972,-2.6012,-2.6465,-2.6993,-2.7546,-2.7631,-2.7968,-2.8524,-2.8524,-2.8209,-2.7672,-2.7352,-2.6733,-2.5816,0.0,0.0,0.0,0.0,-2.5816,-2.5777,-2.5777,-2.5481,-2.4855,-2.4814,-2.4499,-2.3894,-2.3646,-2.3512,-2.35,-2.2759,-2.2365,-2.2351,-2.168,0.0,0.0,0.0,0.0,0.0,0.0,0.0,0.0,0.0,0.0,0.0,0.0,0.0,0.0,0.0,0.0,0.0,0.0,0.0,-2.2475,-2.2598,-2.264,0.0,0.0,0.0,0.0,0.0,0.0,0.0,0.0,0.0,-2.4447,-2.3697,-2.2983,0.0,0.0,-2.2494,-2.2493,-2.245,-2.2407,-2.2407,0.0,0.0,0.0,-2.3195,-2.3391,-2.4188,-2.4595,-2.4913,-2.5274,-2.5351,-2.5388,-2.5459,-2.5484,-2.5453,-2.5441,-2.5464,-2.5476,-2.548,-2.5476,-2.5478,-2.5479,-2.5544,-2.5568,-2.5425,-2.406,-2.3157,-2.2789,-2.2932,-2.3562,-2.4009,-2.4365,-2.5026,-2.5479,-2.5721,-2.5738,-2.584,-2.6039,-2.6014,0.0,0.0,0.0,-2.7034,-2.7053,-2.7596,-2.829,-2.9052,-2.9153,-2.9622,-3.0387,-3.0406,-3.0144,-2.9698,-2.9698,-2.9377,-2.8716,0.0,0.0,-2.6702,-2.672,-2.6702,-2.672,-2.672,-2.648,-2.5961,-2.5904,-2.5478,-2.4629,-2.4606,-2.4441,-2.4133,-2.3657,-2.3401,-2.3437,-2.2736,-2.2397,0.0,0.0,0.0,0.0,0.0,0.0,0.0,0.0,0.0,0.0,0.0,-2.1644,0.0,0.0,0.0,0.0,-2.3351,-2.3628,-2.3698,-2.3774,0.0,0.0,0.0,0.0,0.0,0.0,0.0,-2.5892,-2.566,-2.5705,-2.6378,-2.5832,-2.4949,-2.3861,-2.3688,-2.3678,-2.3675,0.0,-2.3602,-2.3572,-2.3233,-2.3298,-2.4183,-2.4243,-2.44,-2.5056,-2.5234,-2.5322,-2.5429,-2.5445,-2.5461,-2.5529,-2.555,-2.5531,-2.555,-2.5544,-2.5544,-2.5544,-2.5531,-2.5531,-2.5554,-2.5609,-2.563,-2.7956,-2.7883,-2.5573,-2.4309,-2.3937,-2.4923,-2.5497,-2.5798,-2.677,-2.7333,-2.7592,-2.7214,-2.7174,-2.7384,-2.7009,0.0,0.0,-2.7862,-2.8334,-2.8355,-2.9283,-3.0111,-3.0823,-3.0959,-3.1411,-3.2127,-3.2127,-3.2127,-3.2089,-3.2108,-3.2127,-3.2032,-2.8952,-2.7308,-2.7214,-2.7158,-2.7121,-2.7121,-2.7139,-2.7084,-2.7028,-2.6916,-2.6469,-2.5653,-2.5634,-2.5281,-2.4579,-2.4539,-2.4535,-2.4517,-2.381,-2.3481,-2.3577,0.0,0.0,0.0,0.0,0.0,0.0,0.0,0.0,0.0,0.0,0.0,0.0,0.0,0.0,0.0,-2.4802,0.0,-2.5495,-2.5565,0.0,0.0,0.0,-2.5712,-2.5718,-2.5723,-2.6046,-2.6894,0.0,0.0,-2.7994,0.0,-2.7692,-2.5797,-2.5539,-2.5514,-2.5524,-2.5514,-2.5494,-2.5435,-2.5222,-2.5175,-2.534,-2.5302,-2.5236,-2.529,-2.5374,-2.5434,-2.5492,-2.5506,-2.5538,-2.5582,-2.5599,-2.5609,-2.561,-2.5619,-2.56,-2.5595,-2.5609,-2.5595,-2.56,-2.5652,-2.5703,-3.0559,-3.0281,-2.9286,-2.8283,-2.7481,-2.8026,-2.8408,-2.8729,-2.9211,-2.9532,-2.9697,-2.979,-2.9999,-3.0228,-3.0325,-3.0351,-3.0392,-3.0857,-3.1057,-3.1057,-3.1447,-3.1732,-3.1902,-3.2014,-3.2145,-3.2315,-3.2334,-3.2352,-3.2405,-3.2424,-3.2422,-3.2438,-3.1644,-3.0823,-2.9964,-2.9345,-2.9027,-2.9027,-2.9045,-2.8708,-2.8052,-2.7434,-2.7022,-2.6817,-2.6793,-2.6718,-2.6517,-2.6514,-2.623,-2.5665,-2.549,-2.5156,-2.4582,-2.386,0.0,0.0,0.0,0.0,0.0,0.0,0.0,0.0,0.0,-2.3812,-2.452,0.0,-2.4735,0.0,-2.529,-2.5732,-2.6391,-2.6526,0.0,0.0,-2.756,-2.7565,-2.7556,-2.7556,-2.7643,-2.7862,-2.7706,-2.7749,-2.8232,-2.939,-2.9382,-2.7259,-2.7213,-2.7396,-2.7376,-2.7379,-2.7352,-2.719,-2.616,-2.5524,-2.6178,-2.5846,-2.5484,-2.5464,-2.5466,-2.5512,-2.5565,-2.5571,-2.5581,-2.56,-2.5609,-2.5632,-2.566,-2.5679,-2.5679,-2.5683,-2.5679,-2.5679,-2.5687,-2.5691,-2.5697,-3.2638,-3.2505,-3.232,-3.1789,-3.0957,-3.0058,-2.9758,-2.9986,-3.03,-3.0523,-3.0718,-3.1029,-3.1214,-3.1391,-3.1672,-3.1782,-3.1805,-3.2021,-3.2123,-3.2162,-3.2335,-3.2615,-3.2956,-3.308,-3.3304,-3.3646,-3.3646,-3.3682,-3.3751,-3.3751,-3.3767,-3.3796,-3.3433,-3.295,-3.2307,-3.1407,-3.092,-3.0902,-3.0544,-2.994,-2.9074,-2.8638,-2.8242,-2.79,-2.7878,-2.7689,-2.7371,-2.733,-2.7135,-2.6748,-2.674,-2.6583,-2.62,-2.5795,-2.5614,0.0,0.0,0.0,0.0,0.0,0.0,0.0,0.0,0.0,0.0,0.0,-2.6583,0.0,-2.6687,0.0,-2.7371,-2.7483,-2.771,-2.8205,-2.8236,-2.824,-2.8232,-2.8223,-2.8385,-2.8784,-2.8488,-2.855,-2.9357,-3.0259,-3.0392,-2.9068,-2.9148,-2.9102,-2.8573,-2.8235,-2.8046,-2.7978,-2.7179,-2.6707,-2.7314,-2.7006,-2.6424,-2.5757,-2.5857,-2.6033,-2.5702,-2.5648,-2.5648,-2.5644,-2.5632,-2.5655,-2.5701,-2.5697,-2.5701,-2.5698,-2.5705,-2.5701,-2.5704,-2.5704,-2.5687,-3.438,-3.4498,-3.4689,-3.4553,-3.3975,-3.1799,-3.0823,-3.0688,-3.0962,-3.1219,-3.1498,-3.1826,-3.1964,-3.1987,-3.2232,-3.2358,-3.2379,-3.258,-3.2675,-3.2675,-3.287,-3.3315,-3.3982,-3.414,-3.4592,-3.5376,-3.5395,-3.5487,-3.5649,-3.5649,-3.5661,-3.5633,-3.4971,-3.4553,-3.4438,-3.3528,-3.2863,-3.2438,-3.1773,-3.1035,-3.0278,-3.0165,-2.9747,-2.9099,-2.8947,-2.8567,-2.7884,-2.7852,-2.7818,-2.7769,-2.7784,-2.7771,-2.77,-2.7783,-2.7893,0.0,-2.8017,0.0,0.0,0.0,0.0,0.0,0.0,0.0,0.0,-2.8067,-2.8145,-2.8199,-2.8205,-2.8255,-2.8356,-2.8424,-2.8508,-2.8605,-2.8628,-2.863,-2.8641,-2.8642,-2.8938,-2.9686,-2.91,-2.9236,-3.0604,-3.0915,-3.0874,-3.0673,-3.064,-3.0326,-2.9498,-2.8904,-2.859,-2.8437,-2.8339,-2.8262,-2.8474,-2.8329,-2.762,-2.6383,-2.6435,-2.6646,-2.6026,-2.5788,-2.5691,-2.5687,-2.5696,-2.5698,-2.5698,-2.5698,-2.5705,-2.5699,-2.5702,-2.5702,-2.5689,-2.5701,-2.5744,-3.5678,-3.5954,-3.5504,-3.5397,-3.5395,-3.515,-3.4175,-3.2751,-3.2962,-3.3214,-3.3486,-3.3757,-3.385,-3.3892,-3.4153,-3.4276,-3.4276,-3.4472,-3.4564,-3.4582,-3.4718,-3.4875,-3.5021,-3.5105,-3.5571,-3.6383,-3.6402,-3.6781,-3.7497,-3.7558,-3.7604,-3.763,-3.7513,-3.7076,-3.6395,0.0,0.0,0.0,-3.2584,-3.2401,-3.2161,-3.1493,-3.1054,-3.0882,-3.0252,0.0,-2.9718,-2.9688,-2.9385,-2.8791,-2.8783,0.0,0.0,0.0,0.0,0.0,0.0,0.0,0.0,0.0,0.0,0.0,-2.9063,-2.8731,-2.8212,-2.817,-2.8223,-2.8293,-2.8277,-2.8572,-2.9255,-2.9334,-2.9608,-3.0233,-3.037,-3.0409,-3.039,-3.041,-3.0487,-3.0604,-3.0486,-3.0525,-3.0878,-3.0917,-3.0937,-3.0996,-3.0897,-3.0792,-3.0569,-3.0342,-3.0268,-3.0244,-2.964,-2.9523,-3.0224,-2.9124,-2.8256,-2.7706,-2.7218,-2.6994,-2.6763,-2.6136,-2.574,-2.5737,-2.5702,-2.5702,-2.5702,-2.5702,-2.5702,-2.5703,-2.5703,-2.5702,-2.5703,-2.5702,-2.5917,-3.7041,0.0,-3.7134,-3.6924,0.0,-3.6952,-3.6279,-3.5036,-3.4659,-3.4378,-3.4221,-3.4473,-3.4602,-3.4623,-3.481,-3.4927,-3.4984,-3.5529,-3.5806,-3.5876,-3.6393,-3.6642,-3.6632,-3.6694,-3.6966,-3.743,-3.743,-3.7668,-3.8073,-3.8124,-3.8187,-3.8252,-3.8246,-3.8044,-3.7596,-3.7626,-3.6284,-3.3564,-3.3551,-3.3327,-3.2864,-3.2423,-3.2173,-3.2127,0.0,0.0,0.0,0.0,0.0,0.0,0.0,0.0,0.0,0.0,0.0,-3.1034,-3.0833,-3.0675,-3.0706,-3.0739,-3.0954,-3.1379,-3.144,-3.0878,-2.9593,-2.9507,-2.9531,-2.955,-2.9546,-2.9716,-3.0126,-3.0574,-3.1003,-3.1413,-3.1862,-3.2116,-3.2135,-3.2131,-3.2129,-3.2109,-3.1899,-3.1825,-3.2118,-3.2432,-3.2412,-3.2198,-3.2143,-3.2089,-3.2011,-3.1331,-3.0794,-3.0782,-3.049,-3.0283,-3.0645,-3.0186,-2.9277,-2.8949,-2.8563,-2.8136,-2.7708,-2.6906,-2.6324,-2.6308,-2.5995,-2.5699,-2.5696,-2.5696,-2.5694,-2.5694,-2.5691,-2.5707,-2.5691,-2.5697,-2.5952,-3.8401,-3.8561,-3.867,-3.8438,-3.8044,-3.817,-3.7841,-3.7141,0.0,0.0,0.0,-3.5183,-3.5283,-3.5303,-3.5457,-3.5529,-3.564,-3.6392,-3.6779,-3.6876,-3.7661,-3.8012,-3.8047,-3.8093,-3.8228,-3.8438,-3.8438,-3.8501,-3.8662,-3.867,-3.8711,-3.8772,-3.8772,-3.8693,-3.8557,-3.8458,-3.7316,-3.5154,-3.487,-3.4334,-3.35,-3.3327,-3.3219,-3.3157,-3.3022,-3.2976,-3.3018,-3.2345,-3.2318,-3.3045,-3.2492,-3.2527,-3.3308,-3.3342,-3.3375,-3.3484,-3.337,-3.3351,-3.3384,-3.3378,-3.3394,-3.3379,-3.339,-3.2797,-3.134,-3.1301,-3.1319,-3.1257,-3.124,-3.1266,-3.1266,-3.1886,-3.2335,-3.2335,-3.2978,-3.3368,-3.3368,-3.3388,-3.3314,-3.3353,-3.3051,-3.3002,-3.3295,-3.3821,-3.4056,-3.3529,-3.3258,-3.3378,-3.3195,-3.203,-3.104,-3.0858,-3.0721,-3.0762,-3.0793,-3.0779,-3.0527,-2.9921,-2.9667,-2.9334,-2.8631,-2.7811,-2.7303,-2.7244,-2.6513,-2.6054,-2.5927,-2.5807,-2.5707,-2.569,-2.5707,-2.5701,-2.5701,-2.5693,-2.6049,-3.9706,-3.9893,-3.9352,-3.9163,-3.9283,-3.9387,-3.9078,-3.8357,-3.7451,-3.6974,-3.689,-3.7109,-3.7205,-3.7224,-3.7351,-3.7419,-3.7436,-3.7682,-3.7786,0.0,-3.802,-3.8125,-3.8168,-3.8168,-3.8609,-3.9362,-3.94,-3.9769,-4.0361,-4.0469,-4.0528,-4.051,-4.0585,-4.0229,-3.9512,-3.8818,-3.8293,-3.7891,-3.7081,-3.6193,-3.533,-3.4584,-3.4197,-3.4168,-3.3538,-3.316,-3.316,-3.3061,-3.3067,-3.3169,-3.3128,-3.3388,-3.399,-3.3662,-3.3634,-3.4087,-3.3679,-3.3387,-3.3393,-3.3379,-3.3392,-3.3379,-3.3395,-3.3273,-3.3064,-3.306,-3.3037,-3.3017,-3.2959,-3.3041,-3.3037,-3.3134,-3.3208,-3.3232,-3.3329,-3.3407,-3.3485,-3.3485,-3.3505,-3.3524,-3.3762,-3.3805,-3.3645,-3.3961,-3.4137,-3.359,-3.3672,-3.3457,-3.3328,-3.2572,-3.168,-3.1074,-3.084,-3.0839,-3.0859,-3.0879,-3.0757,-3.0677,-3.0049,-2.964,-2.9406,-2.8723,-2.8212,-2.8129,-2.7407,-2.6897,-2.6799,-2.6191,-2.5915,-2.586,-2.5879,-2.5798,-2.5834,-2.5853,-2.6337,-4.0987,-4.1147,-4.0926,-4.0647,-4.0344,-4.0044,-3.9792,-3.9547,-3.9166,-3.8423,-3.7566,-3.7659,-3.7712,-3.7712,-3.7814,-3.7878,-3.7932,-3.8469,-3.8719,-3.8799,-3.9277,-3.956,-3.9596,-3.9619,-3.9846,-4.0285,-4.0306,-4.051,-4.0878,-4.0946,-4.0966,-4.0963,-4.0984,-4.0818,-4.046,-4.009,-3.9686,-3.9179,-3.8299,-3.7362,-3.6484,-3.6075,-3.5648,-3.5185,-3.4785,-3.4618,-3.4644,-3.4204,-3.4172,-3.4646,-3.4263,-3.4378,-3.5071,-3.4913,-3.4934,-3.5193,-3.4974,-3.4804,-3.4823,-3.4769,-3.4761,-3.4754,-3.4753,-3.4742,-3.4773,-3.4194,-3.3707,-3.3409,-3.3604,-3.3662,-3.3404,-3.3779,-3.4052,-3.4052,-3.4461,-3.4753,-3.4753,-3.4773,-3.4753,-3.4773,-3.4959,-3.5017,-3.4783,-3.4969,-3.5071,-3.4793,-3.4759,-3.4584,-3.4126,-3.3723,-3.2826,-3.1346,-3.1235,-3.1255,-3.096,-3.0841,-3.0833,-3.0801,-3.0505,-3.0267,-3.0186,-2.9811,-2.9496,-2.9,-2.826,-2.7729,-2.7632,-2.7102,-2.6825,-2.6976,-2.6747,-2.6606,-2.6606,-2.7026,-2.779,-4.2216,-4.2379,-4.2313,-4.1977,-4.1466,-4.0979,-4.0843,-4.0914,-4.0987,-4.0221,-3.9004,-3.8597,-3.8438,-3.8438,-3.8481,-3.8527,-3.8671,-3.9306,-3.9656,-3.9767,-4.0404,-4.0769,-4.0823,-4.0826,-4.0848,-4.0898,-4.0907,-4.0945,-4.0991,-4.0982,-4.1027,-4.1006,-4.1026,-4.105,-4.1115,-4.1115,-4.0764,-4.0082,-3.9433,-3.8561,-3.7461,-3.7422,-3.7085,-3.6475,-3.6397,-3.6417,-3.6448,-3.583,-3.5791,-3.6406,-3.5899,-3.5752,-3.6181,-3.6274,-3.6209,-3.6035,-3.6015,-3.5989,-3.5977,-3.5938,-3.5883,-3.5897,-3.6073,-3.6177,-3.6105,-3.556,-3.475,-3.4075,-3.4283,-3.4354,-3.4095,-3.4464,-3.4873,-3.4911,-3.5456,-3.5774,-3.5872,-3.5872,-3.5872,-3.5878,-3.5892,-3.5866,-3.5885,-3.5891,-3.5819,-3.58,-3.5897,-3.5605,-3.504,-3.4878,-3.3969,-3.2757,-3.2244,-3.2136,-3.146,-3.1231,-3.1153,-3.1059,-3.0903,-3.0739,-3.0696,-3.073,-3.0555,-2.982,-2.9065,-2.8554,-2.8432,-2.7974,-2.7754,-2.7929,-2.8026,-2.7987,-2.7587,-2.8487,-2.9316,-4.341,-4.3426,-4.287,-4.2658,-4.2717,-4.2766,-4.2755,-4.2768,-4.2842,-4.2819,-4.2356,-4.1035,-4.0342,-4.0342,-4.0347,-4.0361,-4.0376,-4.052,-4.0584,-4.0616,-4.0734,-4.0818,-4.0974,-4.0936,-4.0908,-4.1032,-4.106,-4.1155,-4.1151,-4.1103,-4.1064,-4.1096,-4.1106,-4.1111,-4.1124,-4.112,-4.1046,-4.0987,-4.0884,-4.004,-3.8482,-3.8365,-3.8346,-3.8268,-3.8229,-3.8268,-3.8155,-3.819,-3.8167,-3.8246,-3.8137,-3.7809,-3.7265,-3.7168,-3.6834,-3.6106,-3.6046,-3.5977,-3.5938,-3.5883,-3.5957,-3.5944,-3.6608,-3.6992,-3.7031,-3.7511,-3.7229,-3.599,-3.5624,-3.5648,-3.5566,-3.5682,-3.5779,-3.5818,-3.5896,-3.5799,-3.5943,-3.5795,-3.5791,-3.5811,-3.6059,-3.5905,-3.6093,-3.5976,-3.5885,-3.5878,-3.5859,-3.584,-3.5684,-3.5573,-3.5507,-3.4957,-3.4205,-3.3253,-3.2903,-3.2416,-3.1982,-3.1816,-3.1237,-3.0862,-3.0734,-3.0709,-3.0631,-3.0366,-2.9881,-2.9318,-2.9143,-2.8702,-2.8216,-2.8566,-2.9123,-2.9791,-2.8766,-2.9336,-3.0277,-4.4558,-4.4685,-4.4402,-4.4057,-4.3753,-4.3385,-4.3217,-4.3211,-4.322,-4.3239,-4.3201,-4.255,-4.2209,-4.2163,-4.217,-4.2202,-4.2202,-4.2272,-4.2303,-4.2284,-4.233,-4.2363,-4.2451,-4.2442,-4.247,-4.2525,-4.2533,-4.2537,-4.2558,-4.259,-4.2598,-4.2561,-4.2119,-4.1855,-4.1836,-4.1355,-4.1105,-4.111,-4.1112,-4.0741,-4.0076,-3.9564,-3.9074,-3.8625,-3.8547,-3.8547,-3.8567,-3.8549,-3.8532,-3.8515,-3.8515,-3.8353,-3.8046,-3.8001,-3.7874,-3.7507,-3.7439,-3.7416,-3.7378,-3.7389,-3.7358,-3.7342,-3.7617,-3.7812,-3.7812,-3.8093,-3.7917,-3.7395,-3.7269,-3.7278,-3.7269,-3.7288,-3.7288,-3.7288,-3.7269,-3.725,-3.7288,-3.7259,-3.7278,-3.7287,-3.7296,-3.7277,-3.7141,-3.6442,-3.5899,-3.5782,-3.581,-3.5888,-3.5791,-3.5763,-3.5735,-3.5657,-3.5111,-3.4474,-3.3867,-3.3174,-3.261,-3.202,-3.13,-3.075,-3.0743,-3.0658,-3.0651,-3.0637,-3.0292,-3.0064,-3.0118,-2.9928,-2.9602,-2.9676,-2.978,-3.0343,-2.9718,-3.0161,-3.0583,-4.5292,-4.5457,-4.5509,-4.5244,-4.4771,-4.4273,-4.4027,-4.4047,-4.4032,-4.4032,-4.4034,-4.4095,-4.4098,-4.3947,-4.3548,-4.3323,-4.3342,-4.3366,-4.3408,-4.3419,-4.3421,-4.3452,-4.352,-4.3529,-4.3556,-4.358,-4.3583,-4.3578,-4.3623,-4.3665,-4.3708,-4.3606,-4.3063,-4.2759,-4.2673,-4.1894,-4.1463,-4.1422,-4.1245,-4.1105,-4.1001,-4.0539,-3.9935,-3.9349,-3.9291,-3.9291,-3.9291,-3.9293,-3.9273,-3.9205,-3.9231,-3.9095,-3.8863,-3.8828,-3.8714,-3.8514,-3.8435,-3.84,-3.8377,-3.8382,-3.8346,-3.8307,-3.847,-3.8604,-3.8612,-3.8744,-3.8844,-3.8851,-3.8907,-3.8814,-3.8283,-3.8252,-3.8233,-3.8252,-3.8233,-3.8233,-3.8214,-3.8263,-3.8186,-3.8244,-3.81,-3.8285,-3.81,-3.7257,-3.654,-3.6512,-3.6454,-3.6241,-3.6066,-3.6047,-3.5989,-3.5737,-3.5669,-3.534,-3.4592,-3.3968,-3.3308,-3.2784,-3.2078,-3.1429,-3.1111,-3.0986,-3.0687,-3.0737,-3.0643,-3.0537,-3.0421,-3.046,-3.049,-3.0548,-3.0576,-3.0576,-3.0365,-3.0548,-3.0557,-4.5477,-4.5632,-4.5808,-4.5873,-4.5828,-4.5789,-4.5822,-4.5695,-4.5802,-4.5828,-4.5755,-4.5841,-4.5949,-4.5745,-4.4236,-4.3443,-4.3455,-4.3535,-4.3606,-4.3646,-4.3608,-4.3558,-4.3603,-4.3603,-4.3666,-4.3838,-4.3858,-4.3824,-4.3836,-4.3782,-4.3712,-4.3726,-4.3688,-4.3652,-4.3535,-4.2789,-4.2329,-4.2284,-4.1651,-4.1178,-4.113,-4.1091,-4.0998,-4.0866,-4.0944,-4.0871,-4.091,-4.0945,-4.0945,-4.095,-4.087,-4.0565,-3.9836,-3.9701,-3.9298,-3.861,-3.8488,-3.8432,-3.8423,-3.8462,-3.8412,-3.8399,-3.9042,-3.9405,-3.9399,-3.9895,-4.0235,-4.0428,-4.0293,-3.9753,-3.8543,-3.844,-3.8357,-3.8305,-3.8209,-3.8247,-3.8209,-3.8402,-3.8138,-3.8247,-3.8407,-3.8438,-3.8303,-3.8187,-3.7974,-3.7916,-3.7974,-3.7723,-3.7038,-3.6841,-3.652,-3.596,-3.5717,-3.5612,-3.5505,-3.4894,-3.4458,-3.3906,-3.3151,-3.2638,-3.2174,-3.1729,-3.1284,-3.0868,-3.0791,-3.0704,-3.0578,-3.051,-3.0491,-3.053,-3.0578,-3.0578,-3.053,-3.0501,-3.0511,-4.6954,-4.6636,-4.6736,-4.6499,-4.6035,-4.6056,-4.6047,-4.6056,-4.6075,-4.6066,-4.6066,-4.6095,-4.6102,-4.6076,-4.5444,-4.5133,-4.5133,-4.5123,-4.5153,-4.5161,-4.5161,-4.5198,-4.5262,-4.5278,-4.5253,-4.5261,-4.5273,-4.5304,-4.5362,-4.5363,-4.536,-4.523,-4.4804,-4.4528,-4.4374,-4.3661,-4.322,-4.3197,-4.2885,-4.2476,-4.1914,-4.1855,-4.1616,-4.1078,-4.1081,-4.1111,-4.11,-4.1105,-4.1081,-4.1052,-4.1039,-4.087,-4.0536,-4.0485,-4.0353,-4.0053,-3.9955,-3.9904,-3.9832,-3.9828,-3.9811,-3.9754,-4.0011,-4.0171,-4.0216,-4.0386,-4.0534,-4.0534,-4.0489,-4.0111,-3.9838,-3.9649,-3.97,-3.97,-3.9681,-3.9609,-3.9681,-3.9695,-3.9695,-3.9695,-3.9708,-3.9554,-3.9071,-3.8975,-3.8743,-3.826,-3.8164,-3.8029,-3.7797,-3.7668,-3.736,-3.6626,-3.6363,-3.6183,-3.5651,-3.545,-3.5082,-3.4511,-3.3901,-3.3388,-3.2924,-3.2654,-3.2246,-3.157,-3.129,-3.102,-3.0951,-3.0527,-3.0516,-3.0488,-3.0527,-3.0535,-3.0528,-3.0449,-3.046,-4.8037,-4.7697,-4.7709,-4.7456,-4.6958,-4.6964,-4.698,-4.698,-4.698,-4.6972,-4.6964,-4.6964,-4.698,-4.6968,-4.6956,-4.6975,-4.6886,-4.6413,-4.6113,-4.6149,-4.6422,-4.6575,-4.6617,-4.6638,-4.6632,-4.6552,-4.6333,-4.6269,-4.6303,-4.6301,-4.6288,-4.623,-4.5681,-4.5434,-4.528,-4.4529,-4.4089,-4.4058,-4.3824,-4.3312,-4.2786,-4.2708,-4.2461,-4.1933,-4.1857,-4.1598,-4.111,-4.105,-4.1006,-4.0979,-4.0964,-4.0941,-4.0878,-4.0868,-4.0856,-4.0846,-4.0781,-4.0732,-4.0688,-4.0681,-4.0621,-4.0559,-4.0559,-4.0545,-4.0534,-4.0508,-4.0476,-4.0444,-4.043,-4.0398,-4.0432,-4.0457,-4.0534,-4.0534,-4.0534,-4.0534,-4.0534,-4.0515,-4.0496,-4.0472,-4.0453,-4.026,-3.9914,-3.9798,-3.9495,-3.8883,-3.8845,-3.8787,-3.8498,-3.8402,-3.8132,-3.7343,-3.7156,-3.6771,-3.6298,-3.5971,-3.5605,-3.5065,-3.4667,-3.4154,-3.3711,-3.3467,-3.3063,-3.2358,-3.1877,-3.1569,-3.1176,-3.0714,-3.054,-3.0513,-3.0452,-3.0467,-3.0421,-3.0394,-3.051,-4.8588,-4.8604,-4.8666,-4.8624,-4.8483,-4.8509,-4.8703,-4.8599,-4.8625,-4.8509,-4.8431,-4.8633,-4.8496,-4.8658,-4.8483,-4.8665,-4.8295,-4.7038,-4.6427,-4.6524,-4.7163,-4.7489,-4.7509,-4.7501,-4.7518,-4.7474,-4.6765,-4.6395,-4.6425,-4.6426,-4.6404,-4.6319,-4.6238,-4.6123,-4.6236,-4.5331,-4.4904,-4.4793,-4.4226,-4.3755,-4.3622,-4.3594,-4.3489,-4.3345,-4.3306,-4.2624,-4.1221,-4.1093,-4.1151,-4.1099,-4.1062,-4.0923,-4.1039,-4.1044,-4.0873,-4.0945,-4.0829,-4.0764,-4.0756,-4.08,-4.0819,-4.0658,-4.0566,-4.0572,-4.043,-4.0413,-4.0396,-4.0396,-4.0379,-4.0417,-4.0398,-4.0415,-4.0432,-4.0415,-4.0413,-4.0432,-4.0413,-4.0415,-4.0432,-4.0482,-4.0518,-4.0502,-4.0482,-4.0364,-4.0213,-4.0142,-4.0106,-3.9893,-3.9279,-3.9144,-3.8764,-3.815,-3.7878,-3.7621,-3.7072,-3.6558,-3.6118,-3.5694,-3.5345,-3.4927,-3.4447,-3.412,-3.3755,-3.3127,-3.2532,-3.2186,-3.1706,-3.1245,-3.081,-3.0714,-3.0606,-3.0721,-3.0957,-3.1053,-3.0829,-5.0003,-4.9573,-4.9578,-4.925,-4.8808,-4.88,-4.8806,-4.8806,-4.8806,-4.88,-4.88,-4.8794,-4.8794,-4.8808,-4.8808,-4.8808,-4.8736,-4.8176,-4.7975,-4.8041,-4.8281,-4.8379,-4.8404,-4.8396,-4.8439,-4.8421,-4.8236,-4.7753,-4.7285,-4.7174,-4.6921,-4.6405,-4.6259,-4.6222,-4.6196,-4.5884,-4.5726,-4.569,-4.5471,-4.5055,-4.4501,-4.4384,-4.4072,-4.3497,-4.3419,-4.3098,-4.2613,-4.2615,-4.2615,-4.2576,-4.2576,-4.251,-4.2447,-4.2452,-4.2463,-4.243,-4.2352,-4.2268,-4.2252,-4.2165,-4.1865,-4.1483,-4.133,-4.0987,-4.0492,-4.0419,-4.0401,-4.0382,-4.0327,-4.0328,-4.0347,-4.0328,-4.0364,-4.0398,-4.0398,-4.0398,-4.0398,-4.0398,-4.0415,-4.0432,-4.0432,-4.0432,-4.0432,-4.0432,-4.0396,-4.0379,-4.0398,-4.0187,-4.0034,-3.9881,-3.9668,-3.892,-3.8747,-3.8424,-3.7811,-3.722,-3.6738,-3.6151,-3.5733,-3.5335,-3.4932,-3.4683,-3.4304,-3.3882,-3.3307,-3.2757,-3.2278,-3.1747,-3.1292,-3.1211,-3.1287,-3.155,-3.1889,-3.1985,-3.1933,-5.0909,-5.0482,-5.0504,-5.0238,-4.9786,-4.9752,-4.9752,-4.9772,-4.9752,-4.9777,-4.9777,-4.9772,-4.9767,-4.9761,-4.9757,-4.9763,-4.9786,-4.9766,-4.9766,-4.9674,-4.9377,-4.9293,-4.9284,-4.9286,-4.9109,-4.8924,-4.8866,-4.8588,-4.8057,-4.7713,-4.7279,-4.6786,-4.6391,-4.6196,-4.6142,-4.6091,-4.6065,-4.6066,-4.5998,-4.5753,-4.5323,-4.5165,-4.4878,-4.4376,-4.4305,-4.426,-4.4194,-4.4238,-4.3959,-4.3479,-4.3274,-4.3245,-4.3221,-4.3119,-4.3127,-4.3111,-4.3028,-4.2939,-4.296,-4.2829,-4.2698,-4.2219,-4.2104,-4.1913,-4.1416,-4.1246,-4.1227,-4.1227,-4.096,-4.075,-4.0731,-4.0444,-4.0348,-4.0345,-4.0364,-4.0363,-4.0363,-4.0382,-4.0363,-4.0362,-4.0342,-4.0362,-4.0362,-4.0362,-4.0344,-4.0363,-4.0363,-4.0363,-4.0363,-4.0326,-3.9942,-3.9674,-3.958,-3.9101,-3.8431,-3.7879,-3.7383,-3.6692,-3.6004,-3.5541,-3.5082,-3.5044,-3.4833,-3.4442,-3.3945,-3.3455,-3.2978,-3.2218,-3.1707,-3.1851,-3.2187,-3.2626,-3.3085,-3.3478,-3.3387,-5.1304,-5.1308,-5.1361,-5.1299,-5.1245,-5.1234,-5.1195,-5.1316,-5.1277,-5.1215,-5.1254,-5.1147,-5.124,-5.1313,-5.1107,-5.1113,-5.1342,-5.1176,-5.1105,-5.0969,-5.0532,-5.0176,-5.0165,-5.0171,-4.9863,-4.9333,-4.9179,-4.9025,-4.8835,-4.8229,-4.7587,-4.7522,-4.6773,-4.6279,-4.6258,-4.6095,-4.5997,-4.5986,-4.5941,-4.5866,-4.5815,-4.5809,-4.575,-4.5645,-4.5617,-4.5553,-4.5445,-4.541,-4.4832,-4.3593,-4.3543,-4.3586,-4.3378,-4.3214,-4.3319,-4.3376,-4.3116,-4.3195,-4.31,-4.3311,-4.3139,-4.291,-4.2852,-4.2814,-4.2584,-4.243,-4.243,-4.243,-4.1934,-4.1552,-4.1418,-4.1036,-4.0635,-4.0406,-4.0387,-4.031,-4.031,-4.031,-4.031,-4.0327,-4.0326,-4.0326,-4.0326,-4.0326,-4.0309,-4.031,-4.031,-4.0329,-4.0329,-4.0329,-4.0291,-4.0177,-4.0024,-3.9738,-3.9088,-3.8516,-3.8039,-3.76,-3.678,-3.611,-3.5422,-3.5308,-3.5193,-3.4835,-3.4535,-3.4099,-3.3739,-3.3111,-3.2825,-3.3032,-3.3429,-3.3868,-3.4151,-3.4394,-3.4337,-5.1339,-5.1362,-5.1391,-5.1381,-5.139,-5.1394,-5.1414,-5.1414,-5.1433,-5.1531,-5.1433,-5.139,-5.1507,-5.141,-5.1445,-5.1386,-5.1488,-5.1476,-5.1391,-5.1364,-5.1208,-5.1071,-5.1052,-5.1054,-5.0928,-5.0668,-5.0528,-5.0348,-4.9724,-4.9347,-4.8916,-4.828,-4.7466,-4.7018,-4.6929,-4.6333,-4.5968,-4.5912,-4.5854,-4.5814,-4.5819,-4.5776,-4.5746,-4.5727,-4.5731,-4.5684,-4.5618,-4.5531,-4.5417,-4.5068,-4.4968,-4.4913,-4.4725,-4.4689,-4.4613,-4.4632,-4.4672,-4.469,-4.4671,-4.4612,-4.4325,-4.3769,-4.3633,-4.3344,-4.2752,-4.2692,-4.2671,-4.2633,-4.2404,-4.2328,-4.229,-4.2081,-4.17,-4.1169,-4.075,-4.0406,-4.0329,-4.0329,-4.031,-4.0329,-4.031,-4.031,-4.031,-4.031,-4.031,-4.031,-4.0291,-4.0291,-4.0291,-4.0291,-4.0253,-4.0215,-4.012,-4.0062,-3.9738,-3.9166,-3.8709,-3.8423,-3.7738,-3.6899,-3.6137,-3.5489,-3.5299,-3.4996,-3.4845,-3.4504,-3.4636,-3.4445,-3.4426,-3.4067,-3.4276,-3.4522,-3.4655,-3.4861,-3.4823,-5.1888,-5.1985,-5.2333,-5.2503,-5.2487,-5.2487,-5.2491,-5.2498,-5.2482,-5.2501,-5.2498,-5.2491,-5.2487,-5.2487,-5.2507,-5.2514,-5.2482,-5.2497,-5.25,-5.25,-5.2533,-5.2119,-5.1589,-5.1389,-5.1386,-5.1362,-5.1349,-5.1035,-5.0525,-5.0177,-4.9644,-4.9099,-4.825,-4.7816,-4.7721,-4.6888,-4.6383,-4.6297,-4.6003,-4.5761,-4.5746,-4.5684,-4.5651,-4.5635,-4.5618,-4.5547,-4.5513,-4.5438,-4.5458,-4.5496,-4.5495,-4.5457,-4.5419,-4.5419,-4.5419,-4.5419,-4.5339,-4.5279,-4.5297,-4.5235,-4.5004,-4.4562,-4.4426,-4.4195,-4.3852,-4.3656,-4.3656,-4.3713,-4.3352,-4.3142,-4.3047,-4.2819,-4.24,-4.1966,-4.151,-4.0997,-4.0425,-4.0329,-4.0329,-4.0329,-4.0329,-4.031,-4.031,-4.0291,-4.0253,-4.0253,-4.0215,-4.0215,-4.0215,-4.0215,-4.0215,-4.0176,-4.0157,-4.008,-4.0021,-3.9603,-3.9354,-3.9087,-3.8421,-3.7623,-3.673,-3.5855,-3.5304,-3.5095,-3.5058,-3.5039,-3.5039,-3.502,-3.4831,-3.4641,-3.4887,-3.4925,-3.4982,-3.4982,-3.4982,-5.2786,-5.2902,-5.3669,-5.399,-5.3912,-5.3975,-5.381,-5.3939,-5.3822,-5.3841,-5.3839,-5.3927,-5.3725,-5.3994,-5.3663,-5.3888,-5.3885,-5.3722,-5.3818,-5.3757,-5.3663,-5.3122,-5.2024,-5.1757,-5.1655,-5.1534,-5.139,-5.1256,-5.0996,-5.0393,-5.0098,-4.978,-4.9065,-4.8625,-4.8377,-4.7657,-4.7221,-4.6947,-4.6317,-4.5976,-4.5883,-4.5717,-4.5586,-4.5549,-4.5476,-4.5438,-4.5419,-4.5381,-4.54,-4.5381,-4.54,-4.5419,-4.54,-4.5399,-4.5398,-4.5338,-4.5256,-4.5192,-4.5192,-4.5148,-4.5106,-4.5011,-4.5007,-4.5103,-4.4871,-4.4775,-4.4772,-4.4734,-4.4338,-4.3973,-4.3802,-4.3254,-4.2854,-4.2664,-4.2626,-4.1871,-4.0921,-4.0463,-4.0368,-4.0272,-4.0291,-4.0272,-4.0253,-4.0234,-4.0196,-4.0195,-4.0157,-4.0157,-4.0137,-4.0157,-4.0137,-4.0117,-4.0077,-4.0077,-4.0077,-4.0,-3.9884,-3.9692,-3.895,-3.8134,-3.7185,-3.635,-3.5514,-3.5078,-3.5002,-3.4964,-3.4964,-3.4927,-3.4927,-3.4908,-3.4908,-3.4908,-3.4927,-3.4927,-3.4908,-5.3624,-5.3682,-5.3904,-5.399,-5.3994,-5.3988,-5.4017,-5.4043,-5.4043,-5.4141,-5.4023,-5.4023,-5.4074,-5.4057,-5.4161,-5.398,-5.415,-5.4131,-5.399,-5.3996,-5.3949,-5.3806,-5.3206,-5.2777,-5.2333,-5.2143,-5.1541,-5.1238,-5.1089,-5.0957,-5.0778,-5.0521,-4.9868,-4.9363,-4.9164,-4.8472,-4.7979,-4.7736,-4.7026,-4.6586,-4.6377,-4.5898,-4.5611,-4.5592,-4.5496,-4.5418,-4.5399,-4.5339,-4.5298,-4.5277,-4.5319,-4.536,-4.5319,-4.5277,-4.5235,-4.5254,-4.517,-4.5125,-4.5106,-4.5103,-4.5103,-4.508,-4.5038,-4.5014,-4.5014,-4.4967,-4.4962,-4.4924,-4.4773,-4.4602,-4.4507,-4.3919,-4.3582,-4.3434,-4.3038,-4.2528,-4.2058,-4.1489,-4.0938,-4.0461,-4.029,-4.0156,-4.0194,-4.0232,-4.0213,-4.0136,-4.0117,-4.0096,-4.0096,-4.0096,-4.0057,-4.0036,-4.0036,-4.0015,-3.9975,-3.9994,-3.9975,-3.9935,-3.9323,-3.8698,-3.7752,-3.6975,-3.6197,-3.5515,-3.4946,-3.4927,-3.5003,-3.4927,-3.4927,-3.4908,-3.4908,-3.4889,-3.487,-3.487,-3.485,-5.4515,-5.4566,-5.5016,-5.522,-5.5205,-5.5221,-5.5231,-5.5215,-5.5234,-5.5215,-5.5215,-5.5234,-5.5215,-5.5215,-5.5234,-5.5247,-5.5205,-5.5172,-5.5171,-5.5165,-5.5116,-5.5082,-5.4859,-5.4149,-5.3535,-5.3047,-5.2197,-5.1761,-5.1593,-5.1222,-5.0913,-5.0893,-5.0414,-5.0154,-4.9929,-4.9237,-4.8778,-4.8472,-4.7818,-4.7338,-4.7202,-4.6855,-4.6548,-4.6393,-4.6162,-4.5931,-4.5927,-4.5447,-4.5252,-4.5211,-4.5252,-4.5273,-4.5233,-4.517,-4.5148,-4.5148,-4.5103,-4.5057,-4.5057,-4.5014,-4.4991,-4.4991,-4.4967,-4.4943,-4.4943,-4.4919,-4.4895,-4.4895,-4.4876,-4.4876,-4.4876,-4.4611,-4.4313,-4.4241,-4.39,-4.3525,-4.3092,-4.2414,-4.1789,-4.1371,-4.1392,-4.1087,-4.0876,-4.0665,-4.0342,-4.0342,-4.0129,-4.0089,-3.9994,-3.9994,-3.9975,-3.9954,-3.9954,-3.9933,-3.9911,-3.9911,-3.9911,-3.9873,-3.9643,-3.9053,-3.8353,-3.7652,-3.695,-3.6251,-3.5533,-3.5135,-3.5154,-3.504,-3.4983,-3.4906,-3.4906,-3.4868,-3.4906,-3.5,-3.4923,-5.5405,-5.5474,-5.627,-5.6606,-5.6606,-5.6566,-5.6499,-5.6543,-5.6621,-5.6387,-5.6582,-5.6621,-5.6344,-5.652,-5.6474,-5.6547,-5.6499,-5.6425,-5.6179,-5.6129,-5.6095,-5.6066,-5.5882,-5.5327,-5.4718,-5.398,-5.3022,-5.2521,-5.2036,-5.1525,-5.1109,-5.0904,-5.0773,-5.0566,-5.0375,-4.999,-4.9508,-4.9292,-4.8581,-4.816,-4.8062,-4.7867,-4.7652,-4.7477,-4.7051,-4.6727,-4.6568,-4.6145,-4.5643,-4.5464,-4.5441,-4.546,-4.5403,-4.5118,-4.5103,-4.508,-4.5033,-4.501,-4.4986,-4.4962,-4.4895,-4.4895,-4.4895,-4.4895,-4.4895,-4.4895,-4.487,-4.4889,-4.4865,-4.4846,-4.487,-4.477,-4.4789,-4.4814,-4.4833,-4.4549,-4.3942,-4.3255,-4.294,-4.2395,-4.1955,-4.1554,-4.1459,-4.1307,-4.0886,-4.0526,-4.0331,-4.0211,-4.0192,-4.0116,-4.023,-4.0056,-4.0075,-3.9924,-3.9864,-3.9804,-3.9826,-3.9807,-3.9728,-3.9407,-3.8931,-3.8609,-3.7948,-3.6912,-3.6232,-3.591,-3.5644,-3.5605,-3.5471,-3.5128,-3.5432,-3.5943,-3.5754,-3.5241,-3.5241,-5.6277,-5.6313,-5.6504,-5.6606,-5.6606,-5.661,-5.661,-5.6621,-5.6621,-5.6621,-5.6621,-5.6621,-5.6614,-5.6614,-5.6606,-5.6558,-5.6523,-5.6498,-5.6469,-5.6387,-5.6347,-5.6317,-5.6168,-5.5928,-5.5633,-5.5252,-5.4172,-5.3075,-5.2423,-5.1927,-5.1508,-5.0875,-5.0721,-5.0663,-5.0525,-5.0349,-5.0155,-4.9956,-4.9321,-4.8958,-4.8799,-4.8395,-4.8048,-4.8006,-4.7694,-4.7518,-4.7457,-4.7319,-4.7153,-4.7105,-4.7105,-4.7023,-4.6676,-4.577,-4.528,-4.5219,-4.5209,-4.5261,-4.5198,-4.5047,-4.4952,-4.4895,-4.4946,-4.4908,-4.4889,-4.4846,-4.484,-4.4815,-4.4789,-4.4764,-4.4738,-4.4764,-4.4764,-4.4738,-4.4745,-4.4688,-4.448,-4.4222,-4.3705,-4.2981,-4.2412,-4.2052,-4.2109,-4.2109,-4.1882,-4.1575,-4.1363,-4.1321,-4.1335,-4.1108,-4.0919,-4.0589,-4.0226,-4.0019,-3.9811,-3.9773,-3.9754,-3.9735,-3.9717,-3.9717,-3.9429,-3.9505,-3.8943,-3.7885,-3.7227,-3.6925,-3.6659,-3.6335,-3.6276,-3.6217,-3.6713,-3.7206,-3.6653,-3.6142,-3.6384,-5.6523,-5.6558,-5.6582,-5.6606,-5.6606,-5.6606,-5.6607,-5.6621,-5.6621,-5.6621,-5.6621,-5.6616,-5.6605,-5.661,-5.6606,-5.6553,-5.6511,-5.6457,-5.6416,-5.6338,-5.6309,-5.6218,-5.6156,-5.6046,-5.5958,-5.5672,-5.4959,-5.4111,-5.3321,-5.2839,-5.2145,-5.1411,-5.1179,-5.0945,-5.0536,-5.0438,-5.0432,-5.0252,-4.9966,-4.9694,-4.9691,-4.919,-4.9033,-4.8914,-4.8524,-4.8324,-4.8186,-4.7724,-4.7523,-4.7435,-4.7448,-4.7422,-4.7195,-4.6815,-4.6234,-4.6234,-4.6171,-4.614,-4.6133,-4.6133,-4.6013,-4.5533,-4.5457,-4.5212,-4.4947,-4.477,-4.4764,-4.4738,-4.4738,-4.4712,-4.4712,-4.4712,-4.4712,-4.4712,-4.4712,-4.4685,-4.4712,-4.4712,-4.4171,-4.3561,-4.358,-4.3353,-4.2994,-4.298,-4.2867,-4.2659,-4.2408,-4.2408,-4.2459,-4.2057,-4.168,-4.1259,-4.0796,-4.0212,-3.9986,-3.9854,-3.9741,-3.9703,-3.9684,-3.9703,-3.9679,-3.9642,-3.9449,-3.8846,-3.838,-3.786,-3.7426,-3.7027,-3.7156,-3.7325,-3.7495,-3.7589,-3.7303,-3.7149,-3.7356,-5.6553,-5.6606,-5.661,-5.661,-5.6606,-5.6614,-5.6612,-5.6621,-5.6621,-5.6621,-5.6619,-5.6602,-5.6606,-5.6606,-5.6577,-5.6548,-5.6471,-5.6414,-5.6378,-5.6302,-5.6272,-5.6175,-5.6046,-5.5977,-5.5904,-5.5748,-5.557,-5.522,-5.428,-5.368,-5.2886,-5.2206,-5.1954,-5.1664,-5.1159,-5.1155,-5.0826,-5.0593,-5.055,-5.0531,-5.0317,-5.0231,-5.0207,-5.0163,-4.9504,-4.9087,-4.8986,-4.8542,-4.8188,-4.8105,-4.8041,-4.7965,-4.7882,-4.7863,-4.7882,-4.7844,-4.7579,-4.7382,-4.7254,-4.717,-4.6785,-4.6304,-4.6267,-4.5795,-4.5164,-4.49,-4.4667,-4.464,-4.4632,-4.4632,-4.4605,-4.4632,-4.4605,-4.4605,-4.4605,-4.4605,-4.4578,-4.4578,-4.456,-4.438,-4.4689,-4.4414,-4.3837,-4.3775,-4.3668,-4.363,-4.3379,-4.3297,-4.3271,-4.2781,-4.236,-4.1958,-4.1431,-4.0634,-4.0258,-4.0051,-3.9863,-3.9693,-3.9674,-3.965,-3.9669,-3.9626,-3.9438,-3.9263,-3.9105,-3.8606,-3.8154,-3.7905,-3.8164,-3.8315,-3.8197,-3.816,-3.8197,-3.8141,-3.8216,-5.6553,-5.6606,-5.6605,-5.6602,-5.6614,-5.6621,-5.6621,-5.6621,-5.6621,-5.6621,-5.6618,-5.661,-5.6606,-5.6602,-5.6553,-5.6485,-5.6402,-5.6387,-5.6347,-5.6285,-5.6204,-5.6114,-5.5995,-5.5942,-5.5846,-5.5724,-5.566,-5.5157,-5.4636,-5.4284,-5.366,-5.2962,-5.2747,-5.259,-5.2217,-5.2141,-5.2136,-5.1582,-5.1448,-5.108,-5.0422,-5.0283,-5.0234,-5.007,-4.9924,-4.9739,-4.9675,-4.9421,-4.9375,-4.9405,-4.9481,-4.953,-4.9532,-4.9504,-4.9476,-4.9013,-4.8258,-4.7284,-4.7399,-4.7504,-4.7391,-4.7118,-4.706,-4.6615,-4.5911,-4.5076,-4.4683,-4.4524,-4.4487,-4.4458,-4.4458,-4.4401,-4.4373,-4.4354,-4.4383,-4.4401,-4.4373,-4.4383,-4.4364,-4.4401,-4.4458,-4.4561,-4.4323,-4.4414,-4.4466,-4.4448,-4.4365,-4.4199,-4.4003,-4.3487,-4.3168,-4.2803,-4.2307,-4.1529,-4.118,-4.0879,-4.029,-3.9977,-3.9846,-3.9802,-3.984,-3.9852,-3.9577,-3.9427,-3.932,-3.9306,-3.8963,-3.8925,-3.9245,-3.9169,-3.8925,-3.9094,-3.9395,-3.9282,-3.892,-5.6582,-5.6606,-5.6614,-5.6607,-5.6614,-5.662,-5.6621,-5.6621,-5.6614,-5.6602,-5.661,-5.6618,-5.6595,-5.6558,-5.6503,-5.6471,-5.6405,-5.6368,-5.6302,-5.6213,-5.6145,-5.6029,-5.5942,-5.5866,-5.5766,-5.566,-5.5573,-5.5408,-5.5001,-5.4824,-5.4451,-5.3714,-5.3541,-5.323,-5.3034,-5.2824,-5.2594,-5.2346,-5.2182,-5.1776,-5.116,-5.0818,-5.0577,-5.0114,-5.0016,-4.999,-4.999,-4.9925,-4.9871,-4.9843,-4.9843,-4.9835,-4.9797,-4.975,-4.9702,-4.9588,-4.906,-4.8664,-4.8597,-4.8522,-4.8229,-4.7851,-4.7682,-4.7304,-4.6475,-4.564,-4.5086,-4.5065,-4.4616,-4.44,-4.4381,-4.4314,-4.4333,-4.4285,-4.4226,-4.4207,-4.4177,-4.4147,-4.4147,-4.4202,-4.424,-4.4304,-4.4383,-4.4355,-4.4327,-4.4355,-4.4318,-4.4252,-4.4205,-4.4055,-4.383,-4.369,-4.3175,-4.2566,-4.2369,-4.2106,-4.1154,-4.0723,-4.0375,-4.0312,-4.0244,-4.0132,-3.9933,-3.9652,-3.9446,-3.9489,-3.9546,-3.9514,-3.947,-3.9526,-3.9602,-3.9596,-3.9596,-3.9558,-3.9314,-5.6606,-5.6606,-5.6606,-5.6607,-5.6621,-5.6621,-5.6621,-5.6621,-5.6605,-5.6606,-5.6606,-5.6579,-5.6547,-5.6503,-5.6459,-5.643,-5.6407,-5.6325,-5.6253,-5.617,-5.6078,-5.5979,-5.5904,-5.5826,-5.5703,-5.5573,-5.5504,-5.5399,-5.5389,-5.5306,-5.4995,-5.4428,-5.4409,-5.4142,-5.3683,-5.3588,-5.3531,-5.3099,-5.2762,-5.2291,-5.1827,-5.1635,-5.1239,-5.0795,-5.0399,-5.022,-5.0182,-4.9909,-4.9843,-4.9835,-4.9778,-4.9769,-4.9749,-4.9682,-4.9604,-4.9525,-4.9269,-4.9288,-4.9239,-4.9201,-4.9107,-4.8671,-4.8128,-4.7704,-4.7137,-4.6265,-4.5711,-4.5749,-4.4699,-4.4438,-4.4401,-4.4351,-4.4153,-4.4104,-4.4055,-4.4036,-4.4036,-4.3974,-4.3961,-4.3979,-4.4016,-4.4016,-4.4055,-4.4097,-4.4128,-4.4207,-4.4226,-4.4237,-4.4237,-4.4218,-4.4162,-4.3986,-4.3714,-4.3247,-4.3108,-4.2791,-4.1987,-4.1437,-4.1092,-4.0942,-4.0913,-4.067,-4.0435,-4.0098,-3.978,-3.9556,-3.9619,-3.9621,-3.962,-3.9596,-3.9596,-3.9571,-3.9571,-3.9571,-3.9608,-5.6606,-5.6606,-5.6606,-5.6607,-5.6621,-5.6621,-5.6621,-5.6621,-5.6621,-5.6606,-5.6602,-5.6533,-5.6503,-5.6478,-5.643,-5.6407,-5.6397,-5.6329,-5.6232,-5.616,-5.6065,-5.596,-5.5866,-5.5745,-5.564,-5.5527,-5.5456,-5.5402,-5.539,-5.539,-5.5326,-5.5307,-5.5078,-5.5193,-5.504,-5.4709,-5.4435,-5.3906,-5.3312,-5.2821,-5.2547,-5.2417,-5.2275,-5.1992,-5.149,-5.1111,-5.1073,-5.0392,-4.9977,-4.9948,-4.9778,-4.9663,-4.9593,-4.9593,-4.9514,-4.9402,-4.9371,-4.9308,-4.9276,-4.9308,-4.9257,-4.8963,-4.8544,-4.8068,-4.776,-4.6656,-4.6246,-4.635,-4.5342,-4.4777,-4.4689,-4.442,-4.4161,-4.405,-4.3999,-4.3781,-4.3749,-4.3786,-4.3753,-4.3786,-4.3786,-4.3753,-4.3701,-4.373,-4.391,-4.3992,-4.4073,-4.4055,-4.4048,-4.4048,-4.4129,-4.4073,-4.4017,-4.3776,-4.3632,-4.3155,-4.2642,-4.2177,-4.1816,-4.1706,-4.167,-4.1381,-4.0859,-4.0746,-4.0448,-4.0064,-3.9773,-3.9975,-4.0008,-3.9702,-3.9571,-3.952,-3.9607,-3.9694,-3.9694,-5.6606,-5.6606,-5.661,-5.6619,-5.6621,-5.6621,-5.6619,-5.6607,-5.6614,-5.6606,-5.6602,-5.6533,-5.6491,-5.6484,-5.6441,-5.6378,-5.6341,-5.6272,-5.6194,-5.6082,-5.5979,-5.5904,-5.5806,-5.5799,-5.5615,-5.5562,-5.547,-5.5377,-5.5384,-5.5479,-5.5403,-5.5403,-5.5377,-5.5384,-5.5384,-5.5313,-5.5012,-5.4768,-5.4229,-5.3888,-5.3328,-5.3215,-5.2978,-5.2362,-5.2229,-5.1935,-5.1755,-5.1008,-5.0619,-5.0315,-4.9935,-4.9676,-4.949,-4.949,-4.9321,-4.9206,-4.9193,-4.9146,-4.9061,-4.9127,-4.9179,-4.9008,-4.8732,-4.8494,-4.8298,-4.7302,-4.6932,-4.6694,-4.6252,-4.5685,-4.5574,-4.5007,-4.4475,-4.4241,-4.4005,-4.3731,-4.3587,-4.3642,-4.3516,-4.3532,-4.3481,-4.3465,-4.3428,-4.3373,-4.3597,-4.38,-4.3832,-4.3865,-4.3828,-4.3828,-4.3888,-4.3943,-4.3888,-4.3795,-4.3606,-4.3452,-4.3267,-4.2909,-4.2495,-4.2445,-4.2307,-4.1664,-4.1274,-4.1221,-4.125,-4.0971,-4.0775,-4.0643,-4.0416,-4.005,-3.9713,-3.9455,-3.9578,-3.9877,-4.0093,-5.6741,-5.6978,-5.6992,-5.6835,-5.6621,-5.662,-5.661,-5.661,-5.6606,-5.6582,-5.6558,-5.6509,-5.6485,-5.6469,-5.6416,-5.6358,-5.6401,-5.647,-5.6498,-5.6553,-5.6618,-5.654,-5.6496,-5.6486,-5.6544,-5.6228,-5.6135,-5.6174,-5.5842,-5.5785,-5.5613,-5.5434,-5.5358,-5.5332,-5.5313,-5.5241,-5.5121,-5.5066,-5.4943,-5.4762,-5.4126,-5.4059,-5.3886,-5.3204,-5.2948,-5.2691,-5.2405,-5.1798,-5.1303,-5.091,-5.0472,-4.989,-4.9608,-4.9393,-4.9179,-4.9094,-4.9061,-4.8978,-4.889,-4.889,-4.8959,-4.8802,-4.8802,-4.8694,-4.8439,-4.7905,-4.7609,-4.7573,-4.7113,-4.6616,-4.6304,-4.5571,-4.5058,-4.4875,-4.4235,-4.3888,-4.3688,-4.3651,-4.3414,-4.3286,-4.3269,-4.3269,-4.3251,-4.325,-4.3321,-4.3479,-4.3532,-4.3548,-4.3545,-4.3582,-4.3621,-4.3658,-4.364,-4.3548,-4.3419,-4.3376,-4.3369,-4.3365,-4.3065,-4.3056,-4.2828,-4.2223,-4.1915,-4.195,-4.1954,-4.189,-4.1547,-4.1045,-4.0691,-4.0381,-4.0205,-4.0141,-4.016,-4.0505,-4.0961,-5.709,-5.7832,-5.7832,-5.7389,-5.6796,-5.6644,-5.6649,-5.6723,-5.6621,-5.6558,-5.6509,-5.6491,-5.6464,-5.6444,-5.6495,-5.6566,-5.6634,-5.7036,-5.7284,-5.7349,-5.7582,-5.7981,-5.7931,-5.7743,-5.7454,-5.7838,-5.7557,-5.7053,-5.6587,-5.6568,-5.6122,-5.5649,-5.5584,-5.5309,-5.5241,-5.5066,-5.4981,-5.5,-5.4931,-5.4855,-5.475,-5.4693,-5.4519,-5.4281,-5.3815,-5.3482,-5.3201,-5.2491,-5.2002,-5.1775,-5.1026,-5.0553,-5.0355,-4.9545,-4.9198,-4.9039,-4.8876,-4.8732,-4.8642,-4.8642,-4.8587,-4.8587,-4.8605,-4.8569,-4.855,-4.8329,-4.8088,-4.7921,-4.7276,-4.6777,-4.6426,-4.6132,-4.5805,-4.5384,-4.4783,-4.4252,-4.4069,-4.3668,-4.3467,-4.3303,-4.3196,-4.3214,-4.3178,-4.3178,-4.316,-4.3196,-4.3214,-4.3232,-4.3267,-4.3339,-4.3412,-4.3431,-4.3448,-4.3321,-4.3283,-4.3408,-4.3477,-4.3548,-4.3526,-4.3391,-4.342,-4.3176,-4.2926,-4.2749,-4.2699,-4.2686,-4.2006,-4.129,-4.1434,-4.1632,-4.1259,-4.1138,-4.107,-4.1171,-4.1657,-5.7124,-5.7886,-5.7896,-5.8046,-5.8147,-5.7679,-5.7438,-5.7289,-5.6831,-5.6514,-5.6503,-5.6471,-5.6433,-5.6524,-5.6909,-5.7068,-5.7198,-5.7802,-5.8141,-5.8066,-5.8329,-5.8184,-5.8208,-5.8265,-5.8113,-5.8011,-5.7939,-5.7925,-5.7466,-5.7382,-5.726,-5.6842,-5.6121,-5.5617,-5.5228,-5.5,-5.499,-5.4941,-5.4901,-5.4901,-5.492,-5.486,-5.4829,-5.478,-5.4377,-5.4163,-5.4024,-5.3131,-5.2747,-5.2507,-5.1772,-5.1223,-5.091,-5.017,-4.9637,-4.9362,-4.9086,-4.8532,-4.8363,-4.8267,-4.8288,-4.8344,-4.8382,-4.8306,-4.8229,-4.819,-4.8151,-4.8093,-4.7536,-4.7314,-4.7427,-4.6782,-4.64,-4.6161,-4.5591,-4.5019,-4.4635,-4.4014,-4.3632,-4.3451,-4.331,-4.3059,-4.2989,-4.2974,-4.2956,-4.2975,-4.3013,-4.3105,-4.3178,-4.3214,-4.3269,-4.3269,-4.3251,-4.3142,-4.3105,-4.3232,-4.3304,-4.3304,-4.3356,-4.3406,-4.3493,-4.3631,-4.3601,-4.3241,-4.3378,-4.3441,-4.2903,-4.2581,-4.2965,-4.3051,-4.24,-4.1935,-4.1765,-4.1969,-4.2445,-5.7093,-5.7874,-5.7874,-5.8336,-5.889,-5.8222,-5.7692,-5.7304,-5.6743,-5.6478,-5.6459,-5.6422,-5.6592,-5.6872,-5.723,-5.7737,-5.7876,-5.8623,-5.8896,-5.8832,-5.9072,-5.9153,-5.9095,-5.8866,-5.9082,-5.8827,-5.8716,-5.8689,-5.8271,-5.8205,-5.7882,-5.7415,-5.7004,-5.628,-5.5673,-5.5245,-5.496,-5.4882,-5.4871,-5.486,-5.4829,-5.4799,-5.4736,-5.4686,-5.4584,-5.4519,-5.4303,-5.3898,-5.3433,-5.3096,-5.2529,-5.1881,-5.1473,-5.0879,-5.0324,-4.9914,-4.9281,-4.8632,-4.8221,-4.797,-4.7992,-4.8032,-4.8108,-4.809,-4.801,-4.797,-4.7929,-4.787,-4.7775,-4.7733,-4.7601,-4.6998,-4.6866,-4.6608,-4.6223,-4.5629,-4.5281,-4.4718,-4.4191,-4.3976,-4.3755,-4.3378,-4.2947,-4.2757,-4.2706,-4.2765,-4.2786,-4.2936,-4.3067,-4.3068,-4.3068,-4.3086,-4.3031,-4.2902,-4.2921,-4.3014,-4.3069,-4.3087,-4.3178,-4.3286,-4.341,-4.3548,-4.3649,-4.373,-4.368,-4.3719,-4.3881,-4.3893,-4.3745,-4.3503,-4.3076,-4.2674,-4.2458,-4.2718,-4.3138,-5.7113,-5.7836,-5.7836,-5.8304,-5.887,-5.8187,-5.7319,-5.6567,-5.6503,-5.6459,-5.6394,-5.6405,-5.6738,-5.7373,-5.7541,-5.7998,-5.8662,-5.9457,-5.9626,-5.9727,-5.9999,-6.0207,-6.0265,-6.0193,-5.9966,-6.0168,-6.0074,-5.9493,-5.9073,-5.8978,-5.8519,-5.784,-5.7597,-5.696,-5.6266,-5.5735,-5.5261,-5.5023,-5.486,-5.4799,-5.4786,-5.4705,-5.4622,-5.4557,-5.4491,-5.4424,-5.4281,-5.4078,-5.3992,-5.3627,-5.3125,-5.2678,-5.2098,-5.1348,-5.0952,-5.0409,-4.9661,-4.8958,-4.8257,-4.7959,-4.7717,-4.7801,-4.7829,-4.7911,-4.787,-4.7765,-4.7681,-4.7639,-4.7518,-4.7432,-4.7255,-4.7237,-4.7245,-4.6931,-4.6625,-4.6295,-4.6097,-4.5623,-4.5138,-4.4869,-4.4701,-4.4342,-4.3786,-4.3391,-4.3176,-4.314,-4.322,-4.2987,-4.3012,-4.2783,-4.2802,-4.2838,-4.2781,-4.2688,-4.2709,-4.2806,-4.2862,-4.29,-4.305,-4.3196,-4.3322,-4.3428,-4.3513,-4.3631,-4.3791,-4.3886,-4.3961,-4.4011,-4.3986,-4.3708,-4.3466,-4.3417,-4.3212,-4.3398,-4.3745,-5.7074,-5.7816,-5.7807,-5.8309,-5.8914,-5.8161,-5.7297,-5.6563,-5.6445,-5.6422,-5.6405,-5.6367,-5.6873,-5.7502,-5.8041,-5.8734,-5.9457,-6.0091,-6.0368,-6.0522,-6.0482,-6.0494,-6.0499,-6.0444,-6.0408,-6.0352,-6.0285,-6.0122,-5.9824,-5.9718,-5.9209,-5.8477,-5.8331,-5.7769,-5.7188,-5.6721,-5.5908,-5.5196,-5.4975,-5.4812,-5.4742,-5.4608,-5.4524,-5.4405,-5.4356,-5.4252,-5.4163,-5.4032,-5.3943,-5.372,-5.3454,-5.313,-5.289,-5.211,-5.1417,-5.0362,-4.9851,-4.9463,-4.8565,-4.8297,-4.8091,-4.7695,-4.7583,-4.7475,-4.7475,-4.7529,-4.7443,-4.7407,-4.7363,-4.7276,-4.7232,-4.7232,-4.7232,-4.707,-4.6855,-4.6739,-4.6524,-4.6175,-4.5728,-4.5566,-4.538,-4.4939,-4.4378,-4.4235,-4.4038,-4.3853,-4.3674,-4.3447,-4.3,-4.2777,-4.2566,-4.2641,-4.2624,-4.253,-4.2552,-4.2652,-4.267,-4.2727,-4.288,-4.3013,-4.3087,-4.3214,-4.3375,-4.3529,-4.3712,-4.3846,-4.3984,-4.3998,-4.3992,-4.4005,-4.3819,-4.3931,-4.4005,-4.4005,-4.4005,-5.6846,-5.7255,-5.7278,-5.7597,-5.7882,-5.7485,-5.6905,-5.65,-5.6433,-5.6387,-5.6397,-5.6679,-5.7203,-5.8017,-5.8751,-5.9475,-6.0187,-6.0506,-6.07,-6.0553,-6.0552,-6.0499,-6.0444,-6.0408,-6.0371,-6.0313,-6.0235,-6.0129,-6.0057,-5.9975,-5.9557,-5.9222,-5.9133,-5.857,-5.7994,-5.7602,-5.6951,-5.6101,-5.5427,-5.4999,-5.4764,-5.4533,-5.4409,-5.4306,-5.4254,-5.4183,-5.4,-5.3832,-5.3758,-5.3639,-5.3455,-5.3309,-5.3042,-5.2486,-5.1686,-5.0706,-5.0426,-4.9902,-4.9199,-4.8946,-4.8595,-4.8218,-4.7815,-4.7707,-4.7572,-4.7519,-4.7375,-4.7249,-4.7205,-4.7205,-4.7187,-4.7187,-4.7187,-4.7187,-4.7143,-4.7116,-4.6856,-4.6579,-4.6364,-4.6159,-4.5802,-4.532,-4.5035,-4.4963,-4.4828,-4.4507,-4.4346,-4.4317,-4.3638,-4.2905,-4.2606,-4.2468,-4.2468,-4.245,-4.2472,-4.2512,-4.253,-4.2588,-4.2688,-4.2786,-4.2882,-4.3032,-4.3232,-4.341,-4.3649,-4.3771,-4.3906,-4.3934,-4.3961,-4.3961,-4.3992,-4.4023,-4.4023,-4.4005,-4.4005,-5.6491,-5.6524,-5.6491,-5.6547,-5.6425,-5.6474,-5.6407,-5.6386,-5.6369,-5.6358,-5.6453,-5.7133,-5.7789,-5.8463,-5.9203,-5.9978,-6.0448,-6.0719,-6.068,-6.0518,-6.0491,-6.0417,-6.038,-6.0323,-6.0264,-6.0216,-6.0167,-6.0057,-6.0013,-5.9931,-5.9899,-5.9885,-5.9748,-5.9246,-5.8646,-5.8503,-5.7887,-5.6955,-5.6315,-5.5811,-5.5066,-5.4624,-5.4368,-5.424,-5.4204,-5.4112,-5.3851,-5.372,-5.3608,-5.3418,-5.3195,-5.3102,-5.286,-5.2572,-5.1808,-5.1369,-5.1023,-5.0473,-4.9941,-4.9614,-4.9489,-4.9138,-4.8787,-4.8418,-4.8179,-4.7509,-4.725,-4.716,-4.7116,-4.707,-4.707,-4.707,-4.707,-4.707,-4.7088,-4.7043,-4.6936,-4.6748,-4.6712,-4.6551,-4.6355,-4.5927,-4.5873,-4.5802,-4.5731,-4.5249,-4.4928,-4.4946,-4.4482,-4.3518,-4.3001,-4.2685,-4.2667,-4.2708,-4.2369,-4.2409,-4.2445,-4.2526,-4.2548,-4.2627,-4.2709,-4.29,-4.305,-4.3304,-4.3513,-4.3671,-4.3789,-4.3837,-4.3883,-4.3915,-4.3947,-4.4011,-4.3992,-4.3992,-4.4023,-5.6498,-5.6478,-5.643,-5.6416,-5.6388,-5.6347,-5.6314,-5.6317,-5.622,-5.6214,-5.6421,-5.7048,-5.7787,-5.8605,-5.9379,-6.0126,-6.0627,-6.0655,-6.0578,-6.0472,-6.0408,-6.0352,-6.0304,-6.0197,-6.0137,-6.0076,-6.0026,-5.9994,-5.995,-5.9885,-5.9853,-5.9805,-5.9776,-5.9496,-5.9185,-5.9095,-5.861,-5.7752,-5.7397,-5.6873,-5.6256,-5.5958,-5.5772,-5.5155,-5.4743,-5.4368,-5.3989,-5.3477,-5.3381,-5.3206,-5.3003,-5.2826,-5.2618,-5.234,-5.206,-5.1754,-5.1562,-5.1065,-5.0623,-5.0271,-5.0079,-4.9633,-4.921,-4.9103,-4.8639,-4.7668,-4.7132,-4.7097,-4.7025,-4.6998,-4.6998,-4.6998,-4.6998,-4.6998,-4.6998,-4.6998,-4.6998,-4.6998,-4.6998,-4.689,-4.6766,-4.6676,-4.6605,-4.6569,-4.6551,-4.6203,-4.5677,-4.5419,-4.5196,-4.4538,-4.3924,-4.3576,-4.328,-4.3144,-4.2697,-4.2412,-4.2483,-4.2417,-4.2427,-4.2508,-4.2588,-4.2804,-4.3013,-4.3214,-4.3393,-4.3534,-4.3655,-4.3738,-4.3804,-4.3837,-4.3851,-4.3865,-4.3883,-4.3883,-4.3929,-5.6444,-5.6444,-5.6398,-5.6347,-5.6353,-5.6297,-5.6226,-5.619,-5.6091,-5.6071,-5.6315,-5.7248,-5.8066,-5.8703,-5.9547,-6.0131,-6.0647,-6.0552,-6.0464,-6.0408,-6.0352,-6.0294,-6.0197,-6.0087,-6.0057,-5.9994,-5.9963,-5.995,-5.9904,-5.9839,-5.9824,-5.9757,-5.9741,-5.9618,-5.9493,-5.9364,-5.9084,-5.8503,-5.8332,-5.7956,-5.7358,-5.6889,-5.6251,-5.5535,-5.5207,-5.4866,-5.4525,-5.4007,-5.3586,-5.3284,-5.2917,-5.2506,-5.2264,-5.2102,-5.1956,-5.1822,-5.1701,-5.1544,-5.1137,-5.0905,-5.0744,-5.0352,-4.9906,-4.987,-4.971,-4.8782,-4.8043,-4.79,-4.7168,-4.6998,-4.6998,-4.6998,-4.6998,-4.6998,-4.6998,-4.6998,-4.6998,-4.6998,-4.6998,-4.6962,-4.6873,-4.6873,-4.6819,-4.671,-4.6692,-4.6674,-4.6191,-4.5992,-4.5797,-4.5457,-4.4928,-4.4494,-4.4157,-4.3561,-4.2974,-4.269,-4.2625,-4.2507,-4.2501,-4.2458,-4.2597,-4.2783,-4.2975,-4.3087,-4.3251,-4.3376,-4.3481,-4.3603,-4.3686,-4.3701,-4.3734,-4.3749,-4.3734,-4.3753,-4.3781,-5.6406,-5.6375,-5.6321,-5.6265,-5.6265,-5.6218,-5.6126,-5.6082,-5.5995,-5.5922,-5.6116,-5.7661,-5.8235,-5.8828,-5.9906,-6.0301,-6.0533,-6.0455,-6.039,-6.0294,-6.0264,-6.0186,-6.0106,-6.0045,-5.9994,-5.9963,-5.9918,-5.9885,-5.9872,-5.9824,-5.9791,-5.9723,-5.9618,-5.9475,-5.942,-5.9309,-5.9045,-5.8872,-5.8676,-5.8605,-5.8006,-5.7279,-5.6598,-5.6177,-5.5877,-5.5754,-5.5317,-5.4825,-5.4198,-5.3499,-5.285,-5.2324,-5.2023,-5.1907,-5.184,-5.174,-5.174,-5.1654,-5.1565,-5.153,-5.153,-5.1405,-5.0923,-5.062,-5.0441,-4.9924,-4.9121,-4.855,-4.7818,-4.7301,-4.7301,-4.7212,-4.7212,-4.7033,-4.7033,-4.6998,-4.6998,-4.6998,-4.698,-4.698,-4.6934,-4.6934,-4.6888,-4.6842,-4.6795,-4.6749,-4.6684,-4.6637,-4.6436,-4.6088,-4.5617,-4.5311,-4.5046,-4.435,-4.3474,-4.3235,-4.3172,-4.3109,-4.3081,-4.2781,-4.2565,-4.2735,-4.2858,-4.2918,-4.3068,-4.3251,-4.3359,-4.3466,-4.3534,-4.3658,-4.3618,-4.3652,-4.3649,-4.3667,-4.3664,-5.6383,-5.6304,-5.6239,-5.6185,-5.613,-5.6043,-5.5993,-5.5922,-5.5808,-5.5747,-5.6128,-5.7351,-5.8184,-5.8299,-5.983,-6.0456,-6.0444,-6.0351,-6.0254,-6.0167,-6.0106,-6.0057,-5.9994,-5.9982,-5.9918,-5.9918,-5.9885,-5.9872,-5.9805,-5.9791,-5.9688,-5.9564,-5.9438,-5.9328,-5.9234,-5.91,-5.8982,-5.8862,-5.8698,-5.8529,-5.8268,-5.777,-5.7475,-5.7011,-5.661,-5.599,-5.5414,-5.4891,-5.4324,-5.3555,-5.272,-5.222,-5.1996,-5.1879,-5.174,-5.169,-5.169,-5.169,-5.169,-5.169,-5.169,-5.169,-5.1298,-5.1315,-5.1066,-5.0709,-5.0156,-4.9977,-4.9264,-4.8514,-4.8318,-4.805,-4.7925,-4.7372,-4.714,-4.7023,-4.697,-4.6952,-4.6934,-4.6888,-4.6824,-4.6778,-4.6731,-4.6684,-4.6655,-4.659,-4.6542,-4.6447,-4.6447,-4.6315,-4.6249,-4.6002,-4.5738,-4.5129,-4.4332,-4.4084,-4.3943,-4.3864,-4.3696,-4.3472,-4.3119,-4.2696,-4.2767,-4.3231,-4.3206,-4.3248,-4.3323,-4.3616,-4.3615,-4.3759,-4.3593,-4.3536,-4.3624,-4.3807,-4.4028]}]]